ECMWFNIL_850_thetae_000.txt.gz
Theta_e
316 318 317 314 310 309 311 310 307 306 307 307 307 307 306 306 306 306 306 306 306 306 306 306 306 306 306 306 306 306 306 306 305 305 305 305 305 305 304 304 304 304
316 318 317 313 311 311 311 311 308 307 308 309 308 308 307 307 307 306 307 306 306 307 307 306 306 306 306 306 306 306 306 305 305 305 305 305 305 304 304 304 304 304
316 317 318 314 312 311 311 311 310 309 310 309 309 309 309 309 308 307 307 307 307 307 307 307 306 306 306 307 306 306 306 305 305 305 305 305 305 304 304 304 304 304
316 317 318 314 313 312 311 312 312 312 312 311 311 311 311 310 310 309 308 308 307 308 307 307 307 307 306 306 306 306 306 306 306 306 305 305 305 305 305 305 305 305
316 317 317 315 314 313 313 313 313 313 314 313 312 312 312 312 312 312 311 310 309 309 308 308 307 308 307 307 307 307 306 307 307 306 306 306 307 306 307 307 306 307
317 317 318 316 315 314 314 314 314 315 315 314 314 314 313 314 314 315 314 314 312 311 311 311 310 309 309 308 308 307 307 307 307 307 307 307 307 307 307 308 307 307
318 317 318 317 316 315 314 314 315 315 315 315 315 314 315 315 315 316 316 316 316 315 315 315 314 314 313 312 311 310 309 308 308 308 307 307 307 307 307 307 308 307
319 318 318 318 317 316 315 315 316 316 315 315 315 315 316 316 316 316 317 317 316 316 316 316 316 317 317 316 316 315 314 313 311 310 309 308 308 308 308 307 307 307
319 319 319 317 317 317 317 316 316 317 316 316 316 316 316 316 316 316 317 317 316 316 316 316 316 317 317 317 317 317 317 317 316 315 313 312 310 309 308 308 307 308
319 319 318 318 317 317 317 317 317 317 317 317 317 317 317 316 317 317 317 317 317 317 317 316 316 316 316 317 317 316 317 317 317 317 317 316 314 313 311 310 309 308
320 319 318 319 318 317 318 318 317 317 318 318 318 318 317 317 318 318 318 318 317 316 316 316 317 316 316 316 315 316 316 316 317 317 317 317 316 315 314 313 312 310
319 319 319 319 318 318 318 318 318 317 317 318 319 319 318 317 318 318 317 317 317 316 316 316 317 316 316 315 315 314 315 316 317 317 317 317 317 316 315 315 314 313
319 319 319 319 319 319 317 317 318 317 318 318 317 318 319 319 319 318 317 317 316 316 316 316 316 317 316 315 314 314 314 315 317 317 318 317 317 317 316 315 315 313
319 318 319 319 320 319 318 318 317 317 318 318 317 318 318 319 318 318 318 317 316 315 316 316 317 317 316 314 314 314 314 314 314 315 317 317 317 317 317 315 314 314
320 319 319 319 320 319 317 318 318 317 318 318 318 318 317 316 316 316 317 317 317 316 317 317 317 316 315 313 313 314 314 313 313 314 317 318 317 317 317 316 315 314
320 320 320 319 319 317 316 316 317 316 317 318 319 318 316 316 317 316 317 317 316 316 316 316 316 315 314 313 314 315 315 315 315 315 317 318 317 317 316 316 315 314
321 320 320 319 318 318 317 317 318 318 317 317 317 316 316 317 317 316 315 313 313 314 314 314 314 315 314 314 315 316 316 317 317 316 317 317 317 317 317 316 315 314
319 318 318 318 318 318 317 316 317 317 316 316 316 316 315 315 313 310 309 309 311 314 315 315 314 315 314 314 314 315 316 317 317 317 317 317 318 318 317 315 315 315
315 315 316 317 318 317 314 313 313 313 313 313 314 312 310 309 309 310 311 312 313 315 315 315 315 315 315 315 315 316 317 318 319 318 318 318 318 319 317 315 314 314
312 313 314 315 316 314 312 311 311 311 312 312 312 310 309 310 312 313 313 314 314 313 313 313 314 314 314 314 314 314 315 316 317 318 319 319 318 318 317 316 315 314
310 311 311 311 311 311 311 311 311 311 312 312 312 313 313 313 314 314 313 313 312 311 310 310 310 310 309 308 307 307 307 309 313 316 318 319 318 317 316 315 314 313
309 310 309 309 310 310 310 309 308 308 309 309 309 311 312 312 311 310 309 308 308 308 307 307 307 306 305 304 304 303 303 306 310 315 317 318 317 316 315 314 312 312
308 308 309 309 309 309 308 305 304 304 304 304 305 305 305 305 305 305 305 304 304 304 305 307 307 306 305 304 303 302 302 304 307 311 314 316 315 315 314 313 311 311
306 307 307 308 308 308 306 304 303 303 303 303 303 303 304 304 305 307 306 305 305 305 306 307 308 307 307 306 305 304 304 305 308 311 312 313 314 313 312 311 310 309
307 307 307 307 307 307 307 306 305 304 304 303 302 302 303 305 306 307 308 308 308 308 308 308 309 308 308 308 308 307 306 306 309 312 312 312 311 311 310 309 309 308
307 308 308 308 308 308 308 307 306 305 304 304 303 303 302 302 303 306 308 309 309 309 309 309 309 309 309 309 309 309 308 306 307 309 311 311 311 310 309 308 308 308

ECMWFNIL_850_thetae_003.txt.gz
Theta_e
315 314 314 316 314 310 309 307 305 305 305 305 305 305 305 306 306 306 306 306 306 306 306 306 306 306 306 306 306 306 305 305 305 305 305 305 305 305 305 305 305 304
316 316 313 316 317 312 308 307 305 306 306 305 306 306 306 306 306 306 306 306 306 306 306 306 306 306 306 306 306 305 305 305 305 304 305 305 304 304 304 304 304 303
317 317 313 314 318 315 309 307 306 306 306 306 306 306 307 307 307 307 307 307 306 306 306 306 306 306 306 306 305 305 305 305 305 305 305 305 304 304 304 304 304 304
315 316 315 313 315 316 311 307 307 307 307 307 307 307 307 308 308 309 309 308 308 308 307 307 307 307 306 306 306 306 306 306 306 306 306 306 306 305 305 305 306 306
315 316 316 315 315 317 314 309 308 308 307 308 308 307 307 308 309 309 310 310 310 310 310 309 309 309 308 308 307 307 307 307 307 308 307 308 307 307 307 307 307 307
316 317 317 316 316 317 316 311 309 309 309 309 310 309 308 308 309 309 309 309 310 310 310 310 310 309 309 309 308 308 308 308 308 308 308 308 308 308 308 307 307 308
317 317 316 318 318 317 317 314 310 311 313 313 313 313 312 311 311 311 310 310 311 311 312 311 312 311 311 310 310 309 309 309 309 309 308 308 308 308 308 308 308 308
318 317 316 317 318 318 317 316 313 312 314 315 315 315 315 314 314 314 314 314 314 315 315 315 315 315 314 313 313 313 313 313 313 313 312 311 310 309 308 308 308 307
319 317 316 318 319 318 317 317 314 313 313 315 316 316 316 316 316 316 316 316 316 316 316 316 316 316 315 315 315 315 315 316 316 316 316 315 314 313 312 311 310 310
319 317 316 317 320 319 318 317 316 314 314 315 316 316 316 316 316 316 316 317 316 316 316 316 316 316 316 316 316 316 316 316 317 317 317 317 317 316 316 315 315 314
319 318 316 317 319 319 318 317 316 315 315 316 316 317 316 316 316 316 316 316 317 317 317 316 316 316 316 316 316 316 316 316 316 316 317 317 317 317 317 317 317 317
319 318 317 318 319 318 317 317 317 316 315 316 316 317 317 316 316 316 316 316 316 317 317 316 316 316 316 316 316 316 316 316 316 316 317 317 317 317 317 317 317 317
320 319 320 320 320 319 318 317 318 317 316 316 317 318 317 316 316 316 316 315 316 317 317 317 316 316 316 316 317 317 316 315 315 315 316 317 317 317 317 317 317 317
320 320 320 320 319 318 318 318 318 317 317 318 318 317 317 316 316 316 316 315 315 316 316 317 316 316 317 317 317 317 315 314 313 314 316 316 316 316 316 317 317 317
319 320 320 319 318 319 318 318 318 317 317 317 316 315 315 314 314 315 316 315 315 315 316 316 316 317 317 317 317 317 315 313 312 313 314 315 315 315 315 316 317 317
319 319 320 319 318 318 318 318 318 317 316 316 315 315 314 314 314 315 315 314 315 316 316 317 317 317 318 317 317 316 315 314 314 314 315 316 316 316 316 316 317 317
318 318 319 319 318 317 317 318 318 317 315 314 315 316 315 315 316 315 315 315 315 316 317 317 317 318 317 317 316 316 315 315 315 315 315 316 316 316 316 316 317 317
318 317 317 317 318 318 318 317 317 317 316 315 316 317 315 315 316 316 316 316 316 316 316 316 316 316 315 315 314 315 315 315 315 315 315 316 316 317 317 317 317 317
318 318 318 318 319 319 319 318 317 317 316 316 316 316 315 315 315 315 315 315 316 316 315 315 315 315 315 315 315 315 315 315 315 315 315 316 316 317 318 318 318 318
318 318 317 318 318 318 318 318 317 317 317 316 315 314 314 314 314 315 315 315 316 315 314 314 314 313 313 313 313 312 312 311 310 309 309 309 309 311 314 316 318 318
316 316 316 316 317 317 317 317 316 316 316 315 314 314 314 314 315 315 315 315 315 314 313 311 309 307 306 306 306 306 305 305 304 303 302 303 304 307 310 313 316 317
314 315 315 315 315 315 315 315 314 314 313 314 314 314 314 314 314 314 314 313 312 310 307 304 303 302 303 303 303 304 303 303 303 302 302 302 303 305 308 311 314 316
313 313 313 312 312 311 312 312 312 312 312 312 312 313 313 313 313 313 312 310 307 304 303 302 303 303 303 303 304 304 304 304 304 304 304 303 303 303 305 308 312 314
310 311 311 311 310 310 310 310 310 310 309 309 310 310 310 310 309 309 307 305 303 303 303 303 303 304 304 305 305 305 306 306 306 306 306 305 304 305 306 308 310 312
307 308 308 309 309 309 309 308 307 305 305 305 305 305 305 305 305 304 304 304 304 304 304 304 305 306 307 307 307 308 308 308 308 308 308 307 305 306 308 309 309 310
307 307 307 308 308 307 307 307 305 304 303 303 303 302 302 303 303 303 303 303 304 304 305 307 308 308 308 308 309 309 309 310 309 309 309 308 306 306 308 309 308 308

ECMWFNIL_850_thetae_006.txt.gz
Theta_e
320 317 314 314 314 312 310 308 305 304 304 305 305 306 307 306 305 305 306 306 306 306 306 305 306 306 305 305 305 305 305 305 305 305 305 305 305 305 304 304 304 304
319 316 312 313 315 314 311 309 306 304 304 305 305 305 306 306 305 306 305 306 306 306 306 306 305 306 305 305 305 304 304 304 304 304 304 304 304 304 304 304 305 305
318 315 314 313 313 310 310 309 306 305 305 305 305 305 305 305 305 305 306 305 306 306 306 306 306 305 305 305 305 305 305 305 305 305 305 305 305 305 306 306 307 308
317 315 315 314 310 309 312 312 307 305 306 305 305 306 305 306 305 306 306 306 306 306 306 306 305 305 305 306 306 306 306 307 307 308 307 307 307 308 308 308 309 310
316 315 315 313 310 310 314 314 309 306 306 305 306 306 306 306 306 306 306 306 306 306 306 306 306 306 306 306 306 307 307 308 309 309 309 310 309 309 309 309 309 310
314 314 315 314 313 311 313 315 312 308 306 306 306 306 306 306 306 306 306 306 306 306 306 306 306 306 306 307 307 307 307 308 308 309 308 309 309 310 309 309 309 309
314 315 315 315 315 312 313 315 314 311 307 306 307 306 306 307 307 307 307 307 307 307 307 307 307 307 307 307 307 307 307 307 307 307 307 307 308 308 308 308 308 308
315 316 315 315 316 314 314 315 316 314 309 307 308 308 308 307 307 308 307 308 308 308 308 308 308 308 308 308 308 308 309 309 308 308 308 307 307 307 307 307 307 307
316 317 315 314 316 316 315 315 317 317 313 310 309 310 310 309 308 309 309 310 311 311 311 310 310 310 310 311 312 313 313 313 313 313 312 312 311 310 309 308 308 308
317 318 315 314 315 317 316 316 316 317 317 314 312 312 314 313 312 311 311 312 313 314 313 313 313 312 312 313 315 315 316 316 316 316 316 316 315 314 314 313 312 312
317 318 316 315 316 317 317 316 316 317 318 317 315 314 315 315 315 314 313 313 314 315 315 315 315 315 314 315 316 316 316 316 316 316 316 316 317 317 316 316 316 316
316 317 316 315 316 316 317 316 317 317 317 318 317 315 315 315 316 315 314 314 314 314 315 316 316 316 315 316 316 316 316 316 316 316 315 316 316 317 317 317 317 317
318 316 316 315 315 316 317 316 316 317 317 318 318 317 316 315 315 316 315 315 315 314 314 316 316 316 316 316 316 316 316 316 317 316 316 315 316 316 317 316 316 316
319 318 317 316 316 317 317 316 316 317 318 318 318 317 316 316 316 316 316 315 315 315 314 315 315 316 316 316 316 316 316 317 317 317 316 314 314 315 315 315 315 315
321 320 319 317 317 318 318 317 316 317 317 317 317 317 317 317 316 317 316 315 314 314 314 313 314 315 316 316 317 317 317 317 317 317 316 314 313 314 315 315 316 316
322 321 320 319 319 318 318 318 318 317 317 316 316 317 317 317 316 315 315 315 315 313 313 313 314 315 316 317 317 317 317 317 317 317 316 315 314 315 315 315 316 316
320 320 319 319 319 318 318 319 317 317 317 316 316 316 317 317 316 315 314 314 314 312 312 314 315 315 316 317 318 318 317 316 316 315 315 315 315 315 315 315 316 317
319 319 319 319 319 319 318 318 317 317 317 317 316 317 317 317 316 315 314 313 313 313 314 315 314 315 316 317 317 316 315 315 314 314 314 313 312 312 312 312 312 314
318 318 318 319 319 318 317 317 317 317 317 317 317 317 317 316 315 315 315 314 314 315 315 314 315 315 316 317 316 315 314 314 313 311 309 307 306 305 305 306 307 308
317 317 318 318 319 318 316 316 317 318 317 317 317 317 316 315 315 315 315 315 315 315 315 315 315 316 316 315 314 312 310 309 307 305 303 302 302 302 303 304 306 308
316 316 318 318 318 317 316 317 317 318 317 317 317 316 316 315 315 315 315 315 316 316 316 316 315 315 314 311 309 307 306 305 304 303 303 302 303 302 303 303 304 306
315 316 317 317 317 316 316 317 318 317 317 317 316 315 315 315 315 315 315 315 315 315 315 315 314 312 309 307 305 305 304 304 303 303 303 303 302 302 302 302 302 303
314 314 315 316 315 315 316 317 317 317 317 316 316 315 314 314 313 314 314 315 314 314 313 312 310 307 306 306 306 306 305 304 304 303 303 303 303 302 302 302 302 302
311 312 312 313 314 315 316 317 316 316 315 315 315 314 313 313 313 314 314 314 313 311 309 307 306 306 307 308 308 307 306 305 305 305 305 304 304 304 303 302 302 302
308 309 309 309 310 310 312 313 312 312 313 313 313 313 313 313 313 313 312 311 309 307 306 307 308 308 309 309 308 307 307 307 307 307 307 307 306 305 305 304 303 304
306 307 308 307 307 308 308 308 308 309 310 309 310 310 311 311 311 310 310 309 307 306 307 307 307 307 307 307 307 307 307 307 308 308 308 307 306 305 305 305 304 305

ECMWFNIL_850_thetae_009.txt.gz
Theta_e
321 319 315 312 310 309 308 307 305 304 305 305 306 307 307 306 306 305 305 305 305 305 305 305 305 305 305 305 305 305 305 305 305 306 305 305 304 305 304 304 304 305
321 319 315 314 313 310 309 308 306 305 305 305 306 306 306 306 305 305 305 305 305 305 305 305 305 305 305 305 305 305 304 305 304 304 304 304 304 304 305 306 307 308
321 317 314 314 312 309 308 308 307 305 304 305 305 305 305 305 305 305 305 305 305 305 306 305 305 305 305 305 304 304 304 304 304 304 304 304 304 305 308 310 310 311
320 317 314 313 311 309 308 307 306 306 305 305 305 305 305 305 305 305 305 306 305 306 306 305 305 305 305 304 304 304 304 304 304 304 304 305 305 307 309 310 311 311
320 318 316 313 311 312 312 309 307 306 305 305 305 305 305 305 305 306 305 306 306 306 306 305 305 305 305 305 305 304 304 304 305 305 305 306 307 307 308 309 310 310
320 319 317 315 312 313 314 311 310 309 306 306 306 305 306 306 306 306 306 306 306 306 306 305 305 305 305 305 305 305 305 305 306 306 306 306 307 307 307 307 308 309
321 319 318 316 313 313 314 311 312 313 309 307 306 306 306 306 306 306 306 306 306 306 306 306 306 306 306 306 306 306 306 306 306 306 306 306 306 306 307 307 307 307
320 319 318 316 314 314 313 310 312 316 313 309 306 306 307 307 307 307 307 306 307 306 306 306 306 306 306 306 307 307 308 308 308 308 307 307 307 306 306 307 307 307
319 319 318 316 315 315 313 310 312 316 315 312 308 307 307 307 307 307 307 307 307 307 307 307 307 307 308 308 308 309 310 311 312 312 312 311 310 309 309 308 308 309
320 319 318 317 316 315 313 312 313 315 316 316 312 308 307 308 308 307 308 308 308 309 309 308 308 308 309 310 310 311 312 313 313 314 315 315 314 314 313 313 312 312
320 320 319 318 317 316 314 314 315 315 316 317 316 312 309 309 310 309 309 309 310 310 310 309 309 310 312 313 314 314 314 314 314 314 314 315 316 316 316 316 315 315
320 320 321 320 317 316 315 315 315 316 316 317 318 316 313 312 312 312 311 311 311 311 311 311 311 312 314 315 316 316 315 315 315 315 315 315 316 316 316 316 316 316
321 321 322 321 319 316 315 315 315 316 316 316 317 317 317 315 315 314 314 313 312 312 312 312 313 314 315 315 316 316 316 315 316 316 316 316 316 315 315 316 317 316
321 321 322 322 320 319 317 316 315 316 316 316 316 318 318 317 316 316 316 315 314 313 313 313 314 315 315 316 316 316 316 316 316 316 316 317 316 315 315 315 315 315
322 322 322 321 321 320 318 317 316 316 316 316 316 317 317 318 317 317 317 316 314 314 314 314 315 315 315 315 316 316 316 317 317 317 317 317 317 317 316 315 315 315
322 322 322 322 321 320 319 317 316 316 316 316 317 317 317 318 318 317 317 316 315 314 315 314 314 314 313 313 314 316 316 317 317 317 317 317 316 316 315 315 315 315
321 321 321 321 321 320 319 318 317 316 315 315 317 317 317 317 316 315 316 316 315 315 315 314 314 314 312 312 313 315 316 317 317 316 316 315 315 315 315 314 315 315
319 320 320 320 320 319 319 319 318 317 316 316 316 316 316 315 314 314 315 316 317 316 314 314 314 313 312 312 314 315 316 316 315 315 314 313 313 312 311 310 309 310
317 318 319 319 319 319 319 319 319 318 318 317 316 315 315 315 315 315 316 317 316 314 313 314 314 313 312 314 315 315 316 316 314 312 310 308 306 305 304 303 303 303
316 317 318 318 318 319 319 319 319 318 318 316 315 315 316 316 316 317 317 317 315 313 313 314 314 312 313 315 316 315 314 312 310 307 305 303 303 302 302 302 302 302
315 316 316 317 317 318 319 319 318 318 317 316 316 316 317 317 317 317 316 315 314 313 313 313 313 314 315 315 315 313 310 307 306 305 304 303 303 303 303 302 302 302
313 314 315 315 316 318 318 319 318 317 316 317 317 317 317 317 317 316 316 315 315 314 314 314 315 315 316 315 313 310 307 306 305 304 304 303 303 303 303 302 302 302
311 313 314 315 315 316 318 318 318 317 317 317 317 317 317 317 316 316 316 316 316 315 315 315 315 315 315 314 310 307 306 306 305 304 304 304 303 303 303 302 302 302
310 311 312 313 314 315 316 316 316 316 316 317 316 315 315 315 316 316 316 316 316 316 315 315 315 315 313 310 308 306 306 306 307 306 305 305 304 303 303 302 302 302
309 309 309 310 311 313 314 315 315 315 316 316 316 315 314 314 315 315 315 315 314 314 315 314 313 311 308 307 307 308 307 307 307 306 305 305 304 303 303 302 302 301
307 308 308 308 308 309 312 314 315 315 316 316 316 315 314 314 314 314 314 314 313 313 312 311 309 308 308 309 308 308 306 306 306 305 305 304 303 303 302 302 302 302

ECMWFNIL_850_thetae_012.txt.gz
Theta_e
324 321 312 309 309 306 305 308 309 312 317 319 319 316 311 306 305 306 305 305 305 306 308 310 312 313 314 314 315 317 317 317 316 313 309 308 307 306 305 304 305 306
324 320 314 311 310 306 305 305 305 307 312 316 313 309 307 305 305 305 305 305 305 305 305 306 307 307 309 308 308 311 310 309 309 306 304 305 304 304 304 304 305 306
323 320 315 313 311 306 305 305 304 304 307 309 307 305 306 306 306 306 306 305 305 305 305 305 305 305 305 306 305 306 305 305 305 305 304 304 304 304 305 306 307 308
323 320 316 314 309 306 305 305 305 305 305 305 305 305 306 306 306 306 306 305 306 306 305 305 305 304 304 305 304 304 304 304 304 304 304 304 305 307 308 308 310 310
322 321 317 314 310 308 308 306 306 306 305 305 305 305 306 305 306 306 305 306 306 305 305 305 304 305 305 304 304 304 304 304 304 304 304 305 307 309 310 310 311 311
320 320 319 316 314 312 310 309 311 308 305 305 305 305 306 306 306 306 306 306 306 306 306 305 304 305 305 304 304 304 305 305 305 305 306 306 308 309 309 310 310 311
320 320 320 319 317 315 312 312 314 309 305 305 306 305 306 306 306 307 307 308 308 308 307 306 305 305 305 306 306 305 305 306 306 307 307 307 307 308 308 309 309 309
321 321 321 320 318 315 313 314 314 310 306 306 306 306 306 306 306 306 307 308 310 311 310 308 307 306 306 309 309 307 306 306 307 309 309 307 306 307 307 308 308 308
322 321 321 320 319 315 313 313 314 312 309 307 306 307 306 306 307 306 306 307 308 310 310 308 308 307 307 309 310 311 311 310 310 311 311 310 309 309 309 308 308 309
324 323 320 319 318 316 313 313 313 313 313 309 306 307 307 307 307 307 307 307 306 307 307 307 308 307 307 308 310 312 313 313 313 313 313 314 314 313 312 311 311 312
325 323 319 317 318 317 315 314 312 311 314 313 310 308 308 308 308 307 307 307 307 307 307 307 308 308 309 310 311 311 312 313 314 314 315 315 315 315 314 314 314 314
324 323 320 318 318 317 316 315 312 310 312 315 315 312 310 309 309 309 308 308 308 308 309 309 309 310 312 313 314 314 314 314 314 315 315 315 316 316 316 315 315 315
323 322 322 321 319 318 318 317 315 313 312 314 315 316 315 313 312 312 311 310 309 310 311 311 311 312 313 314 315 317 317 316 316 316 316 316 316 316 316 316 316 316
323 322 323 322 320 319 319 318 317 316 314 314 315 315 317 317 316 315 315 314 312 311 312 312 312 313 314 314 315 316 317 316 316 317 317 317 317 317 316 316 315 315
323 322 322 322 321 319 320 320 319 317 316 315 315 315 316 317 317 318 318 317 315 314 313 312 312 313 315 315 316 316 317 316 316 317 317 318 318 318 318 317 316 315
323 323 322 322 321 320 320 321 320 319 317 316 315 315 315 316 317 318 318 318 317 317 315 314 313 314 315 315 316 316 316 317 317 317 317 317 317 317 318 318 317 317
322 322 322 322 322 322 322 321 321 320 319 317 317 316 316 316 316 316 317 317 318 318 317 316 315 315 315 315 315 315 315 315 315 315 316 315 315 316 316 317 317 318
320 321 322 322 322 322 322 322 321 321 320 319 318 317 316 316 316 316 317 317 317 317 316 316 316 315 315 315 315 315 314 314 313 313 313 312 313 315 314 315 316 316
317 319 320 321 321 321 321 322 321 321 321 320 320 319 318 317 316 316 316 317 317 316 315 315 316 316 316 315 315 315 314 313 313 314 313 313 313 312 309 308 308 307
314 317 319 319 320 320 320 320 320 320 321 320 320 320 319 318 317 316 315 316 315 315 315 316 316 316 316 315 314 314 313 313 314 315 315 313 310 307 304 303 302 302
311 314 316 318 319 319 319 319 320 320 320 320 320 320 319 318 318 317 316 315 315 315 316 317 317 316 315 314 313 312 313 315 315 315 312 309 305 303 303 303 302 302
309 310 313 315 317 318 318 319 319 320 320 320 320 320 319 318 317 317 317 317 317 317 317 318 318 315 314 313 312 312 314 315 313 311 308 305 304 303 303 302 302 302
308 309 310 312 314 316 317 317 318 319 319 319 319 319 319 318 317 317 318 318 318 317 317 318 318 315 314 314 312 312 314 313 310 308 306 304 304 303 303 302 303 302
307 308 309 310 311 313 314 315 317 318 319 319 319 318 318 318 318 318 318 318 318 317 317 317 316 315 314 313 313 314 313 311 310 309 306 304 304 304 303 303 303 302
306 307 308 308 309 310 311 313 315 316 317 318 318 318 318 318 318 318 317 317 317 317 316 315 314 314 314 313 314 314 311 308 310 309 306 305 305 304 304 303 303 302
305 305 306 307 308 308 309 310 312 314 316 317 317 317 317 317 317 317 317 316 316 315 315 315 314 314 314 314 313 311 308 308 311 310 308 307 305 303 303 302 302 302

ECMWFNIL_850_thetae_015.txt.gz
Theta_e
326 325 322 322 321 320 320 319 319 321 322 322 322 321 321 321 321 321 318 317 317 318 319 320 320 319 320 321 322 322 322 321 321 320 320 320 320 318 317 315 314 313
324 324 320 319 321 320 319 319 320 322 322 322 321 320 319 318 318 316 314 313 314 314 316 318 318 319 319 319 320 320 320 318 316 315 315 315 313 311 309 309 310 312
323 324 320 316 315 314 312 315 319 322 322 321 320 317 314 314 316 316 315 314 312 310 311 313 314 316 315 315 316 317 315 314 313 312 311 310 309 307 305 306 309 313
322 324 321 315 312 308 306 308 312 316 319 318 315 311 308 309 311 312 311 310 308 307 307 308 310 311 311 312 313 312 311 309 307 307 307 306 306 306 307 310 313 315
322 323 322 317 311 306 305 305 306 308 311 310 308 307 305 306 309 310 310 308 307 306 306 305 307 308 309 310 310 307 306 306 305 305 306 307 307 308 310 312 314 316
322 322 322 318 310 306 305 305 305 305 306 305 306 306 306 308 311 312 311 310 309 307 306 305 306 306 307 307 306 306 308 306 305 307 308 310 311 312 312 313 314 315
322 321 322 318 310 308 309 307 305 305 305 305 305 306 307 311 314 313 312 312 311 309 308 307 306 306 306 308 308 309 310 309 309 311 312 312 312 313 314 314 315 314
323 322 321 319 313 312 312 310 308 305 305 305 305 307 310 312 314 314 314 313 313 312 310 309 309 309 310 311 311 309 308 310 313 313 312 312 313 313 314 314 314 314
325 323 321 320 318 316 315 313 310 307 306 305 305 310 314 315 314 314 315 315 315 314 313 312 312 312 314 313 310 308 308 311 314 314 313 312 312 312 313 312 313 314
326 324 322 321 321 320 319 318 315 312 310 308 307 310 313 315 314 314 315 316 316 316 315 314 314 313 314 316 314 313 313 312 313 314 313 313 313 313 312 312 313 314
326 324 324 323 322 322 321 320 319 317 317 314 313 313 312 313 314 314 314 314 313 315 315 314 312 310 312 315 314 315 315 314 314 315 315 316 316 315 315 315 315 316
326 325 325 324 323 322 322 321 320 319 319 318 317 317 315 313 314 314 314 312 311 312 312 312 312 310 311 312 311 311 314 315 316 317 317 317 318 318 317 317 317 317
326 325 325 324 323 323 323 322 321 319 320 319 318 319 318 317 316 315 315 314 313 313 313 313 314 314 313 314 314 315 317 318 319 319 319 319 319 319 318 318 318 318
326 325 324 324 324 324 323 323 321 320 320 319 319 320 320 319 319 317 316 316 315 314 314 314 315 316 316 316 317 319 320 321 320 319 320 320 319 319 319 319 319 318
325 325 324 325 324 324 323 323 322 321 321 320 320 321 320 320 320 320 318 317 316 316 316 316 317 318 318 317 319 321 321 322 321 320 321 322 320 320 320 319 318 318
325 325 325 325 325 324 324 323 323 322 322 321 321 321 321 320 321 321 320 319 318 318 318 318 319 318 317 316 318 320 320 320 320 320 321 321 320 320 320 318 317 317
325 325 325 325 325 324 324 324 323 323 322 321 321 321 321 321 321 321 321 320 319 320 320 320 319 316 314 313 315 317 318 317 318 318 318 318 318 318 318 316 316 316
323 323 324 324 324 324 324 324 323 323 323 322 322 320 319 320 321 320 321 320 320 321 321 320 318 316 315 314 313 314 315 316 317 316 316 315 315 316 315 314 314 315
320 321 322 322 323 323 323 324 324 324 323 323 323 322 321 321 320 319 319 319 320 321 322 321 320 318 317 316 314 314 314 315 316 316 315 314 314 315 314 312 311 310
317 319 320 321 321 322 322 323 323 323 324 323 323 323 323 323 322 321 320 319 320 320 321 322 321 319 318 317 316 315 314 314 315 315 315 314 314 315 313 312 310 306
313 315 316 318 319 320 321 321 321 321 321 322 322 323 323 323 323 322 322 320 319 319 319 320 320 319 318 317 316 315 315 315 315 315 315 315 316 315 313 311 307 303
311 312 313 315 316 317 318 319 319 319 319 320 321 322 322 322 322 322 321 320 320 319 319 319 319 319 318 317 315 316 316 315 315 315 315 315 316 315 312 309 306 305
310 311 311 312 313 314 315 317 318 319 319 320 321 321 322 322 322 321 320 320 320 320 319 319 319 318 318 317 316 315 314 314 314 314 314 315 315 313 311 308 304 306
308 309 310 311 311 312 313 315 316 316 318 319 320 321 321 321 321 321 319 319 320 320 319 319 318 317 317 317 317 315 313 313 313 314 314 314 313 312 309 305 302 303
306 307 308 309 309 310 311 313 314 315 315 317 319 320 320 320 321 320 319 319 320 320 319 319 318 317 316 316 317 315 312 313 314 314 314 313 312 310 306 302 302 303
305 306 307 307 307 308 308 309 311 313 314 315 317 319 319 319 320 320 320 320 320 320 319 318 318 318 316 316 316 314 312 313 314 314 313 312 311 309 305 302 303 303

ECMWFNIL_850_thetae_021.txt.gz
Theta_e
316 315 315 315 317 320 319 318 319 321 323 323 322 323 322 320 322 323 321 320 319 318 319 321 322 323 324 325 324 322 322 321 322 323 323 323 322 321 319 320 320 319
316 315 315 316 316 317 317 316 319 322 323 323 323 324 322 319 321 323 322 320 317 316 320 322 323 323 323 323 323 323 322 322 323 324 323 322 320 317 316 316 317 317
319 316 316 317 317 315 314 315 318 321 322 323 323 323 322 318 318 319 319 317 317 318 320 322 322 323 322 322 321 321 321 322 323 323 323 322 318 316 315 315 315 316
322 320 319 319 319 315 313 314 316 318 320 321 322 321 320 316 313 314 315 315 318 319 320 322 322 322 322 321 319 318 318 318 319 320 320 319 317 315 314 313 312 312
323 321 321 321 319 315 313 313 314 316 316 317 319 317 315 314 312 313 313 314 317 319 319 319 320 321 321 320 317 316 315 314 313 312 312 312 312 311 310 310 309 309
324 322 322 322 320 317 314 311 311 312 312 311 313 313 311 311 311 310 309 308 312 316 317 316 317 317 318 316 314 313 311 308 307 306 306 308 310 311 311 311 311 309
324 322 322 322 320 318 312 308 309 311 310 308 309 310 308 309 309 309 308 306 307 311 314 314 313 312 312 311 309 308 306 306 306 307 307 309 311 312 312 313 314 313
323 322 322 321 321 318 310 309 312 314 313 309 307 307 308 310 311 309 309 308 307 308 309 310 310 309 309 307 307 307 308 309 311 311 311 313 313 313 313 314 314 314
323 322 322 322 321 316 310 311 316 317 313 309 306 306 308 312 312 310 310 311 310 309 308 308 309 310 309 308 310 312 312 313 313 313 314 315 314 313 312 312 313 312
324 324 323 322 319 313 310 312 316 317 313 308 306 305 308 312 313 312 312 312 312 311 310 309 311 311 309 309 312 314 313 314 313 313 313 313 312 311 310 311 311 310
325 325 323 322 318 312 311 313 317 318 312 306 305 306 310 315 314 313 313 314 313 313 312 312 312 311 309 309 312 313 313 313 312 312 312 311 311 311 311 310 310 310
325 324 323 322 320 317 317 318 320 318 309 305 307 309 313 316 314 313 315 315 315 314 314 313 312 311 310 309 309 311 312 312 312 311 311 311 311 311 311 311 311 310
325 323 322 322 321 322 322 321 322 320 312 309 312 314 315 316 315 314 315 315 315 315 315 315 312 311 311 310 308 309 310 311 311 312 311 312 313 313 313 312 312 311
325 323 323 322 322 322 323 322 322 322 318 316 317 317 316 316 315 314 314 315 315 315 316 315 313 311 311 310 309 308 308 309 310 311 311 311 313 314 314 313 313 314
326 325 324 324 323 323 323 322 322 322 322 320 319 319 319 318 317 316 315 315 314 314 314 314 312 312 311 309 309 309 309 309 310 311 310 311 312 313 313 313 313 315
325 325 325 325 324 324 323 323 322 322 322 320 319 320 320 319 319 318 317 316 315 314 314 314 313 313 312 312 311 310 310 310 309 310 310 310 310 311 312 313 313 315
324 324 324 324 324 323 323 323 323 322 321 320 319 320 320 320 319 319 318 318 317 317 315 315 315 314 314 314 313 313 312 311 310 310 310 310 311 312 313 314 315 316
322 322 323 323 323 323 323 323 323 322 321 321 320 319 320 320 320 320 320 319 319 318 318 317 317 315 315 315 315 314 314 313 313 313 312 311 312 314 315 316 316 316
319 320 320 321 322 321 322 322 322 322 322 321 321 321 320 320 320 320 320 319 319 319 319 319 318 317 316 316 315 315 315 315 315 315 315 314 314 315 316 316 317 317
315 315 316 318 319 319 320 320 320 320 320 321 321 321 321 321 321 321 321 320 319 318 319 319 319 319 318 317 316 316 316 317 316 316 316 316 316 316 316 317 317 318
314 314 314 315 316 316 317 318 319 319 319 320 320 320 320 319 320 321 321 321 320 319 319 319 319 319 318 318 318 317 317 317 318 318 318 317 317 318 318 318 318 319
313 314 315 315 315 316 316 317 317 318 319 319 319 319 319 318 318 318 319 320 320 320 320 320 320 320 319 319 319 319 318 318 318 318 318 318 318 318 317 317 318 318
309 311 312 313 314 315 315 315 316 316 317 318 318 318 318 317 318 318 318 318 318 319 319 320 320 321 320 320 320 320 320 319 318 317 317 318 318 317 316 317 318 318
305 306 307 309 309 311 312 312 313 314 315 316 317 317 317 316 316 315 315 315 315 316 318 319 319 319 320 319 319 320 319 319 319 318 317 316 318 318 317 317 317 318
301 302 303 304 305 307 308 309 309 310 311 312 312 313 313 314 314 314 314 315 315 316 317 318 319 318 318 318 317 318 318 318 318 318 318 317 317 317 317 317 317 317
300 300 300 300 301 302 303 304 304 304 304 305 306 307 308 309 311 312 313 314 314 315 316 317 318 318 317 316 316 316 317 317 317 317 317 317 316 316 317 316 315 315

ECMWFNIL_850_thetae_024.txt.gz
Theta_e
315 312 311 311 312 313 313 313 314 316 319 320 319 320 320 317 317 320 320 320 320 319 320 322 322 320 319 321 322 322 322 321 319 319 320 322 323 324 324 324 324 322
313 313 313 313 315 316 314 314 316 318 320 321 320 320 321 319 317 319 320 319 318 318 320 320 320 320 320 322 321 319 319 319 319 320 321 323 323 322 322 322 321 318
315 315 314 315 316 315 314 314 318 320 320 321 321 321 321 320 318 317 319 318 316 318 320 320 320 321 322 322 321 320 320 320 321 322 323 323 322 321 321 321 319 316
317 315 315 316 316 314 314 315 318 321 322 321 321 321 321 319 316 316 317 317 317 319 320 320 320 321 321 321 321 321 322 322 322 323 322 321 319 318 319 318 317 316
317 316 317 317 317 315 314 315 318 321 321 320 320 319 317 314 311 312 312 314 318 321 321 321 321 321 321 321 321 321 323 324 323 322 321 318 316 315 315 315 316 316
319 318 318 319 318 315 314 316 317 319 320 319 317 313 311 309 308 309 310 312 318 321 320 321 322 321 321 320 318 319 321 323 323 322 320 317 315 315 314 314 314 315
321 320 320 321 319 315 315 316 315 317 317 316 312 308 307 307 307 307 307 309 315 318 318 320 320 321 321 319 317 315 315 317 319 320 319 317 314 313 312 311 312 313
322 322 321 321 319 316 314 313 313 313 313 312 309 307 307 306 306 306 305 307 313 315 315 316 317 317 318 317 315 311 309 309 311 313 313 312 310 310 309 308 309 311
323 322 322 321 319 315 311 310 312 313 311 309 307 307 308 308 307 307 306 306 309 311 311 312 312 312 312 312 310 307 305 306 307 308 309 309 310 310 309 308 307 309
324 323 322 322 319 314 309 310 315 315 310 307 306 307 309 310 309 309 309 309 308 307 308 308 308 308 307 307 306 306 306 307 308 309 310 310 311 310 310 310 309 308
324 322 322 321 318 311 308 311 318 317 309 306 306 307 310 312 311 311 312 312 310 307 306 307 307 306 307 308 308 309 309 310 311 312 311 311 311 311 311 312 311 310
324 322 322 321 315 309 308 313 318 316 308 305 306 309 312 313 312 312 312 313 312 310 308 308 307 307 309 311 311 311 311 312 313 313 312 311 311 311 311 311 311 311
324 322 321 319 314 309 310 316 318 313 305 305 308 311 314 314 313 313 314 314 314 313 312 311 309 308 310 311 312 312 313 312 313 313 312 312 311 310 311 310 310 310
323 321 321 320 318 316 317 321 319 311 305 308 312 313 315 315 314 314 314 315 315 314 314 314 313 311 310 310 311 312 313 313 313 312 312 311 310 310 310 310 311 311
322 322 321 321 322 321 321 322 321 316 312 313 315 315 316 316 315 315 314 314 315 315 315 315 315 313 311 310 310 310 311 313 313 312 312 311 310 310 310 311 311 311
321 322 321 322 323 323 322 322 322 320 319 317 317 317 317 317 317 316 315 314 314 315 315 315 314 313 313 312 310 309 309 310 311 311 311 311 311 310 310 311 310 310
322 323 322 322 323 323 323 322 322 322 322 321 319 319 319 319 318 317 317 316 315 315 315 314 314 314 313 313 313 312 311 310 310 310 310 311 311 311 311 311 310 310
323 323 323 322 322 322 323 323 322 322 322 322 321 320 320 320 318 317 317 317 316 316 315 315 314 315 314 314 314 314 313 313 312 312 311 311 311 311 311 311 311 312
321 322 322 323 322 322 322 323 323 322 322 322 321 320 320 320 319 318 318 318 318 318 317 316 316 316 316 316 315 314 314 314 314 314 314 313 312 312 312 312 313 314
318 320 321 321 321 322 322 322 322 322 322 322 321 321 321 321 320 320 320 320 319 319 319 319 318 318 318 317 317 316 315 314 315 315 315 315 315 315 314 314 314 315
315 316 317 318 319 320 321 320 319 319 320 320 320 320 320 320 320 320 320 320 320 320 320 319 319 319 318 319 318 318 317 316 315 315 315 315 316 316 316 316 316 316
313 314 314 315 316 317 317 317 317 318 319 319 319 319 319 319 319 319 319 320 320 320 320 320 320 319 319 319 319 319 319 318 317 316 316 316 316 317 317 317 317 318
312 313 312 312 313 314 314 315 315 316 316 317 317 318 318 317 317 317 317 318 318 318 319 319 319 319 319 319 319 319 320 320 319 318 317 316 317 318 318 318 318 318
309 309 309 309 309 310 311 311 312 312 313 313 314 315 315 315 315 315 316 316 316 315 316 316 316 317 317 318 318 319 319 320 320 320 319 318 318 318 319 318 318 318
306 306 306 306 306 306 306 306 307 308 308 309 309 310 311 312 312 313 313 314 314 314 314 314 314 315 316 317 317 318 318 319 319 319 319 319 319 319 319 318 318 318
303 303 303 304 304 304 304 303 303 304 304 304 305 306 306 308 309 309 310 310 311 312 312 313 313 313 314 315 315 316 317 317 317 317 317 317 317 317 317 317 317 317

ECMWFNIL_850_thetae_027.txt.gz
Theta_e
321 316 313 311 309 310 311 313 317 319 320 319 319 320 320 320 321 321 318 316 317 319 320 321 320 319 319 317 318 321 322 322 323 323 321 320 321 323 323 324 324 324
323 316 311 309 310 312 312 313 315 317 319 320 320 321 320 318 319 321 320 317 317 317 317 319 320 320 318 317 319 321 321 321 320 319 318 318 320 322 323 324 324 323
322 314 310 311 314 314 314 314 316 318 320 321 320 321 321 319 319 321 321 318 316 315 316 318 319 319 319 319 320 320 320 319 318 317 318 320 322 323 323 324 323 322
318 313 312 314 316 315 315 315 316 318 320 321 321 321 320 319 318 319 319 317 315 317 319 320 320 321 321 321 320 319 319 318 317 318 320 322 323 322 323 322 320 319
315 313 314 316 316 315 315 315 316 318 320 321 321 321 320 319 318 318 317 314 315 318 319 319 321 321 321 321 320 320 319 319 319 320 322 322 321 320 321 319 317 316
314 314 315 317 316 315 315 315 316 318 319 320 321 320 319 316 313 315 314 313 317 320 319 318 319 319 320 320 320 321 321 320 321 322 321 320 317 316 317 317 316 316
317 316 317 319 317 315 315 314 315 316 318 319 319 317 314 310 309 311 311 314 319 320 319 319 319 319 319 319 319 321 322 322 322 321 320 318 314 313 313 314 314 315
319 318 318 320 318 316 315 313 313 315 316 316 314 311 308 306 307 308 309 314 319 319 320 320 320 320 320 318 318 319 322 323 322 321 320 318 315 314 313 313 313 314
320 319 320 321 319 318 315 313 312 314 314 312 309 307 306 306 306 306 307 313 318 318 318 319 319 319 319 318 316 315 317 320 322 322 321 319 318 316 314 313 313 314
321 320 321 321 321 319 315 312 311 313 312 309 306 306 307 307 306 306 306 310 315 316 315 315 316 316 316 316 315 312 310 312 316 318 318 317 315 313 311 311 311 313
322 321 322 322 321 321 316 311 312 314 311 307 306 307 308 308 308 308 307 308 311 312 312 312 311 311 311 312 311 309 306 306 309 310 311 311 310 309 309 308 308 311
322 323 323 322 322 321 314 310 313 314 309 306 307 308 309 310 310 311 311 310 309 308 308 309 308 308 307 307 307 305 304 305 305 306 308 310 310 310 310 308 308 309
321 323 322 322 323 319 310 308 314 313 307 306 307 309 311 311 311 312 313 313 311 309 307 307 307 307 306 306 305 305 305 306 307 308 309 310 310 311 311 310 310 309
320 321 322 322 320 314 308 311 316 311 305 305 308 311 313 313 312 313 313 313 313 312 311 310 308 307 307 307 307 308 308 309 309 310 310 310 311 310 311 311 310 310
322 321 321 320 316 313 315 318 318 310 305 306 309 312 315 314 313 313 314 314 314 314 314 313 312 310 308 308 309 310 311 311 311 311 310 310 310 310 310 310 310 310
322 322 321 318 317 319 321 321 317 309 306 309 312 314 315 315 315 314 314 314 313 314 314 314 314 313 312 310 309 310 311 312 312 312 312 311 311 310 310 310 310 310
322 321 320 319 320 322 321 321 319 314 312 314 315 315 316 316 316 316 315 314 314 314 314 314 314 313 313 313 312 311 311 311 312 313 313 313 312 312 311 310 310 310
321 321 321 321 322 322 322 322 321 319 318 318 318 318 318 317 318 318 316 315 314 314 314 314 314 314 314 314 314 313 313 312 312 312 312 312 312 312 312 311 311 311
321 321 322 322 322 323 322 322 321 321 321 321 321 321 320 319 320 319 317 316 315 315 315 314 314 314 314 314 314 314 314 313 313 313 313 313 313 312 312 312 311 311
321 321 322 322 322 322 322 321 321 321 321 321 322 322 321 320 320 319 318 316 316 316 316 315 315 315 315 316 316 316 316 315 314 314 314 314 314 314 314 313 313 313
318 319 320 319 319 320 321 321 321 321 321 321 321 322 321 321 321 320 319 318 317 317 318 317 318 317 318 318 318 318 319 318 317 316 315 314 314 314 314 315 315 315
313 315 316 316 315 315 317 319 320 320 321 321 321 322 321 321 321 321 320 320 319 319 319 319 319 319 319 319 319 319 319 319 319 319 318 317 316 315 315 315 315 315
310 311 312 313 313 312 314 316 318 318 319 320 320 320 320 320 320 320 320 320 320 320 320 320 320 320 320 319 319 319 320 320 320 320 320 319 319 318 317 315 315 315
309 310 310 311 312 312 311 312 314 315 317 318 318 319 319 319 319 318 318 318 318 318 318 318 318 319 319 319 319 319 319 319 319 319 320 320 320 319 319 318 317 316
304 306 307 309 310 310 308 307 309 310 312 314 315 316 316 316 317 317 316 316 316 316 316 316 316 316 317 318 318 318 318 318 318 318 319 319 319 319 319 319 318 318
302 302 302 303 304 304 303 304 304 304 305 307 309 310 311 312 313 313 313 313 313 313 313 314 314 314 315 315 315 316 316 316 317 317 317 317 318 318 318 318 318 317

ECMWFNIL_850_thetae_030.txt.gz
Theta_e
322 319 319 318 318 316 315 318 321 320 319 319 319 320 319 318 318 317 315 314 315 319 321 323 322 321 320 320 321 323 324 324 325 325 324 323 323 325 325 325 325 324
321 320 319 317 315 315 316 318 319 319 319 320 320 321 320 318 317 317 316 315 317 319 321 322 323 322 321 320 320 322 323 323 324 324 324 322 321 323 324 324 324 324
322 319 315 313 312 312 314 316 317 318 319 320 320 321 320 318 318 317 315 315 316 316 317 319 320 321 320 320 321 322 323 323 323 322 321 320 320 322 323 323 324 324
321 315 310 310 312 312 313 315 317 318 318 318 319 320 319 319 318 317 315 314 314 313 315 317 319 320 320 320 321 320 321 321 320 319 318 319 321 323 323 323 324 323
321 314 309 311 313 313 314 315 317 318 316 317 319 318 317 318 317 315 314 313 311 313 318 319 320 321 320 321 320 319 319 319 318 318 319 320 322 322 323 323 322 321
322 315 311 313 315 315 315 316 317 318 316 316 316 316 315 314 312 310 310 310 311 315 319 320 321 321 320 320 320 319 319 319 319 321 322 322 322 322 321 320 318 317
320 315 313 316 316 315 315 316 316 316 316 314 314 313 312 309 307 307 307 308 311 316 318 319 319 319 319 319 320 320 320 320 321 321 320 320 320 320 320 318 316 316
318 315 315 317 316 315 315 315 315 315 314 313 311 311 309 307 306 306 307 309 313 316 317 318 319 319 318 318 319 321 322 321 321 318 317 316 315 316 317 317 316 316
318 316 317 318 317 317 315 314 314 314 314 313 310 308 307 306 306 306 306 310 314 317 318 318 319 319 319 318 317 320 322 322 321 318 317 316 314 313 314 315 314 315
318 316 318 319 319 318 316 314 314 314 313 312 309 307 306 306 306 305 305 308 313 316 317 318 318 317 318 317 316 316 318 320 322 321 319 318 316 315 314 314 313 313
319 317 319 320 320 320 317 314 313 314 313 310 307 306 306 306 306 305 304 307 312 315 315 315 315 314 314 315 315 314 313 313 318 321 321 320 318 316 315 313 312 312
320 319 320 321 321 321 319 314 312 313 312 308 306 307 307 308 309 308 307 307 308 310 312 312 311 311 311 312 313 313 309 307 310 315 317 316 314 313 312 310 310 311
321 320 321 322 321 321 319 314 312 314 312 307 306 308 309 310 311 311 310 310 308 307 307 308 308 308 308 308 309 309 307 305 306 309 310 311 310 311 311 310 309 310
321 320 321 321 321 321 319 313 311 313 310 306 307 310 310 311 312 312 312 312 311 310 308 307 307 307 307 307 306 306 305 305 305 306 308 310 311 311 312 312 311 311
320 318 319 321 322 321 317 311 311 311 307 305 308 311 312 312 312 312 313 313 313 313 312 311 310 309 308 307 307 306 306 306 306 307 309 311 312 311 312 313 313 313
319 317 319 321 321 318 313 312 312 309 306 306 309 312 314 314 313 314 313 313 313 313 313 313 313 312 311 310 309 308 308 309 309 310 310 311 312 312 312 312 313 313
318 318 320 321 318 316 316 315 312 307 306 308 309 312 315 314 315 315 314 314 314 313 313 312 313 313 313 312 312 310 310 310 310 310 311 311 311 311 311 311 312 312
319 320 320 318 317 318 319 317 310 306 308 309 309 312 314 315 316 316 315 315 314 313 314 313 313 314 313 313 313 313 312 312 311 311 311 310 310 310 310 310 310 310
320 320 318 317 318 320 321 319 314 310 311 312 313 315 316 316 316 317 317 316 315 314 314 314 314 314 314 314 314 314 314 314 313 313 313 312 312 312 311 311 311 311
320 319 317 318 320 320 321 321 319 317 317 318 318 319 319 319 318 317 318 318 317 316 315 314 315 314 314 315 314 314 315 314 315 315 314 314 314 313 313 313 313 314
319 319 319 319 320 320 320 321 320 320 321 321 321 321 321 321 320 319 319 319 318 317 316 315 315 315 315 315 315 315 315 315 316 316 316 316 315 315 314 314 314 314
316 318 318 318 318 318 319 319 319 319 319 319 319 321 321 321 321 320 320 320 319 318 317 317 316 317 316 316 316 316 316 317 317 317 317 317 317 317 317 316 315 315
312 313 314 315 314 314 315 316 315 316 316 316 316 318 319 319 320 320 320 320 320 319 319 319 318 318 318 318 318 318 318 318 318 318 318 318 318 318 318 318 317 317
310 311 313 313 312 313 313 313 312 312 312 311 312 314 317 318 318 319 319 319 319 319 319 319 319 319 319 319 319 319 319 319 319 319 319 319 319 319 318 318 318 318
306 307 309 308 307 309 311 310 310 310 309 308 309 310 312 314 316 317 318 318 318 318 317 317 316 316 316 317 317 318 318 318 318 318 318 319 319 319 318 318 318 318
306 305 306 305 304 305 305 305 305 307 307 308 308 308 309 311 312 313 315 315 315 315 315 315 315 314 314 314 314 315 315 315 316 316 316 316 317 317 317 317 317 318

ECMWFNIL_850_thetae_033.txt.gz
Theta_e
318 317 316 314 314 315 316 318 318 317 318 318 318 318 317 318 319 318 317 317 319 320 322 322 322 322 322 323 324 325 325 326 326 326 326 326 326 326 326 326 326 326
319 318 316 315 314 315 317 318 318 319 319 319 319 318 316 316 318 318 317 317 319 320 322 322 322 321 321 321 322 324 325 325 325 326 326 325 324 325 326 326 325 326
320 318 316 315 314 315 317 318 318 320 320 319 318 316 315 316 317 318 317 317 319 320 321 323 322 322 321 320 319 322 324 324 324 325 325 324 322 323 325 325 325 325
320 318 317 317 316 315 316 317 318 320 321 319 317 314 313 314 317 317 317 316 317 317 319 320 321 320 319 319 320 321 322 323 323 323 323 322 320 321 323 324 324 325
320 319 318 317 316 315 316 317 318 320 320 320 320 315 311 313 316 317 316 315 314 315 316 317 318 319 318 319 321 321 321 322 321 319 319 320 320 321 322 323 323 324
322 321 320 319 316 315 316 318 319 320 321 321 321 316 311 310 312 315 315 313 313 317 320 320 320 320 320 320 320 319 319 319 318 318 319 320 321 322 323 322 322 322
323 323 321 319 316 316 317 318 319 321 321 322 321 317 311 308 308 311 311 312 316 320 321 321 321 321 321 321 320 319 319 320 320 320 321 322 322 322 320 318 317 318
324 322 319 316 316 316 317 318 319 320 321 321 320 316 311 308 308 308 309 314 318 320 320 320 320 320 320 321 321 321 320 321 321 320 320 320 320 319 317 315 315 315
324 319 316 316 316 317 317 317 319 320 320 320 318 313 310 308 307 307 310 316 319 319 320 320 319 318 319 320 322 322 321 320 319 316 315 316 316 316 316 316 316 316
323 318 316 317 318 318 317 317 319 319 319 318 313 309 308 307 307 306 309 316 319 319 319 319 319 318 317 318 320 322 322 320 318 316 315 314 314 314 315 315 316 316
322 319 318 319 319 319 318 317 319 318 316 314 310 307 306 306 306 305 306 313 317 317 317 317 317 317 317 316 316 318 321 322 321 319 318 316 316 316 316 316 317 316
321 319 319 320 319 319 318 318 318 316 313 311 308 306 306 305 305 305 305 310 315 315 316 316 315 315 315 315 315 314 316 319 321 321 320 320 319 319 318 316 315 314
321 319 319 320 320 320 319 319 317 314 312 309 307 307 307 307 307 307 307 309 312 313 313 313 312 311 311 313 314 312 310 311 316 320 320 319 318 315 313 312 311 312
321 320 319 320 320 320 320 319 318 315 310 308 308 309 310 310 311 311 310 310 309 309 309 309 309 309 309 309 310 310 307 306 310 314 315 313 312 311 311 310 309 310
321 320 320 320 321 320 319 318 316 313 310 308 309 310 311 312 312 312 312 312 310 309 309 309 309 310 309 309 309 309 308 305 306 308 309 309 310 311 311 312 311 310
321 320 320 319 319 319 320 318 315 312 309 308 310 311 311 312 312 313 313 313 312 312 312 312 312 311 310 310 311 311 311 309 307 306 307 309 311 311 311 312 313 313
321 320 319 318 317 319 320 318 314 312 309 307 309 311 312 313 313 314 314 313 313 313 313 313 314 313 312 311 311 311 311 312 311 311 311 311 312 312 312 312 313 313
320 320 318 317 318 320 319 315 313 312 310 307 309 311 313 314 315 315 314 314 314 314 313 313 314 314 314 313 313 312 311 312 312 312 312 313 313 313 313 313 313 313
319 319 318 318 319 320 317 313 312 312 310 308 309 311 312 313 315 316 316 314 314 314 313 314 314 314 314 314 314 314 313 313 312 312 312 312 312 312 312 312 312 312
318 318 318 318 319 318 316 314 312 311 310 310 311 312 313 314 316 317 317 317 316 315 314 314 314 314 314 314 314 314 314 314 314 313 313 313 313 313 313 312 312 312
318 318 318 318 318 317 317 316 313 312 313 314 315 315 316 318 318 318 318 318 318 317 316 315 315 314 314 314 314 314 314 314 314 314 314 314 314 314 314 314 314 313
318 317 317 317 317 318 318 318 316 316 317 317 318 318 319 319 319 319 318 319 319 318 318 317 316 316 315 315 315 316 316 316 316 316 316 316 316 316 316 316 316 316
314 314 314 316 316 317 318 318 316 316 317 317 318 319 319 319 318 317 317 317 317 318 319 318 318 318 317 317 317 317 317 317 317 317 317 318 318 318 318 318 318 318
312 312 312 313 315 316 316 315 314 314 315 315 316 316 317 317 316 316 316 315 315 316 318 319 319 319 319 318 318 318 318 318 318 318 319 319 319 319 319 319 319 319
312 312 310 309 310 312 312 312 312 312 313 314 313 313 313 313 313 313 313 313 313 313 315 317 318 318 318 318 318 318 318 318 318 318 317 317 317 317 317 317 317 318
309 310 309 308 307 307 306 307 307 308 309 310 310 310 311 312 312 311 311 311 309 307 308 310 312 313 313 314 314 314 314 313 313 313 313 312 312 312 312 312 313 313

ECMWFNIL_850_thetae_039.txt.gz
Theta_e
332 332 331 332 330 327 330 332 330 330 329 329 329 328 328 326 323 322 321 319 320 322 324 325 327 327 328 329 329 329 331 331 330 331 330 329 330 329 327 325 325 325
332 331 330 331 331 330 330 330 329 329 329 329 329 328 326 323 321 321 319 318 320 321 320 322 324 325 326 328 327 328 330 329 329 331 331 330 330 330 328 326 325 324
331 330 330 331 331 330 329 328 329 329 328 327 327 324 322 320 319 318 317 319 323 324 321 320 322 324 327 328 326 328 330 328 327 329 330 330 330 330 327 325 325 323
330 328 330 331 331 329 327 326 327 327 326 325 323 320 318 316 317 318 317 319 323 324 321 319 320 323 326 328 327 329 329 327 326 326 326 328 329 329 326 323 324 323
329 328 329 330 330 328 326 324 325 326 326 323 320 320 317 314 318 321 321 320 321 322 321 319 319 321 323 324 326 327 327 326 325 324 324 327 327 326 324 323 323 323
328 328 328 328 328 327 325 325 326 326 324 320 320 321 317 315 320 323 322 323 322 321 322 320 319 321 322 322 323 326 326 325 325 325 326 327 326 325 324 322 321 322
329 329 328 328 327 327 326 327 327 326 323 321 322 322 319 318 323 324 323 323 322 320 322 323 322 321 321 322 323 325 326 326 326 327 327 327 326 325 325 324 324 324
328 328 328 328 327 326 327 328 327 325 323 324 324 322 321 323 324 323 322 322 322 321 322 323 324 323 322 322 323 324 326 326 326 326 326 325 325 325 325 327 327 326
328 327 327 327 326 326 327 327 326 324 323 325 324 321 323 325 323 320 320 321 322 323 323 323 324 324 322 322 323 323 325 325 324 324 324 324 325 324 325 327 328 327
328 327 328 327 327 327 328 327 326 324 323 324 324 323 323 323 321 320 320 321 322 323 323 324 324 324 323 322 322 323 323 323 323 324 324 324 323 323 322 324 326 327
328 328 328 327 327 327 327 326 326 324 323 324 325 324 323 321 319 319 321 321 321 322 323 323 323 323 323 323 323 322 322 322 322 323 323 322 322 321 320 321 323 324
328 328 328 327 327 327 326 326 326 325 325 325 324 323 321 320 319 319 320 321 320 321 321 321 321 322 322 323 323 322 322 321 321 322 322 321 321 320 320 321 321 322
327 327 327 326 327 326 325 326 326 325 325 325 323 322 321 320 319 318 319 320 320 320 320 320 320 320 321 322 322 322 322 322 321 322 321 321 321 320 320 321 321 321
327 326 326 326 325 325 325 325 325 324 324 323 322 321 319 318 318 317 319 320 320 320 319 319 319 319 319 320 320 321 322 322 322 322 321 321 321 320 320 321 321 321
326 324 324 324 324 325 325 325 324 323 322 321 320 319 318 318 317 316 318 319 320 319 319 318 318 318 318 319 319 319 320 321 322 322 321 321 321 321 321 321 321 320
325 322 321 322 322 324 325 324 323 322 321 320 320 319 319 318 317 317 317 318 318 319 319 318 317 317 317 318 318 318 318 319 320 321 321 321 320 320 320 320 319 320
325 321 319 321 322 322 323 322 320 319 319 320 320 320 319 319 318 317 317 318 318 319 317 316 316 316 315 316 317 317 317 318 318 320 320 320 319 319 319 319 318 319
324 321 320 321 320 320 321 320 317 316 316 317 318 318 318 320 320 320 319 319 318 316 312 311 312 311 311 312 313 314 316 316 317 319 320 319 319 319 318 318 317 318
322 321 321 321 320 320 321 318 315 315 316 315 314 315 316 318 319 320 319 317 315 312 310 310 310 310 310 310 310 311 311 312 315 319 319 318 319 319 319 319 319 319
321 321 321 321 320 321 320 317 315 316 316 314 313 314 314 315 316 317 316 315 313 313 312 313 312 312 312 312 311 311 310 311 317 319 319 319 320 320 320 321 321 321
321 321 320 321 321 320 319 318 317 317 317 315 313 312 313 313 313 314 315 315 315 313 313 314 313 314 314 313 313 313 312 313 317 318 319 320 320 319 319 320 319 319
319 320 320 321 320 319 318 318 319 318 317 316 313 311 311 313 313 313 315 317 316 315 314 314 314 314 314 314 314 314 314 315 316 317 319 321 320 317 318 319 318 316
317 318 320 320 318 317 316 317 318 318 317 316 314 312 311 313 314 314 314 316 317 316 316 316 315 314 314 314 314 314 314 314 316 318 319 320 319 317 318 320 318 315
316 316 318 318 316 316 317 317 317 316 316 316 314 313 313 313 314 314 315 316 317 318 318 318 317 317 316 315 315 315 315 315 316 316 317 318 318 317 318 319 318 317
316 316 317 317 316 317 317 316 316 315 315 315 315 314 315 315 316 316 317 317 317 318 318 318 318 318 318 317 316 316 317 317 316 315 314 316 317 316 315 315 315 316
314 314 314 314 314 314 314 313 313 313 313 314 314 314 315 315 316 316 316 317 317 317 317 317 317 316 316 317 317 316 317 318 318 317 315 315 316 315 313 311 310 311

ECMWFNIL_850_thetae_042.txt.gz
Theta_e
323 325 327 330 332 331 331 331 330 331 331 331 329 328 327 326 325 324 324 323 322 324 325 327 328 328 328 329 329 329 329 330 329 326 325 325 323 322 324 324 324 325
323 325 328 330 331 330 330 331 330 330 330 330 329 329 326 322 321 322 322 321 320 321 322 325 327 328 328 329 329 329 329 329 329 328 326 325 324 322 322 323 324 324
325 327 330 330 329 328 330 331 330 330 330 329 329 327 324 320 319 318 319 321 325 324 322 322 324 326 328 328 328 328 328 328 328 328 327 325 325 324 322 323 324 323
329 329 330 329 327 327 329 331 330 330 329 328 326 323 320 319 317 316 316 320 326 326 322 320 322 325 327 327 327 327 327 328 328 327 327 325 323 324 324 322 322 322
331 329 328 328 328 329 330 330 329 328 327 325 322 319 316 315 316 317 317 318 323 323 319 318 320 322 323 324 325 326 327 329 329 327 327 327 324 323 324 323 322 323
331 329 328 328 329 329 329 329 327 326 325 322 319 317 314 315 320 322 322 320 320 320 320 320 321 323 322 321 322 324 326 327 327 326 327 329 327 324 324 324 323 323
330 329 330 330 329 329 329 327 326 324 322 318 318 318 315 317 323 324 324 323 322 322 323 323 324 325 325 323 322 323 325 325 326 325 325 327 327 326 325 324 323 323
329 328 330 330 329 329 329 327 326 324 320 318 319 320 319 323 325 323 323 324 323 323 325 325 326 326 325 324 323 322 324 326 325 325 325 324 325 325 325 325 324 323
329 328 329 329 328 329 328 327 326 323 319 319 319 320 323 326 323 319 321 323 323 324 324 324 326 325 323 323 323 323 325 325 325 324 324 323 324 325 325 325 326 324
329 328 327 327 328 328 328 328 325 322 322 321 318 320 324 325 321 319 321 323 323 324 324 323 324 323 323 324 324 324 324 324 324 325 324 324 325 325 324 324 326 325
328 328 326 326 328 327 327 327 325 323 324 323 321 322 324 322 320 321 322 322 322 323 322 322 323 323 324 324 324 323 323 323 324 323 322 322 323 324 323 322 324 326
328 328 327 326 327 327 326 327 325 324 324 324 323 324 323 320 320 321 322 320 320 321 322 322 323 323 323 323 323 322 322 322 323 322 322 322 321 322 323 321 322 324
329 328 327 327 327 326 326 327 326 325 325 325 324 324 322 320 320 321 321 320 320 321 321 321 321 322 322 323 323 322 322 322 322 322 322 321 320 320 321 321 321 322
328 328 327 327 327 327 327 327 327 325 325 325 324 323 321 320 320 320 320 320 320 321 320 320 319 320 321 322 322 322 322 322 322 322 322 321 320 321 321 321 321 322
327 328 328 328 327 327 326 327 326 324 324 324 323 321 320 319 318 319 320 320 320 319 320 320 319 319 320 320 321 321 321 322 322 322 322 321 321 321 321 321 321 321
327 327 328 328 327 327 327 327 325 323 324 323 321 319 318 318 318 319 320 320 319 320 319 319 319 318 319 319 319 320 320 321 321 321 321 321 321 321 320 320 321 320
327 326 327 327 327 327 326 325 324 323 322 321 319 319 318 317 317 318 319 319 319 319 319 318 318 317 317 318 318 319 319 319 320 320 320 320 320 319 319 319 319 320
326 326 327 327 327 326 325 324 323 322 321 320 319 319 318 318 318 318 317 318 318 317 317 317 317 316 316 317 318 318 318 318 319 320 320 319 319 319 319 318 318 319
327 327 327 326 326 326 325 323 322 321 320 321 320 319 320 320 319 318 318 317 318 317 313 311 313 314 315 315 316 317 317 317 317 319 319 319 319 319 319 319 318 318
327 326 326 326 326 326 324 322 321 321 321 320 320 319 320 320 319 318 318 317 317 315 310 308 309 310 311 311 311 313 315 314 316 318 319 319 319 319 320 320 319 320
326 326 325 325 325 325 323 321 320 320 320 319 318 318 318 318 317 317 316 315 315 314 312 311 311 311 310 310 309 309 310 312 315 319 319 320 320 319 320 320 320 321
325 325 324 324 324 323 322 319 318 318 317 316 316 316 316 316 316 316 315 314 314 314 313 313 313 313 313 312 311 310 310 312 315 318 319 320 320 320 320 321 321 320
322 322 321 321 322 321 319 317 316 316 315 315 315 315 316 316 315 315 314 314 314 314 314 314 313 313 313 313 313 313 312 313 316 318 319 319 320 320 320 320 321 320
319 319 319 319 320 319 317 316 316 317 317 316 316 315 315 315 314 314 313 313 315 315 315 314 314 314 313 313 313 314 314 314 316 318 319 319 318 318 318 319 319 318
317 317 317 317 317 317 316 317 317 317 317 316 315 315 314 313 312 313 314 314 316 317 316 316 316 315 315 314 314 314 314 314 315 316 317 317 316 315 314 314 313 313
314 315 315 315 315 315 315 315 315 316 316 316 315 314 314 313 313 314 315 316 316 317 317 317 317 317 316 316 316 315 315 316 316 315 315 315 316 314 311 309 309 310

ECMWFNIL_850_thetae_045.txt.gz
Theta_e
325 325 327 328 327 324 323 324 325 326 327 328 327 327 328 328 327 327 328 327 328 328 328 328 329 329 328 327 327 328 328 327 326 326 327 326 325 325 325 326 327 327
325 326 327 328 328 326 326 327 327 327 328 329 329 328 328 327 326 325 325 324 325 327 327 327 328 328 327 326 326 326 327 327 326 326 326 325 324 324 324 325 326 326
326 327 328 328 328 327 328 328 328 328 329 329 329 327 326 325 324 322 322 322 322 324 325 326 327 327 327 326 324 324 327 328 327 326 326 325 323 323 324 325 326 325
327 327 327 326 327 327 327 327 327 328 328 327 326 325 323 322 321 321 322 323 325 325 324 324 326 327 327 326 324 323 325 327 327 327 327 325 323 322 323 324 324 324
327 328 327 325 326 327 327 326 325 326 326 324 323 323 322 321 320 321 323 325 327 327 324 322 325 328 328 326 324 323 324 325 326 326 326 325 324 323 322 322 324 324
329 329 328 327 328 329 328 326 325 324 324 323 322 321 318 318 318 320 324 326 326 326 323 321 322 324 325 324 324 325 324 323 324 325 326 325 324 324 322 322 323 324
330 330 328 328 330 330 328 327 325 324 323 321 319 316 315 317 319 320 323 324 323 323 322 323 324 324 323 321 320 323 324 323 323 324 325 324 324 324 323 322 322 322
330 330 328 329 330 329 328 328 325 322 320 318 318 316 315 318 320 322 322 322 323 325 324 324 325 326 326 323 320 321 324 323 323 324 325 324 324 323 323 323 322 322
330 330 329 329 330 329 329 326 321 319 318 318 317 317 318 319 320 322 323 323 324 325 326 326 325 325 326 326 324 323 323 323 323 324 324 325 324 323 323 323 323 322
330 330 329 330 330 329 327 323 319 318 318 318 318 320 321 319 318 321 324 323 323 324 325 325 324 323 324 325 325 326 325 324 323 323 323 324 324 323 322 323 322 322
330 330 330 330 329 328 326 322 319 318 317 317 319 322 322 319 318 322 323 322 321 321 322 323 323 323 324 323 324 324 324 324 324 323 323 323 323 322 323 323 323 323
330 330 330 329 328 328 325 322 320 319 318 318 320 321 321 318 319 321 321 321 321 321 321 323 324 324 324 323 323 323 322 322 323 323 322 322 322 322 323 323 324 325
329 329 329 329 328 328 325 322 320 319 318 319 320 320 320 319 320 321 320 321 323 323 322 323 323 323 323 323 323 323 323 322 322 322 322 323 323 322 321 322 323 324
328 328 328 329 328 328 326 323 321 321 319 320 321 320 320 320 321 321 320 321 322 322 323 323 322 322 322 322 322 322 322 322 322 322 322 322 323 322 322 322 322 322
327 327 328 328 328 328 326 323 322 321 321 322 322 321 320 320 321 321 320 321 321 321 321 321 321 321 321 322 322 322 322 322 321 321 321 322 322 322 322 322 321 321
327 326 326 328 328 328 326 324 323 323 323 324 322 320 319 320 320 320 320 320 320 320 319 320 320 321 320 321 322 322 322 322 321 321 321 321 321 321 321 321 321 321
327 326 326 327 327 327 326 325 325 324 324 324 321 319 319 319 319 320 320 320 320 319 319 319 319 320 320 320 320 321 321 321 322 321 321 321 320 320 320 320 320 320
327 327 327 327 327 327 326 326 325 325 324 322 320 319 318 318 319 320 320 320 320 319 319 319 318 318 319 319 319 319 320 321 321 320 320 320 319 320 320 319 319 320
327 327 327 327 327 326 326 325 325 324 322 320 319 318 317 318 319 319 319 319 319 318 317 317 318 317 317 318 319 319 320 320 320 320 320 320 320 320 319 319 319 320
327 327 326 327 327 326 325 325 324 322 320 318 318 317 317 317 318 318 318 318 318 317 314 312 315 316 316 317 318 318 319 319 319 319 319 319 320 319 319 319 319 319
325 325 325 325 325 325 325 324 322 320 319 318 318 317 317 317 317 317 318 318 318 318 312 307 309 312 314 315 316 317 318 317 318 319 320 320 320 320 320 320 319 319
324 325 325 325 325 324 323 322 321 320 319 319 318 317 317 318 318 318 318 318 317 315 310 307 308 309 310 311 312 314 316 316 318 320 320 320 320 320 320 320 320 320
321 322 323 324 324 323 322 321 320 320 320 319 318 318 319 319 319 318 317 316 315 313 312 311 311 310 310 309 309 310 313 316 318 320 320 320 320 320 320 321 321 320
315 317 319 321 322 322 321 322 321 321 321 320 320 320 319 319 318 317 315 314 314 313 313 313 313 312 312 311 311 311 313 315 316 317 318 319 319 319 320 320 320 320
312 312 313 317 320 319 319 320 320 320 320 320 319 318 317 317 316 315 314 315 314 314 314 314 313 313 313 313 313 315 315 316 316 317 318 318 318 319 319 319 319 319
310 310 311 313 316 315 315 316 316 316 316 317 316 315 315 314 314 314 314 314 314 314 314 314 313 313 313 313 314 315 316 316 317 318 318 317 317 317 316 316 316 316

ECMWFNIL_850_thetae_048.txt.gz
Theta_e
332 331 328 327 327 325 326 325 325 325 326 326 326 327 327 328 329 329 328 327 327 326 327 326 326 326 327 327 328 328 327 327 328 328 327 327 327 327 326 326 327 327
332 331 329 327 326 326 326 326 325 325 326 326 327 328 329 330 331 330 328 327 326 326 326 326 326 327 327 327 327 326 326 327 328 327 327 327 326 326 327 327 327 327
331 331 329 328 327 327 326 325 325 324 326 327 327 328 329 329 330 330 329 327 326 326 326 325 326 326 326 326 325 326 326 326 327 326 327 327 326 325 326 327 328 327
331 331 330 329 329 327 325 324 323 323 326 327 327 328 327 327 328 329 328 326 325 325 325 325 325 325 325 325 325 325 326 326 326 326 326 326 325 325 325 325 327 327
329 330 331 330 329 327 324 323 324 325 327 328 327 327 327 326 326 326 325 324 323 323 324 324 324 325 325 325 325 324 325 326 327 326 325 325 324 324 324 324 326 326
327 328 330 330 330 328 325 325 327 328 328 328 327 327 327 326 325 324 324 324 323 322 322 323 324 325 325 325 324 324 325 326 326 325 326 325 324 323 324 324 325 326
326 327 329 330 331 330 328 328 329 330 329 328 328 327 326 325 325 323 323 323 324 323 320 321 323 325 325 325 325 324 325 326 326 326 326 326 324 322 323 324 325 325
326 326 326 328 330 330 330 330 330 330 330 328 328 327 325 324 323 322 322 323 324 322 320 319 321 323 324 325 325 324 324 325 325 325 326 326 325 323 322 323 323 323
326 326 325 325 328 330 330 330 330 329 329 329 328 326 324 323 322 322 323 323 322 321 319 318 319 320 320 322 323 324 324 324 323 324 325 325 324 323 323 323 322 323
325 326 325 323 326 329 330 330 330 329 329 328 325 321 319 320 321 321 322 323 322 321 320 319 319 319 318 319 321 323 324 323 323 324 324 324 323 324 324 323 322 322
323 325 326 324 325 328 330 329 329 330 329 324 320 317 317 319 321 322 323 324 323 322 320 318 319 319 319 319 322 323 323 323 323 323 324 324 323 323 323 323 323 322
322 323 326 325 324 327 329 329 330 330 325 319 317 317 317 319 322 323 323 324 324 323 321 319 319 318 318 319 323 325 324 324 323 323 324 324 323 323 323 323 322 322
322 322 325 324 323 325 327 328 329 327 321 318 318 318 318 320 323 323 323 323 324 324 323 321 320 320 319 319 322 324 324 324 323 323 323 323 323 323 323 323 323 323
324 324 325 325 325 323 323 327 328 324 320 321 322 320 320 321 322 322 322 322 322 323 323 322 322 322 322 321 321 322 322 323 323 323 323 322 322 322 323 324 325 325
327 327 327 326 326 323 321 325 326 322 322 324 323 321 320 321 321 321 321 321 320 322 323 323 324 323 323 322 322 322 322 322 322 322 322 322 322 322 323 323 324 324
328 329 328 327 326 324 322 324 325 323 324 325 323 320 319 321 321 320 321 321 320 322 323 323 323 323 323 322 322 323 322 322 322 322 322 322 322 322 322 322 322 322
327 328 328 327 326 325 323 325 325 324 325 325 322 320 320 321 321 320 321 322 321 321 322 322 322 322 322 322 322 322 322 321 321 321 321 322 322 322 321 321 321 321
326 327 327 327 327 326 325 325 325 324 325 323 321 320 321 321 321 320 320 321 321 322 322 321 320 320 321 322 322 322 322 321 321 321 321 322 322 321 321 320 320 320
325 325 326 327 327 326 326 326 325 324 324 322 320 320 320 320 320 320 320 320 321 321 321 321 320 319 320 321 322 322 321 321 321 321 321 321 321 320 320 320 320 320
325 324 326 326 327 326 326 326 325 324 322 321 320 320 319 320 320 320 320 320 319 319 319 320 320 319 319 319 320 320 321 321 321 321 320 320 320 320 320 319 319 319
324 324 324 326 326 326 325 325 325 324 321 319 319 319 319 320 320 320 320 319 319 319 319 319 319 319 319 319 319 319 319 320 321 320 320 319 319 319 320 319 319 319
322 323 324 325 325 325 325 324 324 323 320 318 319 319 319 320 320 320 320 319 319 318 317 316 317 318 318 319 319 319 319 320 320 320 319 319 319 319 319 319 319 319
318 320 322 322 322 323 325 324 322 321 319 318 318 319 319 319 320 319 319 319 319 317 313 311 314 317 317 317 318 319 319 319 319 319 319 319 319 319 319 319 318 318
313 314 316 318 319 319 321 322 320 318 318 318 318 318 318 318 318 318 318 317 316 314 309 308 311 314 315 315 316 317 318 318 318 319 319 320 319 319 319 319 318 318
311 311 312 314 315 315 315 316 317 317 317 317 317 318 317 317 317 317 316 314 312 311 309 309 310 311 312 312 313 315 316 317 318 318 319 320 320 320 320 320 319 319
310 311 311 312 312 312 311 312 315 317 317 317 317 316 315 315 315 315 314 312 311 312 311 311 312 312 313 313 314 315 316 316 317 318 319 320 320 320 320 320 320 320

ECMWFNIL_850_thetae_051.txt.gz
Theta_e
333 330 330 333 334 333 331 329 328 328 327 328 327 326 325 324 324 324 324 325 326 327 327 327 327 327 327 327 328 328 328 328 328 328 327 328 328 328 329 328 327 327
332 332 332 333 333 332 330 328 328 327 327 327 327 326 324 324 324 323 324 326 327 327 328 328 327 327 328 328 329 328 328 328 329 328 327 327 328 328 328 327 326 327
328 331 333 333 332 331 329 328 328 327 326 326 326 326 325 324 324 324 325 326 327 327 328 328 328 328 328 329 329 329 329 328 328 328 328 328 328 328 327 326 326 327
328 332 333 332 331 329 328 328 327 326 325 325 325 326 325 326 326 326 327 327 327 327 328 328 328 328 328 329 329 329 329 329 328 328 328 328 327 327 327 327 326 327
328 331 332 330 328 327 326 327 327 326 325 325 326 326 326 327 328 328 328 327 327 327 327 327 327 328 328 328 328 328 329 328 328 328 328 328 327 326 326 326 327 327
328 330 332 328 325 326 326 326 326 327 327 327 327 327 328 328 328 328 328 327 326 326 327 327 327 327 327 327 328 328 328 327 327 328 328 327 327 326 326 326 326 327
328 330 331 328 324 325 327 327 326 326 327 328 328 328 329 328 327 326 326 325 325 325 326 326 326 326 326 326 327 327 327 327 327 327 327 326 326 326 325 325 325 326
330 330 331 328 326 326 326 326 325 323 324 327 328 328 328 327 326 325 324 324 324 324 323 324 325 326 326 325 326 325 325 326 326 327 326 325 325 325 324 324 324 325
329 330 331 330 328 327 325 325 324 323 322 325 329 329 328 327 326 325 324 322 322 321 321 321 323 324 325 325 325 324 324 325 326 326 326 325 325 325 324 323 323 324
328 329 331 331 328 327 325 323 323 323 322 325 329 329 328 328 327 326 323 320 319 320 320 320 321 323 325 325 324 324 324 324 324 325 325 326 326 325 323 322 323 324
328 328 329 330 328 326 324 323 322 322 321 322 326 328 328 327 327 326 324 321 319 319 320 319 320 322 323 323 324 324 324 324 323 323 324 325 326 325 323 322 322 323
328 327 328 329 328 325 323 322 322 322 321 320 323 328 328 327 327 326 325 323 321 319 319 319 319 320 320 320 321 323 323 324 323 322 323 324 324 324 323 323 323 322
327 328 328 328 327 325 323 322 322 322 320 319 322 327 328 328 328 326 324 323 322 321 320 320 320 320 320 320 320 322 323 323 323 322 323 323 323 323 323 323 323 323
327 328 328 327 326 325 323 322 322 321 321 320 322 326 328 327 325 324 323 323 323 323 322 320 319 320 320 320 321 323 324 323 323 323 322 323 322 322 323 323 323 323
327 328 329 326 325 325 324 322 322 323 322 321 322 326 326 324 322 322 323 323 324 324 322 320 320 319 319 320 322 324 324 324 323 323 322 323 323 323 323 323 324 324
327 328 328 327 326 326 326 324 323 323 322 321 323 324 322 322 323 323 323 323 323 323 323 322 321 320 320 320 321 322 323 323 323 323 323 323 323 323 323 324 325 325
327 327 327 327 326 326 327 326 324 323 323 323 322 322 322 323 324 323 323 323 323 322 322 322 322 322 322 321 321 321 321 322 322 322 323 323 323 323 323 324 324 325
325 326 327 327 327 327 327 326 326 324 323 324 322 321 322 324 324 323 323 323 322 321 320 321 322 323 322 322 321 321 321 321 321 322 322 322 322 322 322 322 322 322
324 325 326 327 327 327 326 327 326 324 323 324 322 321 324 325 323 322 323 322 321 319 319 321 323 323 322 322 321 321 322 321 321 321 321 322 322 322 321 320 320 320
322 323 324 325 326 326 327 327 327 325 324 324 323 323 325 324 322 322 322 322 321 319 320 322 323 323 322 322 321 322 322 321 321 321 321 321 322 322 321 320 320 320
320 322 323 324 325 325 326 327 326 325 325 324 324 325 325 323 321 322 322 322 321 321 321 322 323 323 323 322 322 322 321 321 321 320 320 321 322 322 321 320 320 319
317 319 322 323 324 324 325 326 326 325 325 325 325 325 324 322 321 321 322 322 322 322 322 322 322 322 322 321 321 321 321 321 321 321 321 321 321 321 321 320 320 319
314 316 318 321 323 322 322 323 324 324 325 325 324 324 323 322 320 321 321 321 322 322 322 322 322 322 321 320 320 321 321 321 321 321 321 321 321 320 320 320 320 320
312 313 314 316 319 319 319 320 321 321 322 323 323 322 322 321 320 318 318 320 320 321 321 321 321 321 320 319 319 319 319 319 319 320 321 320 320 319 319 319 320 320
311 312 312 313 315 315 315 316 317 317 316 317 319 321 321 320 318 315 315 317 319 319 319 320 320 319 319 319 319 319 319 318 318 320 320 320 319 319 319 319 319 319
310 310 311 311 311 312 311 312 312 312 312 313 315 318 320 319 317 314 313 314 315 316 317 317 317 317 317 317 317 318 319 319 319 319 320 319 319 319 319 319 319 318

ECMWFNIL_850_thetae_054.txt.gz
Theta_e
330 331 331 329 330 331 331 331 332 330 329 329 329 328 328 328 329 328 327 326 326 325 326 326 326 326 325 325 324 323 324 324 325 326 327 328 328 327 328 328 328 328
331 331 332 332 331 331 329 330 332 331 329 328 328 328 328 328 329 328 328 327 325 325 325 325 326 327 327 327 326 325 325 326 327 327 328 328 328 327 328 329 328 328
330 330 332 331 330 329 329 331 331 329 328 327 327 328 328 328 328 329 328 327 325 325 325 326 327 328 328 327 327 327 327 327 327 328 328 328 328 327 328 329 329 328
328 329 331 331 329 328 330 331 330 328 327 327 327 328 328 327 328 328 328 326 325 324 325 327 328 328 328 328 328 327 327 328 328 328 328 328 328 327 328 328 328 328
327 327 329 329 329 329 330 331 329 327 326 326 327 327 327 327 327 327 327 326 325 324 326 328 328 328 328 328 328 328 328 328 328 328 328 329 328 328 328 328 328 328
327 327 328 328 328 329 330 330 328 327 326 326 326 326 325 325 325 326 326 325 325 326 327 328 328 328 329 328 328 328 328 328 328 328 328 328 328 328 328 328 328 327
327 328 328 328 328 329 330 330 328 327 327 326 326 325 324 324 325 325 325 326 327 328 328 329 328 328 328 328 328 327 327 328 328 328 328 328 328 328 328 328 327 327
327 328 328 328 329 329 330 329 327 327 327 326 326 325 324 324 324 325 326 327 328 328 329 329 328 328 327 327 327 327 327 327 327 327 327 327 327 328 328 327 327 326
327 327 328 328 328 328 329 329 327 327 328 327 326 324 323 323 324 325 326 327 328 329 328 328 327 326 326 326 326 326 326 327 326 326 326 326 327 327 327 327 326 326
327 327 327 328 327 328 329 329 329 328 328 327 326 324 323 323 323 324 325 326 327 328 327 327 326 325 325 326 325 325 325 326 326 326 326 326 326 326 326 326 326 325
327 326 326 327 327 326 328 329 329 329 328 327 325 323 322 323 323 323 323 324 326 327 326 325 324 324 324 324 325 325 325 325 325 325 325 326 326 326 325 325 325 324
327 326 325 325 326 326 327 328 329 329 328 327 324 322 322 322 322 322 322 323 325 326 326 324 324 324 323 323 324 325 324 324 324 324 325 325 326 326 326 326 325 323
327 327 326 325 326 326 326 328 328 327 327 326 323 321 321 322 320 320 321 321 323 325 326 324 324 324 323 323 324 324 324 324 323 323 323 323 325 326 326 326 325 323
326 327 327 326 327 327 327 328 328 327 326 325 323 321 320 320 319 319 320 319 320 323 324 323 323 323 323 323 323 322 322 322 323 323 323 322 323 324 325 326 325 323
325 326 327 327 327 327 327 327 327 327 327 326 324 321 320 320 320 320 320 319 318 321 323 322 322 322 322 323 323 322 322 322 322 323 323 322 323 324 325 325 324 324
324 325 326 327 327 327 326 326 326 326 326 326 324 322 320 320 321 321 320 318 318 321 323 322 321 321 322 323 323 323 323 323 323 323 323 323 323 324 324 324 324 324
322 324 325 326 327 328 327 325 325 325 326 325 324 322 321 321 322 322 320 317 318 322 323 322 322 322 322 323 324 323 323 324 324 324 324 324 324 324 324 323 323 323
319 321 323 325 326 327 327 326 325 326 327 326 325 324 322 322 323 323 321 317 318 321 323 323 323 322 322 322 323 323 324 325 325 324 323 324 324 324 324 323 324 323
316 318 321 323 324 325 326 326 326 327 327 327 325 324 323 322 323 323 322 318 318 321 323 323 323 323 322 323 323 323 324 324 324 323 323 324 324 324 324 323 324 324
313 315 318 320 321 323 325 326 326 326 327 327 326 324 323 323 323 323 323 321 320 322 324 323 323 323 323 323 323 323 323 323 323 323 323 323 323 324 323 323 323 323
311 313 315 317 319 320 322 324 325 325 326 327 327 326 325 324 323 323 323 322 321 322 323 322 323 323 322 323 323 323 322 322 322 322 322 322 323 323 323 323 322 321
310 311 312 313 315 317 318 321 323 323 324 325 326 326 326 325 324 323 324 324 323 323 323 322 322 322 322 323 323 322 322 321 322 321 321 321 322 322 322 322 321 320
309 310 311 311 312 313 314 317 320 322 322 323 324 324 324 324 324 324 324 324 324 323 322 322 322 322 323 324 323 322 322 321 321 321 321 320 321 321 322 322 321 320
308 309 310 310 310 310 310 312 316 318 319 320 321 321 321 321 321 322 324 324 323 323 322 322 322 322 323 323 322 321 322 321 321 321 321 321 320 321 322 322 321 320
308 308 309 309 309 308 308 309 311 313 315 316 316 316 316 315 314 316 320 322 321 321 322 322 322 322 322 322 322 321 321 321 321 320 320 320 320 321 321 321 321 320
307 308 308 308 308 307 307 307 307 309 310 312 312 311 310 310 309 310 313 318 320 320 320 320 320 321 321 321 321 321 320 320 320 320 320 320 320 320 321 320 320 320

ECMWFNIL_850_thetae_057.txt.gz
Theta_e
329 329 329 329 329 330 329 329 329 331 332 331 331 329 329 330 330 329 329 328 328 328 327 326 326 327 327 326 327 327 326 326 328 327 325 325 327 328 329 329 329 328
328 328 329 329 330 330 330 329 329 329 331 331 331 330 329 330 329 328 328 328 328 327 326 326 326 327 327 327 328 327 325 325 325 325 324 325 326 328 329 329 328 327
326 327 328 329 329 330 330 329 328 328 330 332 331 329 329 328 328 327 328 328 328 327 326 326 326 327 327 328 328 327 327 326 325 324 325 326 327 328 329 329 328 327
326 326 327 328 328 329 329 329 328 327 330 332 330 329 328 328 327 327 328 328 328 327 327 326 326 327 327 327 327 326 327 328 327 326 326 328 328 328 329 328 327 328
326 327 327 327 327 328 328 329 327 328 330 331 330 329 328 328 327 327 328 328 327 327 327 326 326 326 326 326 326 325 327 328 327 327 327 328 328 328 329 328 327 328
325 326 327 327 327 327 328 328 327 328 330 331 330 329 328 328 327 327 328 327 327 327 327 326 325 325 325 327 327 328 328 328 327 327 327 328 328 328 328 328 328 327
324 326 327 327 327 327 327 328 328 328 330 330 330 329 329 328 327 327 327 327 327 327 326 325 324 325 326 327 328 329 329 328 327 327 328 328 328 328 328 329 328 327
324 326 327 327 327 327 327 328 328 328 330 330 330 330 329 328 326 326 326 325 326 326 325 325 325 325 326 326 327 328 328 328 327 327 327 327 328 328 328 328 328 328
324 326 327 326 327 327 327 327 328 329 330 329 330 330 329 327 325 325 325 324 325 326 326 326 326 326 326 325 326 327 327 327 327 327 327 328 327 327 327 327 328 328
324 326 327 326 326 326 327 327 328 329 329 329 329 330 329 327 326 325 325 324 325 326 327 327 328 328 327 325 326 326 326 326 326 327 327 327 327 327 327 327 327 328
325 326 327 326 325 326 326 327 326 328 328 328 328 329 329 327 327 326 326 325 325 326 327 328 328 327 327 326 325 325 326 326 326 326 327 327 327 326 326 327 327 328
325 326 326 326 326 326 326 326 326 327 328 327 327 328 328 327 327 327 327 326 326 327 327 327 326 326 325 324 323 323 324 325 325 325 326 326 326 326 326 326 327 327
323 325 325 326 326 326 326 327 326 326 327 328 328 328 327 326 326 326 326 327 327 327 327 326 325 324 324 322 321 321 321 323 325 325 326 326 325 326 326 326 327 327
321 323 324 325 326 326 327 327 327 327 328 328 329 328 327 326 325 326 326 326 326 326 326 326 325 324 323 322 321 320 320 322 324 325 325 325 325 325 325 326 327 326
318 320 323 324 325 326 326 327 327 327 328 328 328 328 327 326 325 325 326 325 325 325 326 325 324 322 322 322 322 320 320 322 323 324 325 325 325 325 324 326 326 326
315 318 320 323 324 325 326 327 327 326 326 327 327 327 327 326 325 324 325 325 325 325 325 324 321 320 320 321 321 320 321 322 322 323 324 324 324 324 324 325 326 326
313 316 318 321 323 324 325 326 326 325 325 325 326 327 326 326 326 325 325 325 325 325 325 323 320 318 319 320 321 320 321 322 322 323 324 324 324 324 324 324 325 325
311 313 315 318 320 322 323 325 326 325 324 324 325 327 326 326 326 325 325 325 325 326 326 325 321 318 318 320 321 321 321 322 322 323 324 324 324 324 324 324 324 325
310 311 312 315 317 320 321 323 324 325 325 325 325 326 326 326 326 326 326 325 325 326 326 325 323 320 318 320 321 321 321 322 322 322 324 325 324 324 324 324 324 324
309 310 310 311 313 316 319 321 322 323 324 325 325 326 326 326 326 326 326 325 325 325 326 325 324 322 320 320 321 321 320 321 322 322 324 324 324 323 324 324 324 324
308 309 309 310 311 312 315 318 320 321 321 322 323 324 325 326 326 326 325 325 324 324 324 324 324 323 322 321 322 321 321 322 322 323 324 324 323 323 324 324 324 323
307 307 308 308 309 310 311 313 315 317 318 319 320 321 322 323 325 326 326 325 324 323 324 324 324 324 323 322 322 322 322 322 323 323 323 323 323 323 323 324 323 323
307 307 306 307 307 308 308 309 310 312 313 314 315 316 318 319 321 323 324 325 324 324 324 324 324 324 323 323 323 322 322 322 322 322 322 322 322 322 322 323 323 322
306 306 306 306 306 306 307 307 307 308 309 309 311 312 313 315 316 318 320 321 322 323 323 323 324 324 323 323 322 322 322 322 322 322 321 322 321 321 322 323 323 322
305 305 305 306 306 306 306 306 306 306 306 307 307 308 309 311 312 313 315 316 318 319 320 321 322 322 322 323 322 323 323 323 322 322 321 321 321 320 321 322 322 322
304 305 305 305 305 305 305 305 305 305 305 305 306 306 307 308 308 309 311 312 313 314 315 317 319 319 320 322 322 323 323 322 322 322 321 321 321 320 320 321 322 322

ECMWFNIL_850_thetae_060.txt.gz
Theta_e
328 329 329 329 329 329 329 330 330 331 331 331 331 331 331 331 331 331 331 330 330 330 329 329 328 327 327 328 328 327 327 326 325 323 324 325 326 327 327 327 329 330
326 328 328 328 329 329 329 330 330 330 330 330 331 331 331 331 332 332 331 330 330 330 331 330 328 328 328 327 327 327 327 327 326 324 323 323 325 326 326 326 329 330
325 326 327 328 328 328 329 330 330 330 330 330 330 331 331 331 331 332 331 330 330 331 331 330 328 327 327 327 327 326 326 326 326 325 325 326 327 327 325 325 327 328
324 325 326 327 328 328 328 329 330 330 330 330 330 331 332 331 331 331 330 330 330 330 331 330 328 327 327 327 327 326 326 326 326 327 327 328 328 326 324 325 326 327
323 324 325 325 327 328 328 329 329 330 330 330 330 331 332 331 330 330 330 330 330 330 331 330 328 327 326 327 327 326 326 326 327 328 329 328 327 326 325 325 327 328
323 324 324 325 326 327 328 329 329 329 329 329 329 330 331 330 329 330 329 329 329 329 331 330 329 327 326 327 327 326 326 326 326 329 329 329 328 327 326 327 328 330
323 323 324 325 326 326 327 328 328 328 328 329 329 330 331 330 329 329 329 329 329 329 330 330 328 328 327 326 325 325 326 327 327 329 329 329 329 328 328 329 330 330
323 323 323 324 326 326 327 327 328 327 328 328 329 329 330 330 329 329 329 329 329 329 330 330 329 329 327 325 324 325 326 327 328 329 329 329 328 328 328 329 329 330
322 323 324 324 325 326 326 326 327 328 328 328 329 329 330 330 329 329 329 329 329 329 328 329 330 329 327 325 325 326 327 328 329 329 329 329 328 328 328 328 329 330
321 323 324 325 326 326 325 325 326 327 328 328 329 329 329 329 329 329 328 329 329 329 328 329 330 329 327 326 326 327 328 328 328 328 328 328 328 328 329 329 329 329
319 321 323 325 326 326 325 325 326 327 327 327 328 328 328 329 329 328 328 328 328 328 327 328 330 328 326 327 327 327 328 327 327 328 327 328 328 328 328 329 330 329
317 319 321 324 325 325 326 326 326 326 326 326 326 326 327 329 329 328 328 328 327 327 326 328 330 329 327 328 328 327 327 327 326 326 326 327 328 328 328 329 330 329
316 317 319 321 323 324 325 325 325 326 326 326 326 326 327 328 328 328 327 327 327 328 328 329 330 330 329 328 327 327 326 325 325 325 325 326 327 327 327 327 328 329
313 315 317 319 321 322 324 324 325 325 325 325 326 326 327 328 328 327 327 327 328 327 325 326 327 329 330 328 326 325 324 323 323 324 324 325 326 327 326 326 327 327
310 312 314 317 319 321 322 324 324 325 325 325 325 326 327 327 327 327 327 327 328 326 323 324 326 329 329 327 325 324 322 321 322 323 325 326 326 326 326 326 326 326
309 310 311 314 318 320 321 322 324 325 324 324 325 325 326 326 325 326 326 327 328 327 325 326 327 328 328 326 325 324 322 321 320 321 325 326 326 326 326 325 325 324
308 309 309 310 314 317 319 321 322 324 324 325 325 324 325 326 325 324 325 326 327 327 327 327 327 327 327 326 325 324 323 323 322 320 322 324 324 325 325 325 324 323
308 308 308 308 310 314 317 318 320 321 323 324 325 325 325 326 325 323 323 325 326 326 326 327 327 326 326 326 326 325 324 324 324 323 322 321 321 322 323 323 323 323
307 307 308 307 308 309 312 314 316 318 320 322 323 324 324 325 325 325 325 325 325 325 325 326 326 326 327 327 327 326 324 323 325 326 325 323 322 322 323 323 323 323
307 307 307 307 307 307 308 310 312 314 316 318 319 321 322 324 324 325 325 325 325 325 325 325 325 325 326 327 326 326 325 324 324 326 326 325 325 324 324 324 323 323
306 306 306 306 306 306 307 308 309 310 311 313 315 316 318 320 321 322 323 324 324 325 325 325 325 325 326 326 326 325 325 324 323 323 325 325 326 326 326 325 325 325
305 305 306 306 306 306 306 306 307 307 308 309 310 311 312 315 317 318 319 321 322 323 324 324 324 324 325 325 325 325 324 324 323 323 322 323 325 327 327 327 327 327
304 304 305 305 305 305 305 305 305 305 306 307 307 308 309 310 311 313 315 316 318 319 321 322 322 323 324 325 325 325 324 324 324 323 323 322 324 325 326 326 326 326
303 303 304 304 304 304 304 304 305 304 305 305 305 306 307 307 308 309 310 311 312 314 316 318 319 321 323 324 324 324 324 323 323 324 323 323 323 324 324 324 324 323
302 302 303 303 303 304 304 304 304 304 304 304 304 304 305 306 307 307 307 308 309 310 312 313 315 318 320 322 323 324 323 323 323 323 323 323 323 323 323 323 323 323
302 302 302 302 303 303 303 303 303 303 303 304 304 304 304 305 306 306 306 307 307 308 309 310 312 313 316 318 321 322 322 322 322 322 323 323 322 321 322 322 322 322

ECMWFNIL_850_thetae_063.txt.gz
Theta_e
326 328 329 330 330 330 330 330 330 330 331 331 332 331 332 333 333 333 334 334 333 334 333 332 333 332 331 331 330 330 330 330 329 329 328 327 327 328 328 327 326 327
325 325 326 327 329 329 330 329 329 329 329 330 331 331 331 331 331 331 332 333 333 333 332 331 331 332 331 330 330 329 330 330 329 329 328 328 327 327 327 327 326 326
323 324 324 325 326 327 328 329 329 330 331 330 331 331 331 331 330 329 330 331 332 331 331 330 330 331 330 330 329 329 329 330 329 328 328 327 327 326 326 326 327 326
323 323 324 324 324 325 327 328 328 329 330 330 330 331 331 330 331 330 328 329 331 331 331 330 330 331 330 330 330 329 329 329 328 327 327 326 325 325 324 324 325 326
322 323 323 324 324 324 325 327 328 328 329 329 329 329 330 330 331 331 329 329 330 331 330 329 330 331 330 330 330 329 329 328 328 328 327 326 325 324 323 323 324 326
321 322 323 323 323 324 324 326 327 328 328 329 329 329 329 329 329 330 330 330 329 330 330 329 330 330 330 329 330 329 328 329 329 329 328 327 326 325 324 324 325 327
319 321 322 323 323 324 325 326 326 327 327 329 330 329 329 329 328 329 330 330 329 329 329 329 330 330 329 329 329 328 328 329 329 329 328 326 326 326 326 327 327 329
318 319 320 322 323 324 325 325 325 326 326 327 328 328 329 328 328 328 328 329 329 328 328 329 330 330 329 329 327 327 328 329 330 330 329 327 326 327 328 328 329 330
317 318 319 320 321 323 324 325 325 325 325 326 327 328 328 328 327 328 328 328 327 327 328 329 330 329 329 328 326 326 328 330 331 331 329 328 328 328 329 329 330 330
315 316 317 318 319 322 324 324 324 324 325 325 326 327 328 327 327 327 328 328 328 327 327 328 329 329 329 328 326 327 328 329 330 330 329 330 330 330 330 329 329 330
313 314 315 315 317 320 322 323 324 325 325 325 326 326 327 327 326 326 327 328 328 327 327 328 328 328 329 328 327 326 327 328 329 330 331 332 331 331 330 329 329 330
313 313 313 313 315 318 320 322 323 325 326 325 326 326 326 326 325 325 327 328 328 327 327 327 327 327 328 328 328 327 326 328 330 330 331 331 331 331 330 329 329 330
312 312 312 312 313 315 318 321 322 324 325 325 325 326 326 326 325 325 327 328 328 327 326 325 326 327 327 327 327 328 327 328 330 330 330 330 330 331 331 330 330 329
312 311 312 312 311 313 316 319 321 322 323 324 325 325 325 325 325 325 327 328 328 327 326 325 326 327 327 327 326 326 326 327 328 330 330 330 330 330 330 330 329 329
311 311 311 311 311 311 313 316 319 321 322 323 324 324 324 325 324 325 326 327 327 327 327 326 326 327 327 327 327 326 327 328 328 329 329 329 328 328 328 328 328 329
310 310 310 310 310 310 311 312 315 318 320 321 322 323 324 324 324 324 325 326 326 326 325 324 325 326 326 326 326 326 326 326 327 328 328 327 327 327 328 329 329 331
309 309 310 309 309 309 309 310 312 314 317 318 320 321 323 324 323 323 324 325 325 325 325 323 323 324 325 325 326 326 325 324 325 326 327 329 328 326 326 328 329 329
308 308 308 309 309 309 309 308 309 311 313 315 316 318 319 321 322 322 322 323 323 324 325 325 324 325 325 325 324 325 324 324 324 324 325 327 329 328 327 327 326 326
307 307 308 308 308 308 308 308 307 308 310 311 312 313 315 316 318 319 320 321 321 322 323 324 325 325 324 323 323 324 325 325 325 324 324 325 327 328 327 327 327 325
306 306 307 307 307 307 307 307 307 307 307 307 308 309 311 313 314 315 316 318 319 320 320 322 324 325 324 324 324 325 326 326 325 324 324 325 326 327 327 328 327 327
305 305 306 306 306 306 306 306 306 306 306 306 306 307 308 309 310 311 312 313 315 316 317 320 322 324 324 325 325 325 326 326 325 324 324 324 325 325 327 328 327 327
305 305 305 305 305 305 306 305 305 306 305 305 305 306 306 306 307 308 309 310 311 312 314 316 319 322 323 324 325 325 325 325 325 324 324 323 323 323 325 327 326 327
304 304 304 304 305 305 305 305 305 305 305 305 305 305 305 305 305 306 307 308 308 309 311 312 314 317 319 321 323 324 325 325 325 325 324 324 324 324 324 325 326 325
304 304 304 304 304 304 304 304 304 304 304 304 304 305 305 304 304 305 305 305 306 307 308 309 310 312 314 317 320 322 324 324 324 325 325 324 324 324 323 325 326 324
303 303 303 303 303 303 303 303 303 303 303 303 304 304 304 304 304 304 304 304 304 305 306 307 308 309 310 312 315 318 321 322 323 324 324 324 324 324 323 324 325 323
303 303 303 303 303 303 303 303 303 303 303 303 303 303 303 303 303 303 303 303 303 303 304 305 306 307 308 309 311 313 316 318 320 321 321 322 323 323 323 322 323 323

ECMWFNIL_850_thetae_066.txt.gz
Theta_e
323 323 324 324 326 328 329 329 330 330 330 330 330 330 331 331 331 331 331 331 331 330 330 331 331 331 331 331 332 332 332 332 331 332 331 332 331 330 330 330 328 327
322 322 322 323 323 324 326 327 328 329 329 329 329 329 330 331 331 331 331 331 331 330 330 330 330 330 330 331 332 332 332 332 331 331 331 331 331 331 330 329 327 326
322 322 322 322 322 322 323 324 325 327 328 329 329 330 330 330 330 330 330 330 330 330 330 330 330 330 330 330 331 331 331 331 330 330 331 331 330 330 330 328 327 326
319 320 321 321 321 322 323 323 324 324 326 328 329 330 330 330 330 330 330 330 330 329 329 329 329 329 330 330 330 330 330 330 329 329 330 330 330 330 329 328 327 327
317 318 319 320 320 322 323 323 323 324 325 326 327 328 329 329 329 330 330 329 329 329 328 328 329 329 330 329 329 329 330 330 330 329 329 329 330 330 330 328 328 328
316 316 317 317 318 319 320 322 323 324 324 324 324 325 326 328 328 328 329 329 328 328 327 327 328 328 329 328 328 329 329 330 330 329 329 329 329 330 330 329 329 328
315 315 315 315 316 317 318 320 322 322 323 323 323 324 324 326 328 328 328 328 328 327 326 326 327 328 327 327 328 329 329 330 329 329 329 329 328 328 329 329 328 327
314 314 314 314 314 315 316 318 320 321 322 323 323 324 324 325 327 327 327 327 326 325 325 325 326 327 326 326 327 329 330 330 329 329 328 328 329 329 328 329 328 327
314 313 313 313 313 313 314 316 319 320 322 323 324 324 325 325 325 325 325 324 324 324 325 325 326 327 327 327 328 329 330 330 329 329 328 328 329 329 329 329 329 328
313 313 313 312 312 312 312 314 317 319 321 323 324 324 325 325 325 324 324 324 325 326 326 327 327 327 327 328 328 328 329 330 329 329 328 329 330 329 329 329 329 329
312 312 312 312 311 311 311 312 315 318 320 321 323 324 324 324 324 324 324 325 326 327 328 328 328 328 328 328 329 329 329 329 328 327 328 328 328 328 329 329 329 329
312 312 312 311 311 311 310 311 314 317 318 319 321 323 323 324 324 323 323 324 326 327 328 328 328 328 328 328 328 328 328 328 327 327 327 326 326 327 327 328 328 329
311 311 311 311 310 310 310 310 312 314 316 317 318 321 322 323 323 323 322 323 325 326 327 328 327 327 326 326 327 328 328 327 327 327 327 326 326 326 327 327 328 329
310 310 310 310 310 310 309 309 309 311 314 315 316 318 319 320 321 322 322 323 325 325 325 325 324 323 323 324 326 327 327 327 326 326 326 325 325 325 325 326 327 328
309 309 309 309 309 309 308 308 308 309 311 312 313 314 316 317 318 320 322 323 324 324 324 324 322 320 320 323 325 326 326 327 327 326 325 324 324 324 324 323 325 327
308 308 308 308 308 308 307 307 307 307 308 309 310 311 312 314 315 317 319 321 322 323 323 323 322 320 320 323 325 326 325 325 326 326 326 325 324 324 323 323 324 326
307 307 307 307 307 307 307 307 306 306 306 306 307 308 309 310 311 313 315 317 318 320 321 322 322 321 321 321 324 325 325 325 325 325 325 325 324 323 323 323 324 325
306 306 306 306 306 306 306 306 306 306 306 305 306 306 307 308 309 309 311 313 314 316 318 319 320 321 322 322 323 324 325 325 324 323 323 323 324 324 323 324 325 325
306 306 306 305 305 305 305 305 305 305 305 305 305 305 305 306 306 307 308 309 310 311 313 315 317 319 321 322 323 324 324 323 322 321 321 323 324 324 324 325 326 326
305 305 305 305 305 304 304 304 304 304 304 304 305 305 305 305 305 305 306 306 307 308 309 310 312 314 317 320 322 323 323 323 322 321 322 323 325 325 325 326 326 325
304 304 305 305 304 304 304 304 304 303 303 303 303 304 304 304 304 304 304 304 305 305 306 307 308 310 312 315 318 320 322 323 323 324 324 325 325 325 326 325 324 324
304 304 304 304 303 303 303 304 303 303 303 303 303 303 302 303 303 303 303 303 303 304 304 305 306 307 309 311 313 316 319 321 322 323 324 325 325 325 325 324 323 323
303 303 303 303 303 303 302 303 303 303 303 303 303 303 302 301 301 302 302 302 302 302 303 304 304 305 306 307 309 312 315 318 320 321 322 324 324 324 324 324 323 322
302 303 302 302 302 302 302 302 302 302 302 302 302 302 302 301 301 301 301 301 301 301 301 302 303 304 304 305 307 308 311 313 315 317 319 321 322 322 322 323 323 322
302 302 302 302 301 301 301 301 301 301 301 301 302 302 302 301 300 300 300 300 300 300 301 301 302 302 303 304 305 306 308 309 311 313 315 317 319 320 320 321 322 322
302 301 301 301 301 301 301 300 300 300 300 300 301 301 301 300 300 300 300 300 299 300 300 300 301 301 302 303 303 304 305 306 308 310 312 313 315 317 318 319 321 322

ECMWFNIL_850_thetae_069.txt.gz
Theta_e
319 319 320 321 321 322 322 323 324 325 326 327 327 327 328 328 328 329 330 330 330 330 330 330 330 330 329 329 328 328 329 330 330 331 331 330 330 331 331 330 330 330
318 318 318 318 319 320 321 322 323 323 324 324 326 327 327 327 328 329 329 329 329 329 329 329 329 329 328 328 327 327 328 328 329 330 330 330 330 330 331 330 331 331
316 316 316 316 316 317 319 320 321 322 322 323 325 326 326 326 326 327 328 328 328 328 328 328 328 328 328 327 326 326 327 327 328 329 330 330 330 330 330 330 330 331
314 314 314 314 314 315 316 317 318 319 321 322 322 323 323 323 324 326 327 327 327 327 327 327 326 326 325 325 325 325 326 327 328 329 329 329 330 330 330 329 330 330
313 313 313 312 312 313 313 315 316 317 319 320 321 321 322 322 323 325 326 326 326 325 325 325 325 324 324 324 324 325 326 327 327 328 328 328 329 329 330 330 330 330
312 312 311 311 311 312 312 314 315 317 318 319 321 321 322 322 323 324 324 324 324 323 324 326 326 326 326 325 325 325 326 326 326 326 327 328 329 329 329 330 330 329
312 311 311 310 311 311 312 313 315 316 317 319 321 321 322 322 323 323 323 323 323 324 326 326 326 327 327 327 327 326 326 327 327 327 328 328 328 329 329 329 329 329
311 311 310 310 310 310 311 313 315 316 316 318 320 321 322 322 322 323 323 322 323 324 326 325 325 326 327 327 327 326 326 327 327 328 328 327 327 328 329 329 329 329
311 310 310 310 310 309 310 312 314 315 315 316 318 320 321 321 321 322 322 320 321 323 325 325 325 326 327 327 327 326 326 327 327 327 328 328 328 329 329 329 329 329
310 310 310 309 309 308 309 311 313 313 313 314 315 317 319 320 320 321 321 319 320 322 324 325 325 326 327 327 327 327 327 327 327 327 327 328 328 328 328 328 328 328
309 309 309 308 308 307 308 309 311 312 311 311 312 314 315 317 318 320 320 320 320 321 323 323 324 324 325 325 325 326 326 327 327 327 327 327 327 328 328 328 328 328
308 308 307 307 307 306 306 307 308 310 309 309 310 311 312 313 315 316 318 318 319 320 321 322 322 322 321 321 322 323 324 326 327 327 327 327 327 327 327 327 327 327
306 306 306 306 306 306 305 305 306 307 307 307 308 308 309 310 311 312 313 315 316 318 319 320 320 320 320 319 319 320 322 324 326 327 327 327 327 326 326 326 325 326
305 305 304 304 305 305 305 304 305 305 305 306 306 307 307 307 307 308 309 311 313 314 315 316 318 320 320 319 319 319 320 323 325 326 327 327 327 326 325 325 325 325
305 304 304 304 304 304 303 303 304 304 304 304 305 305 306 306 306 307 307 308 310 311 312 313 315 316 316 316 318 318 319 321 324 325 326 327 327 326 326 325 324 325
305 304 304 304 303 303 303 303 303 303 303 303 303 303 304 305 305 306 307 307 307 308 309 310 312 312 312 313 315 317 319 320 322 324 326 326 327 326 326 325 324 323
304 304 303 303 303 303 303 303 303 303 302 302 302 302 302 303 303 304 304 305 306 306 307 307 308 308 309 311 313 316 318 319 321 323 324 325 325 325 325 325 325 324
303 303 303 303 303 303 302 302 302 303 302 302 302 301 301 301 301 301 301 302 304 304 305 305 306 306 307 309 312 314 316 318 319 321 322 323 324 324 324 325 325 323
302 302 302 302 302 302 302 302 302 303 303 302 301 301 300 300 300 300 299 300 301 302 303 304 304 305 306 307 309 311 313 315 317 318 320 321 322 323 324 324 324 323
302 302 301 301 301 301 300 300 301 302 302 302 301 300 300 299 299 299 299 299 299 300 301 302 303 304 305 306 307 309 310 313 314 316 318 320 320 321 322 323 324 324
301 301 301 300 300 299 298 298 299 301 301 301 301 300 299 298 298 298 298 299 299 299 299 300 301 302 303 304 306 307 308 310 312 314 316 318 319 319 320 322 324 324
300 300 300 300 299 299 298 296 296 298 299 300 300 299 298 298 298 298 298 298 298 298 299 299 299 300 301 302 304 305 307 308 310 311 313 315 317 318 319 320 322 323
300 300 299 299 299 299 298 297 296 296 297 298 299 299 298 298 299 299 298 298 298 298 298 299 299 299 300 301 302 303 304 306 307 308 310 312 314 315 316 318 319 321
299 299 299 299 299 298 298 298 297 296 296 297 298 297 296 297 298 299 298 299 298 297 297 298 298 299 299 300 300 301 302 303 304 306 307 308 310 311 313 314 315 316
300 299 299 299 299 299 298 298 298 297 296 296 296 296 295 296 298 299 298 298 297 296 297 298 298 298 298 299 299 300 301 301 302 303 304 305 307 308 310 311 312 313
299 299 298 299 299 299 298 298 297 297 297 296 296 296 295 295 297 298 297 296 295 295 296 298 298 298 298 298 298 299 299 299 300 301 302 303 304 305 307 308 309 310

ECMWFNIL_850_thetae_072.txt.gz
Theta_e
320 321 321 321 321 321 321 321 321 322 322 322 322 323 324 324 324 324 325 326 326 327 327 328 328 328 328 327 327 326 326 326 326 326 325 325 325 326 327 328 329 329
317 317 318 318 319 319 320 321 321 322 322 322 322 322 323 323 323 324 324 324 324 325 326 327 327 326 325 324 324 324 324 324 324 324 324 324 325 326 327 328 328 329
314 315 316 316 317 317 318 319 319 320 320 320 321 321 322 322 322 322 323 323 323 323 324 325 324 323 322 323 323 324 324 324 324 324 324 325 325 326 327 327 328 329
312 313 314 315 316 316 316 316 317 317 318 318 319 320 320 321 321 321 322 322 322 323 323 323 322 322 323 324 324 324 324 325 325 325 326 326 325 325 326 327 328 328
311 311 312 313 314 313 313 314 314 315 316 317 318 319 319 320 321 321 321 321 321 321 322 321 322 323 324 323 323 323 324 324 325 325 326 326 326 326 326 326 327 327
310 310 311 311 311 311 312 313 313 313 315 316 318 319 320 320 321 320 320 320 320 320 320 321 322 324 324 324 324 324 325 326 325 325 325 325 326 326 326 326 327 327
309 309 309 310 311 311 311 311 311 312 314 315 317 318 319 320 320 320 319 319 319 319 319 320 322 323 324 324 324 324 325 326 326 326 325 325 325 326 326 326 327 327
309 308 308 309 310 311 311 310 310 311 312 314 315 316 317 318 319 319 319 319 318 318 318 319 320 321 321 322 322 323 323 324 325 325 325 325 325 325 326 326 326 327
308 308 307 307 309 310 310 309 308 309 310 311 312 313 314 315 316 317 317 318 318 318 317 317 318 318 319 320 320 320 321 321 323 324 325 325 325 325 326 326 326 327
306 306 306 306 306 307 308 307 307 307 308 308 309 310 311 312 313 314 315 316 316 316 316 317 317 317 318 319 319 319 319 319 321 323 324 325 325 325 326 326 327 327
304 304 304 304 304 305 306 305 305 306 307 307 307 308 309 309 310 311 312 313 312 313 313 314 315 316 317 318 318 319 319 318 319 322 324 325 326 326 326 326 327 327
303 303 303 303 303 303 303 303 303 304 304 305 306 307 307 308 308 308 309 309 309 309 310 311 312 314 316 317 317 318 319 319 318 320 322 325 326 326 326 326 326 327
303 303 303 303 303 303 302 302 302 302 302 302 303 304 305 305 306 306 307 307 307 307 307 308 309 311 313 315 315 316 317 318 319 319 321 323 324 325 326 326 326 326
303 302 302 302 303 303 302 302 301 301 300 300 300 301 302 302 303 304 305 305 305 306 306 306 307 308 310 311 313 314 315 316 317 318 319 321 322 324 326 326 326 325
302 302 302 302 302 302 302 302 301 300 300 299 298 299 300 301 301 302 303 303 304 304 304 305 306 306 306 307 309 311 313 314 315 317 318 320 321 323 324 326 326 325
302 302 301 301 301 301 301 301 301 300 299 297 297 298 299 299 299 300 300 301 302 303 303 303 304 304 304 305 306 308 310 312 313 315 317 318 320 321 323 324 325 325
301 300 299 299 300 301 300 300 300 299 298 296 296 297 298 298 298 299 298 299 300 301 301 302 302 302 303 304 305 306 308 310 311 313 315 317 318 320 321 322 323 324
298 297 296 296 297 298 298 298 299 298 296 295 295 296 297 297 298 298 297 297 298 299 300 300 301 301 302 303 304 305 306 308 310 312 314 315 317 318 320 321 322 323
296 296 296 296 295 296 296 296 296 296 295 294 295 296 296 296 296 295 295 296 297 298 298 299 300 300 301 301 302 303 304 306 307 309 311 313 314 316 318 320 321 322
297 297 297 297 296 295 295 295 295 295 294 294 295 296 296 295 294 293 293 294 296 297 297 297 298 299 299 300 301 302 303 304 305 307 308 309 311 313 315 316 318 320
298 297 297 297 296 296 296 295 295 295 295 295 295 295 295 294 293 293 293 294 295 297 296 297 298 298 298 299 300 300 302 303 304 305 306 307 308 309 311 312 313 315
298 297 297 297 296 296 296 296 295 295 295 295 294 294 294 294 293 293 293 293 295 296 296 296 297 298 298 298 299 299 300 301 302 303 304 304 305 306 307 308 310 311
298 297 297 297 297 297 296 296 295 295 295 294 294 294 294 294 294 293 292 293 293 295 295 295 296 297 298 297 298 298 299 300 301 301 302 302 303 303 304 305 306 307
298 297 297 297 297 297 296 296 296 295 295 295 294 294 294 294 293 293 292 292 292 293 294 295 296 297 297 297 297 297 297 298 298 299 300 301 301 302 302 303 304 305
298 297 297 297 297 297 297 296 296 296 295 295 295 294 294 294 293 293 292 292 293 293 293 295 296 296 297 298 298 298 297 297 297 298 298 299 300 301 301 302 302 303
298 298 297 297 297 297 297 297 296 296 296 295 295 294 294 293 293 293 293 292 293 293 293 294 296 296 297 297 298 298 297 296 296 297 297 298 299 299 300 301 301 301

ECMWFNIL_850_thetae_075.txt.gz
Theta_e
318 318 319 319 319 318 318 318 318 318 318 319 319 319 319 319 320 320 321 321 321 321 322 322 323 323 324 325 325 324 323 322 322 323 324 324 324 324 324 324 324 324
315 315 316 316 315 315 315 316 316 316 317 318 318 318 318 319 319 319 319 319 319 320 320 321 322 322 322 323 323 322 322 322 323 323 323 324 324 324 324 324 325 325
313 314 314 314 314 314 314 314 314 315 316 317 317 317 317 318 319 319 319 319 319 319 319 319 320 320 321 321 322 323 323 323 323 323 324 324 324 324 324 323 324 325
312 312 313 313 312 312 312 312 313 314 315 316 316 316 317 317 318 318 319 319 319 318 318 318 318 319 319 320 321 322 323 322 322 323 324 324 324 324 324 324 324 324
311 311 312 312 311 311 311 311 312 312 313 314 315 316 317 317 318 318 318 317 317 317 317 317 317 317 317 318 318 320 321 321 322 323 323 323 323 323 323 323 324 324
310 310 311 310 310 310 310 310 311 311 312 313 313 314 315 315 316 316 316 317 316 316 316 316 315 316 316 316 317 318 319 320 321 321 321 321 321 321 322 322 323 324
309 310 310 310 310 309 309 310 311 311 311 312 312 312 312 313 314 314 315 315 314 314 314 313 313 314 314 315 316 317 318 319 319 319 319 319 319 319 320 322 323 323
308 309 310 311 311 310 310 310 311 311 311 311 311 311 311 312 312 313 313 313 312 312 312 312 312 312 312 313 314 316 317 318 318 319 319 319 318 318 319 322 323 323
306 307 308 309 309 309 309 309 310 310 310 310 311 311 311 311 311 311 312 311 312 311 311 311 312 311 312 312 313 314 315 316 317 318 318 318 318 318 320 322 324 324
305 304 305 305 306 306 306 306 306 307 307 308 308 309 309 310 310 310 310 310 310 310 310 310 310 310 310 311 311 312 313 314 315 316 317 318 318 318 320 323 324 325
303 303 303 303 303 303 303 303 303 303 304 304 305 305 306 307 307 308 308 308 308 308 307 307 308 308 308 309 310 310 311 312 313 315 316 317 318 318 319 322 324 325
303 302 302 302 302 302 301 300 300 300 301 302 302 303 303 304 304 305 305 305 305 305 305 305 305 306 306 307 308 308 309 310 311 313 314 316 317 318 319 321 323 324
302 302 302 301 301 300 299 297 297 297 298 299 300 300 300 300 300 301 302 302 303 303 303 304 304 305 305 305 306 306 307 308 309 311 312 314 315 316 318 320 322 323
301 301 301 300 299 297 296 295 295 296 296 297 297 297 297 297 297 298 298 299 300 301 302 302 303 303 304 304 304 305 306 307 308 309 310 312 313 315 316 318 320 321
300 301 300 299 297 295 294 294 294 295 295 295 295 295 295 295 295 295 296 296 297 298 299 300 301 301 301 302 302 303 304 305 306 307 308 310 311 312 314 315 317 319
298 299 298 296 295 294 294 294 294 294 294 294 294 294 294 294 294 294 294 295 295 295 296 297 298 299 300 300 301 302 303 304 305 306 307 307 308 310 312 313 315 316
296 296 296 295 295 295 295 294 294 294 294 294 294 294 294 294 294 294 294 294 294 294 295 296 297 298 298 299 300 300 301 302 303 304 305 306 306 308 309 311 313 314
295 295 295 295 295 295 294 294 294 294 294 294 294 294 294 294 294 294 294 294 294 293 294 295 297 297 298 298 299 299 300 301 301 302 303 304 305 306 307 308 310 312
295 295 295 294 294 294 294 294 294 294 294 294 294 293 293 294 294 294 294 294 293 293 293 294 296 297 297 298 298 298 298 299 300 301 301 302 303 304 305 306 307 309
296 295 295 294 294 294 294 294 294 294 293 293 293 293 293 293 294 294 294 294 293 293 293 294 295 296 296 297 297 298 298 298 298 299 300 301 301 302 303 304 304 306
296 296 295 295 294 294 294 294 293 293 293 293 293 293 293 293 293 294 294 294 293 293 294 294 294 295 296 296 297 297 297 297 297 298 298 299 300 300 301 302 302 304
296 296 296 295 295 294 294 294 294 293 293 293 293 293 293 293 293 293 293 293 293 293 294 294 294 295 295 296 296 297 297 297 297 297 297 298 298 299 300 300 301 301
297 296 296 296 295 295 295 294 294 293 293 293 293 293 293 293 293 293 293 293 293 293 294 294 294 295 295 295 296 297 297 296 296 296 296 297 297 298 298 299 299 300
297 297 296 296 296 295 295 294 294 294 293 293 293 293 293 293 293 293 293 293 293 293 293 294 295 295 296 296 296 297 297 297 296 296 296 296 296 297 297 298 298 299
297 297 297 296 296 296 295 295 294 294 294 293 293 293 293 293 293 293 293 293 294 293 293 293 294 295 296 296 296 297 297 296 296 296 295 295 295 295 296 297 297 298
297 297 297 297 297 296 296 295 294 294 294 293 293 293 293 293 293 293 293 293 294 294 293 293 293 295 296 296 296 297 297 296 296 295 295 295 295 295 295 296 297 297

ECMWFNIL_850_thetae_078.txt.gz
Theta_e
316 317 317 317 317 317 317 317 317 316 316 316 315 316 316 316 317 316 316 316 316 317 317 317 317 317 317 317 318 320 321 321 321 322 322 322 322 322 322 322 322 323
313 314 314 314 314 314 314 314 314 314 314 314 314 315 315 315 315 315 315 315 316 316 315 315 315 315 315 315 316 318 320 320 320 319 320 321 321 321 321 321 321 321
312 312 312 312 312 312 312 312 312 312 312 313 313 313 314 314 314 314 314 314 314 313 312 312 311 311 312 312 314 316 318 319 318 317 318 319 320 320 320 320 320 319
311 311 311 310 310 310 310 311 311 311 311 312 312 311 311 312 312 313 313 312 312 311 311 310 311 311 311 311 312 312 314 315 316 317 318 319 319 319 319 318 318 318
310 310 310 309 309 309 309 310 311 311 311 311 311 311 310 310 311 312 312 312 311 311 311 311 311 311 312 312 312 312 312 313 314 315 317 318 319 319 318 318 318 318
309 309 309 309 309 309 309 310 311 311 311 311 311 311 310 310 311 311 311 311 311 311 311 311 311 310 310 310 310 311 311 312 313 313 315 316 317 318 318 318 318 318
309 310 310 310 309 309 310 310 310 310 310 310 310 310 310 310 310 310 310 310 309 309 309 309 308 308 308 308 309 309 310 310 311 312 313 314 315 316 317 318 318 318
308 308 308 308 308 308 308 308 308 307 307 307 307 307 307 308 308 308 307 307 307 307 307 306 306 306 306 306 307 307 308 308 309 310 311 312 313 315 316 317 318 317
305 305 305 305 305 305 305 305 304 304 304 304 304 304 304 304 304 304 304 304 304 303 303 303 304 304 304 304 305 305 306 307 307 308 309 309 311 312 314 316 317 317
304 303 303 304 303 303 302 301 301 301 301 301 300 300 300 299 299 299 299 299 299 299 299 300 300 301 301 301 302 302 303 304 305 306 307 307 309 310 311 313 314 315
302 301 301 300 300 299 298 298 297 297 297 297 297 297 296 296 296 296 296 296 296 296 296 297 297 297 298 298 299 300 301 302 303 305 305 306 307 307 308 309 310 311
299 298 297 297 296 296 296 296 296 296 296 296 296 295 295 295 295 295 295 295 295 295 295 295 296 296 296 297 297 298 299 301 302 303 304 305 305 306 306 306 307 308
296 295 295 295 295 295 295 295 295 295 295 295 295 295 295 295 295 295 295 295 295 295 295 295 295 295 296 296 297 298 298 299 300 301 302 303 304 304 305 305 306 307
295 295 295 295 295 295 295 295 295 295 295 295 295 295 295 295 295 295 295 295 295 294 294 295 295 295 295 296 296 297 298 298 299 300 301 302 303 303 303 304 305 305
295 295 295 295 295 295 295 295 295 295 295 295 295 295 295 295 295 295 295 294 294 294 294 294 294 294 295 296 296 297 297 297 298 298 299 300 301 302 302 303 303 304
295 295 295 294 294 294 294 294 294 294 294 294 294 294 294 294 294 294 295 294 294 294 294 294 293 294 295 295 296 296 296 296 297 297 298 298 299 300 301 301 302 303
294 294 294 294 294 294 294 294 294 294 294 294 294 294 294 294 294 294 294 294 294 294 294 293 293 294 294 294 295 296 296 296 296 296 296 297 297 298 299 300 300 301
294 294 294 294 294 294 293 294 294 294 294 294 294 294 294 294 294 294 294 294 294 294 294 293 293 293 294 294 294 295 296 296 295 295 296 296 296 296 297 298 299 300
294 294 294 294 293 293 293 293 293 294 293 294 293 294 294 294 294 294 294 294 294 294 293 293 293 293 294 294 294 294 295 295 295 294 294 295 295 295 296 297 297 298
294 294 294 294 293 293 293 293 293 293 293 293 293 293 294 294 293 294 294 294 294 293 293 293 293 294 294 294 294 294 295 295 294 294 294 294 295 295 295 296 296 297
294 294 294 293 293 293 293 293 293 293 293 293 293 293 293 293 293 293 293 293 293 293 293 293 293 294 294 295 294 294 295 294 294 294 294 294 294 294 295 296 296 297
294 294 294 293 293 293 293 293 293 293 293 293 293 293 293 293 293 293 293 293 293 293 293 293 293 294 295 295 294 294 294 294 294 294 294 293 293 294 295 296 296 296
296 295 294 294 293 293 293 293 293 293 293 293 293 293 293 293 293 293 293 293 293 293 293 293 293 294 295 295 294 294 294 294 293 293 293 293 293 294 295 296 296 296
296 296 295 294 293 293 293 293 293 293 293 293 293 293 293 293 292 292 293 293 293 293 293 293 293 294 294 294 294 294 294 293 293 293 292 292 293 294 295 296 296 296
296 296 296 295 294 293 293 293 293 293 293 293 293 293 293 292 292 292 293 293 293 293 293 293 293 293 294 294 294 294 294 293 293 293 292 292 293 294 295 295 296 296
297 296 296 295 294 294 293 293 293 293 293 293 293 293 293 292 292 292 292 292 293 293 293 293 293 293 293 293 294 294 294 293 293 292 292 292 293 294 294 295 295 295

ECMWFNIL_850_thetae_081.txt.gz
Theta_e
314 314 314 314 313 313 313 313 312 312 311 312 311 311 311 311 311 311 310 310 310 311 311 311 311 311 311 311 311 311 311 312 312 313 314 315 316 317 318 318 319 318
312 312 312 312 312 311 311 311 311 311 311 311 311 310 310 311 310 310 311 311 311 311 310 310 309 309 309 309 309 309 309 310 311 312 312 313 314 315 316 317 318 318
311 311 310 310 310 310 310 311 311 311 311 311 311 311 310 310 310 310 311 310 309 309 308 307 307 306 306 306 306 307 307 308 309 310 311 312 313 314 315 315 316 317
310 309 309 310 310 310 310 311 311 311 311 310 310 310 309 309 309 309 308 307 306 305 304 303 303 302 302 302 303 303 304 306 307 308 309 310 311 312 313 314 315 316
309 310 310 310 310 310 310 310 309 309 309 308 308 308 307 306 306 305 304 303 301 301 300 299 299 298 298 298 299 299 300 301 302 304 305 307 308 309 310 311 313 314
309 309 308 308 308 308 308 307 307 306 306 305 305 304 303 302 301 300 299 298 297 297 297 297 297 297 297 297 297 297 297 297 298 299 301 303 304 306 307 308 309 311
307 306 306 306 306 305 305 304 304 303 302 301 300 299 298 298 297 297 296 296 296 296 296 296 296 296 296 296 296 296 296 296 297 297 298 299 301 302 304 305 306 307
304 304 304 303 303 302 301 301 300 299 298 298 297 296 296 296 296 296 296 296 296 296 295 295 295 295 295 295 295 295 295 296 296 296 297 297 298 300 301 302 303 305
302 301 301 300 299 299 298 297 297 296 296 296 296 296 296 295 296 295 295 295 295 295 295 295 295 295 295 295 295 295 295 295 295 296 296 297 297 298 299 300 301 303
299 298 297 297 297 296 296 296 296 296 296 296 295 295 295 295 295 295 295 295 295 295 295 294 294 294 294 294 295 295 295 295 295 295 296 296 297 297 298 299 300 301
296 296 296 296 296 296 296 295 295 295 295 295 295 295 295 295 295 295 295 295 295 295 294 294 294 294 294 294 294 294 295 295 295 295 295 295 296 296 297 298 299 300
295 295 295 295 295 295 295 295 295 295 295 295 295 295 294 295 294 295 294 294 294 294 294 294 294 294 294 293 294 294 294 294 294 294 294 295 295 296 296 297 297 298
295 295 295 295 295 295 295 295 295 295 294 294 294 294 294 294 294 294 294 294 294 294 294 294 294 294 294 293 293 294 294 294 294 294 294 294 294 295 295 296 296 297
295 295 295 295 294 294 294 294 294 294 294 294 294 294 294 294 294 294 294 294 294 294 294 294 294 294 294 294 293 293 293 293 293 293 293 293 294 294 294 295 296 296
295 294 294 294 294 294 294 294 294 294 294 294 294 294 294 294 294 294 294 294 294 294 294 294 294 294 294 294 294 293 293 293 293 293 293 293 294 294 294 295 296 296
294 294 294 294 294 294 294 294 294 294 294 294 294 294 294 294 294 294 294 294 294 294 294 294 293 294 294 294 294 294 293 293 293 293 293 293 293 294 294 295 296 296
294 294 294 294 294 294 294 294 294 293 293 294 294 294 294 294 294 294 294 294 294 294 294 293 293 293 294 294 294 294 293 293 293 293 293 293 293 294 295 295 296 296
294 294 294 294 294 294 294 293 293 293 293 293 293 294 294 294 294 294 294 294 294 294 294 293 293 293 294 294 293 293 293 293 293 293 293 294 294 295 295 296 296 296
294 294 294 294 294 293 293 293 293 293 293 293 293 293 293 294 294 294 294 294 294 293 293 293 293 293 293 293 293 293 293 293 293 293 294 294 295 295 295 296 296 296
294 294 294 294 293 293 293 293 293 293 293 293 293 293 293 293 293 293 293 293 293 293 293 293 293 293 293 293 293 293 293 293 293 293 294 294 295 295 295 296 296 296
294 293 293 293 293 293 293 293 293 293 293 293 293 293 293 293 293 293 293 293 293 293 293 293 293 293 293 293 293 293 293 293 293 294 294 294 295 295 295 295 295 295
293 293 293 293 293 293 293 293 293 293 293 293 293 293 293 293 293 293 292 293 293 293 293 293 293 293 293 293 293 293 293 293 294 294 294 294 294 294 294 295 294 294
293 293 293 293 293 293 293 293 293 293 293 293 293 293 293 292 292 292 292 292 292 293 293 293 293 293 293 293 292 292 292 293 294 293 293 293 294 294 294 294 294 294
293 293 293 293 293 293 293 293 293 293 293 293 293 292 292 292 292 292 292 292 292 292 293 293 293 293 292 292 292 291 292 293 294 293 293 293 293 293 294 294 293 293
293 293 293 293 293 293 293 293 293 293 293 293 292 292 292 292 292 292 292 292 292 292 292 293 293 293 292 292 292 291 291 292 293 293 293 293 293 293 293 293 293 293
294 293 293 293 293 293 293 293 293 293 293 293 292 292 292 292 292 292 292 292 292 292 292 293 293 293 292 292 292 291 291 292 293 292 292 293 293 293 293 293 293 293

ECMWFNIL_850_thetae_087.txt.gz
Theta_e
316 316 315 315 315 315 315 315 315 314 313 313 312 310 306 302 300 298 298 297 297 297 297 297 297 297 297 297 297 299 298 297 297 299 299 297 299 302 302 304 306 307
314 314 314 314 313 313 314 313 313 312 311 311 308 304 300 298 297 297 296 296 296 296 296 296 296 296 296 296 296 298 297 296 297 300 302 300 300 303 303 304 305 305
313 313 313 313 312 312 312 311 311 310 309 307 302 298 297 296 296 296 296 296 295 295 296 296 296 296 296 296 296 296 296 296 297 301 306 304 301 301 302 303 305 306
312 312 312 311 311 311 311 311 310 308 304 300 297 297 297 296 296 296 295 295 295 295 295 295 296 295 295 295 296 295 295 295 296 300 304 303 300 300 300 302 305 307
311 311 310 310 311 311 310 308 306 302 298 296 297 297 297 298 298 297 297 297 296 296 295 295 295 295 295 295 295 295 295 295 296 298 301 302 302 302 300 300 304 306
310 310 310 310 309 308 305 302 300 298 296 296 297 297 297 298 299 299 298 298 298 297 296 295 295 295 295 295 295 295 295 295 295 297 300 301 302 303 302 301 303 305
309 308 307 306 304 301 298 298 297 297 296 297 297 298 298 298 298 299 299 298 298 296 295 295 295 295 295 295 295 295 295 295 295 296 299 300 301 303 304 303 304 305
307 304 300 299 298 297 297 296 296 296 296 296 296 298 298 298 298 299 300 299 297 295 295 295 294 294 295 295 295 296 297 297 297 297 299 301 302 303 303 303 304 303
302 299 297 297 297 297 296 296 295 296 297 297 297 297 297 298 298 298 299 299 297 295 294 294 294 294 295 294 294 297 299 299 299 300 301 302 303 303 302 303 303 303
298 297 296 296 296 296 296 295 295 296 297 297 297 297 297 297 298 298 298 298 297 295 294 294 294 294 294 294 294 296 299 300 300 301 303 303 303 302 302 302 302 302
296 296 296 296 295 295 295 295 295 296 296 297 297 297 297 296 297 299 299 298 296 295 294 294 294 294 294 294 294 294 298 300 300 301 303 303 302 302 302 302 301 301
295 295 295 295 295 295 294 294 294 294 295 296 297 296 295 295 295 297 298 297 295 294 294 294 294 294 294 294 295 294 296 299 300 301 303 302 302 302 302 301 301 300
295 295 295 294 295 294 294 294 294 294 294 295 296 295 295 295 295 296 296 295 294 293 294 294 294 294 294 294 295 294 295 300 301 302 303 302 301 302 301 301 300 300
295 295 294 294 294 294 294 294 294 294 294 294 294 294 295 296 297 297 297 295 294 293 293 294 293 294 294 294 295 294 295 300 302 302 302 302 301 301 300 300 299 299
295 295 294 294 294 294 294 294 294 294 294 294 294 294 295 296 298 299 299 297 295 294 293 293 293 293 294 293 294 294 295 300 302 301 301 301 301 300 300 299 299 298
296 296 295 295 295 294 294 294 294 294 294 294 293 293 294 295 297 299 299 297 296 294 293 293 293 293 293 293 294 294 295 299 301 301 301 301 300 300 299 299 298 298
298 298 297 296 295 295 294 294 294 294 294 293 294 293 293 294 296 297 297 297 296 293 292 293 293 293 294 293 294 295 295 299 300 300 300 300 299 299 299 298 298 297
300 300 299 298 297 296 295 295 294 294 294 294 294 294 293 294 295 296 298 300 297 293 292 293 293 293 294 293 294 294 296 298 300 300 300 300 299 299 298 298 298 297
300 300 299 299 298 297 296 296 295 295 294 294 294 293 293 293 294 295 298 301 300 295 292 293 293 293 293 293 294 294 296 299 300 300 299 299 299 298 298 298 297 297
300 300 299 299 298 297 297 297 296 295 295 296 295 294 294 294 294 294 296 300 301 298 293 292 293 293 293 293 294 294 296 298 299 299 299 299 299 298 298 297 297 296
300 299 299 299 298 298 297 296 296 297 297 297 296 296 296 295 294 294 294 297 300 300 295 292 292 293 292 293 293 295 296 298 299 299 299 299 298 298 298 297 297 296
299 299 299 299 298 298 297 296 296 298 297 297 297 296 296 296 295 295 294 294 296 299 297 293 291 292 292 292 293 294 296 298 298 298 299 299 298 298 297 297 297 296
299 299 299 299 299 299 297 296 298 298 298 298 298 298 297 297 296 295 294 292 292 295 297 295 292 291 292 292 292 293 294 297 298 298 298 298 298 297 297 297 296 296
300 299 299 299 299 298 297 297 298 298 298 299 299 298 299 299 298 297 296 294 291 291 294 295 293 291 291 292 292 292 293 295 297 296 297 298 298 297 297 297 296 296
300 300 300 299 299 298 297 298 298 298 299 299 299 299 299 298 298 299 297 296 295 292 292 293 292 291 291 291 292 292 292 294 295 295 296 297 298 297 297 297 296 296
300 300 299 299 298 298 298 298 298 299 299 299 299 299 299 298 298 298 298 297 297 296 293 292 292 292 291 291 291 292 292 293 294 293 294 296 298 297 296 296 296 296

ECMWFNIL_850_thetae_090.txt.gz
Theta_e
317 316 317 318 317 317 317 317 315 313 313 312 309 304 300 299 298 297 297 297 297 297 297 297 297 297 297 298 298 297 297 298 302 306 303 300 301 302 304 305 304 306
315 315 315 315 315 315 314 313 312 312 311 308 303 298 297 297 297 297 296 296 297 296 297 297 297 297 297 298 298 296 297 299 302 306 305 300 298 300 303 304 305 307
314 313 313 313 313 312 311 311 311 310 307 301 297 297 296 296 296 297 296 296 296 296 296 296 296 297 297 297 297 297 298 299 302 304 304 303 301 301 300 301 305 306
312 312 312 312 311 311 311 311 309 305 300 297 297 297 296 296 296 296 296 296 296 296 296 296 295 296 296 296 296 296 298 298 301 304 304 304 303 301 299 301 305 305
311 312 312 312 311 311 311 309 304 300 297 297 297 298 298 298 297 297 296 296 296 296 295 295 295 295 296 296 296 295 296 297 300 302 302 303 304 303 302 303 304 305
311 311 311 311 310 309 308 304 299 297 297 297 297 298 299 298 298 299 297 296 296 295 295 295 295 295 296 297 297 296 296 296 299 300 300 302 304 303 303 303 304 304
311 311 311 310 309 307 304 300 297 297 297 297 297 298 298 297 298 298 297 295 295 295 295 295 295 295 295 296 298 299 299 299 300 301 302 303 303 302 302 303 303 303
310 309 308 307 305 302 300 297 296 296 297 297 297 297 298 298 299 300 298 295 294 295 295 295 295 295 295 296 298 301 303 302 302 303 304 304 303 303 303 303 302 302
307 306 304 302 301 299 298 297 296 297 297 296 296 297 298 298 300 300 298 295 294 294 294 294 295 294 295 295 296 300 304 303 303 304 304 304 304 303 302 302 302 301
304 302 301 300 299 298 297 297 297 298 297 296 296 296 297 299 300 298 296 295 294 294 294 294 294 294 294 295 294 299 303 303 303 304 303 302 303 303 302 302 301 300
301 300 299 298 298 297 297 297 296 296 297 297 296 295 297 301 301 298 295 294 294 294 294 294 294 294 294 295 294 298 302 303 303 304 303 302 303 302 301 301 300 300
298 297 297 296 296 296 296 295 296 297 298 297 296 295 296 298 299 296 294 294 294 294 294 294 294 294 294 294 294 296 301 303 303 303 303 302 302 301 301 300 299 299
297 296 296 296 295 296 295 295 296 297 297 297 298 297 296 296 296 294 293 293 293 293 294 294 294 294 294 294 295 296 299 302 302 302 302 301 301 301 300 300 299 299
296 296 295 295 295 295 295 295 295 296 295 296 297 298 299 300 298 297 295 293 293 293 293 293 293 294 294 294 295 296 298 301 302 302 302 301 300 300 300 299 299 298
295 295 295 295 295 295 295 295 294 294 294 294 296 298 302 303 301 299 296 293 293 293 293 293 293 294 294 293 295 296 297 299 301 301 301 300 300 300 299 299 298 298
295 295 295 295 295 294 295 295 294 294 294 294 295 297 301 302 301 298 295 292 293 293 292 293 293 293 294 293 294 296 297 299 300 301 301 300 299 300 299 298 298 297
296 296 296 295 294 294 294 294 294 295 294 294 295 296 298 301 301 298 293 291 293 292 292 293 293 293 294 293 294 296 297 299 300 300 300 300 299 299 299 298 298 297
298 298 296 295 295 295 294 294 294 294 294 294 294 295 297 300 301 301 296 292 292 292 292 292 293 293 293 293 294 295 297 299 300 300 300 300 299 298 299 298 298 297
300 299 298 298 297 296 294 295 295 294 294 294 294 294 295 297 300 302 300 294 291 292 292 292 292 293 292 293 294 294 296 298 300 300 300 300 298 298 298 298 298 297
302 301 300 300 298 297 296 295 294 293 294 294 294 293 294 295 297 300 301 298 292 291 292 292 292 292 292 293 293 294 296 297 299 300 300 299 298 298 298 298 298 297
302 301 300 300 299 298 297 295 294 296 297 296 296 295 294 294 294 296 300 300 296 292 291 292 292 291 292 292 292 294 295 296 297 298 299 299 299 298 298 298 297 297
301 300 300 300 299 298 296 296 297 299 298 296 296 295 294 293 292 293 295 297 298 295 292 291 292 291 291 291 292 292 293 294 295 296 297 299 299 298 297 298 297 296
300 300 300 300 299 297 296 297 298 298 297 296 296 296 296 294 293 292 292 293 295 295 293 292 292 292 291 291 291 292 292 293 293 293 295 298 299 298 297 297 297 297
300 299 300 300 299 297 297 299 299 298 299 299 299 299 299 298 296 294 293 292 292 292 292 292 291 292 292 291 291 291 291 291 292 292 293 295 298 298 297 297 297 297
300 299 300 300 299 297 298 299 299 299 299 299 300 300 300 300 299 298 296 294 294 293 292 292 292 291 291 291 291 291 291 291 291 291 291 293 295 297 297 297 297 297
300 300 300 299 297 297 297 298 298 299 300 300 300 300 299 299 299 299 299 298 298 297 296 295 293 291 291 291 291 291 291 291 291 291 291 291 292 295 297 297 296 296

ECMWFNIL_850_thetae_093.txt.gz
Theta_e
320 320 320 320 320 320 319 318 317 315 313 311 309 304 301 300 299 298 298 298 298 298 298 298 298 298 297 297 297 297 298 300 301 299 297 296 297 298 300 302 304 304
318 318 319 319 319 319 318 317 315 314 310 306 302 299 298 298 298 298 297 297 297 297 297 297 297 297 297 297 297 297 298 298 299 299 298 297 296 297 300 302 302 301
316 316 317 317 317 317 317 315 313 311 306 300 298 297 297 297 297 297 297 297 297 297 297 297 297 297 297 297 297 297 297 298 299 300 299 298 297 297 301 304 303 301
314 314 315 315 315 314 313 313 311 307 301 297 297 297 297 296 296 296 296 296 296 296 296 297 297 297 296 296 296 296 298 298 299 300 300 298 297 297 300 303 303 301
312 312 312 312 311 311 310 309 306 301 297 297 297 297 296 296 296 296 296 296 296 296 297 297 297 297 296 296 296 296 297 297 298 299 299 298 297 298 300 301 300 299
311 311 311 311 311 310 309 305 300 297 297 297 297 297 297 296 296 296 296 296 296 297 296 297 297 296 296 296 296 296 297 298 298 299 299 299 299 300 301 300 298 298
311 311 311 311 311 309 306 301 298 298 298 298 298 298 297 296 296 296 296 296 296 296 296 296 296 296 297 296 297 297 299 300 300 300 301 302 301 300 300 300 298 298
311 311 311 310 308 305 301 300 299 299 299 298 298 297 297 296 296 296 296 296 296 296 296 296 295 295 296 297 298 298 300 302 302 300 302 303 301 300 300 300 298 297
311 311 309 308 306 302 300 299 298 299 299 298 297 297 297 296 296 296 295 295 295 295 295 295 295 295 295 297 297 297 300 303 302 299 301 302 301 300 300 299 298 297
310 309 308 307 304 301 300 299 298 298 298 297 296 297 297 296 295 295 295 295 295 295 295 295 295 295 295 296 297 297 299 302 302 300 301 302 301 300 299 298 298 297
307 306 306 304 302 300 299 298 297 297 297 296 297 296 296 295 295 295 295 295 295 295 295 295 294 294 294 295 297 297 298 301 302 302 301 300 300 300 299 298 298 297
305 304 303 301 300 299 298 297 296 296 296 296 297 297 296 295 294 294 294 294 295 294 294 294 294 294 294 295 297 298 298 300 302 301 299 300 300 299 299 298 297 297
302 302 301 300 299 298 297 296 296 296 295 295 296 296 295 294 294 294 294 294 294 294 294 294 294 294 294 295 297 298 299 299 300 300 299 299 300 299 299 298 297 297
301 300 299 299 298 297 296 296 296 296 295 295 295 295 294 294 294 294 294 294 294 294 294 294 294 294 294 295 296 297 299 300 300 300 299 299 299 299 299 298 297 296
299 298 298 298 297 296 296 296 296 296 296 296 296 295 295 294 294 294 294 294 294 294 294 294 294 294 294 295 296 297 298 300 300 300 299 299 299 299 299 298 297 296
297 297 297 297 296 296 296 296 296 296 296 297 298 298 295 293 293 293 293 293 293 293 293 293 293 293 294 295 296 297 298 299 300 300 299 299 298 299 299 298 297 297
296 296 296 296 296 296 295 295 295 295 296 297 299 298 295 293 293 293 293 293 293 293 293 293 293 293 294 294 296 297 297 298 299 299 299 298 298 298 298 298 297 297
296 295 296 296 296 295 295 295 295 295 295 296 297 296 294 293 293 293 293 292 293 293 293 293 292 293 293 294 294 296 297 299 299 299 299 299 297 297 298 298 297 297
295 295 295 295 295 295 295 295 295 295 295 295 296 296 295 294 293 292 292 292 292 292 292 292 292 292 292 293 293 294 295 297 298 299 299 299 298 297 298 298 297 297
295 295 295 294 294 295 295 295 294 294 294 294 295 296 296 296 294 292 292 292 292 292 292 292 292 292 292 292 292 293 293 294 295 297 298 299 298 297 297 298 297 297
296 296 295 295 294 294 294 294 294 294 294 294 294 295 296 296 295 293 292 292 292 292 292 292 292 292 292 292 292 292 292 292 293 294 297 298 298 297 297 297 297 297
298 297 296 295 294 294 294 294 294 294 293 293 293 293 293 294 294 293 293 292 292 292 292 292 292 292 292 292 292 291 292 292 292 293 294 296 297 297 297 297 297 297
299 298 297 295 295 294 294 294 294 294 294 293 293 293 293 293 293 293 292 292 292 292 292 292 292 292 292 292 291 291 291 291 292 292 292 294 296 297 297 296 296 296
300 298 297 295 295 294 294 294 294 294 294 293 293 293 293 292 292 292 292 292 292 292 292 292 292 292 292 292 291 291 291 291 291 291 291 292 294 295 296 295 295 295
299 298 296 295 295 294 294 294 294 294 294 295 295 295 293 293 293 294 294 294 294 294 293 293 292 292 292 292 291 291 291 291 291 291 291 291 291 293 294 294 294 294
299 298 296 295 295 295 295 294 294 295 296 296 297 297 295 295 296 297 297 297 297 296 296 295 293 292 292 292 291 291 291 291 291 291 291 291 291 292 293 294 294 294

ECMWFNIL_850_thetae_096.txt.gz
Theta_e
326 325 324 323 322 321 321 319 318 318 316 316 316 309 303 301 301 300 300 299 299 299 299 299 299 299 298 298 298 298 298 299 298 297 297 296 297 298 299 300 299 297
324 323 322 321 321 320 320 318 317 317 314 313 312 305 299 300 299 298 298 298 298 298 298 299 298 298 298 298 298 298 298 297 297 297 297 296 297 297 299 300 298 296
323 321 320 319 319 319 319 318 317 315 312 309 306 301 298 299 298 298 298 298 298 298 298 298 298 298 298 297 298 297 297 297 298 298 296 296 297 297 298 298 297 296
321 319 318 318 318 317 318 317 316 314 308 303 301 298 297 298 297 297 298 297 298 298 298 298 297 298 297 297 297 297 297 298 298 297 296 295 296 297 297 297 296 296
318 316 317 317 317 317 316 315 315 311 304 299 298 298 297 297 297 297 297 297 297 297 297 297 297 297 297 297 297 297 297 297 297 297 296 296 296 296 297 296 296 296
316 315 315 315 315 316 314 313 312 306 299 297 298 297 297 297 297 297 297 297 297 297 297 297 297 297 297 297 297 296 296 296 297 297 297 298 297 296 296 296 295 295
315 314 314 314 314 313 312 311 308 301 297 298 297 297 297 297 297 297 297 297 297 297 296 296 297 296 296 297 296 297 297 296 297 298 299 299 298 296 296 296 295 295
313 313 312 312 311 310 310 307 302 298 299 298 297 296 297 297 297 297 297 296 296 296 296 296 296 296 296 296 296 297 297 296 297 298 300 299 298 296 296 296 295 294
312 311 310 310 309 308 306 302 299 299 299 298 296 297 297 296 296 296 296 296 296 296 296 296 296 296 296 296 296 297 297 297 297 298 299 298 297 297 296 295 295 294
311 310 310 310 309 306 302 299 299 300 299 297 297 297 297 296 296 296 296 296 296 296 295 296 296 295 295 295 296 297 297 299 299 298 298 298 298 297 297 295 294 294
311 310 310 310 307 303 300 299 299 299 298 298 297 296 296 296 296 296 296 296 296 295 295 295 295 295 295 295 296 297 298 300 300 298 298 299 298 298 298 296 295 295
311 311 310 308 304 301 299 299 299 298 298 297 296 296 296 296 296 296 295 295 296 295 295 295 295 295 294 295 296 297 298 299 298 298 299 299 299 298 298 297 295 295
311 311 310 307 303 301 299 299 299 299 298 297 296 296 296 296 296 295 295 296 295 295 295 295 295 295 294 296 296 297 298 297 297 298 299 299 299 299 298 297 296 296
310 310 308 306 303 301 299 298 298 298 297 296 296 296 295 295 295 295 295 295 295 295 295 294 294 294 294 295 296 297 298 298 297 298 299 298 299 299 298 297 297 296
309 308 306 304 302 301 299 297 297 297 297 296 296 295 295 295 295 295 295 295 295 295 295 294 294 294 294 295 296 296 298 298 298 298 298 298 298 298 298 297 297 296
307 306 304 303 302 301 299 297 297 296 296 295 295 295 294 294 294 294 294 294 294 294 294 294 294 294 294 294 295 296 297 299 299 298 298 297 297 297 297 297 297 297
306 305 304 302 302 300 299 298 297 296 295 295 295 294 294 294 294 294 294 294 294 294 294 294 293 294 294 294 295 296 297 298 299 299 298 297 296 297 297 297 297 297
306 305 303 302 301 300 299 298 297 296 295 295 295 295 294 294 293 293 293 293 293 293 293 293 293 293 293 294 294 295 296 297 298 298 298 297 296 296 297 297 297 296
305 304 302 301 300 299 298 298 297 297 296 296 296 295 293 293 293 293 293 293 293 293 293 293 293 293 293 293 293 293 294 295 296 297 298 297 296 296 297 297 297 297
303 302 301 300 299 298 298 297 297 296 296 297 296 294 293 293 293 293 293 293 292 293 293 293 293 292 292 292 292 292 292 293 294 295 296 297 296 296 296 296 296 296
301 301 299 298 298 297 296 296 296 296 296 296 296 294 293 293 293 293 293 293 292 292 293 293 292 292 292 292 291 291 291 292 292 293 295 296 296 296 296 296 295 294
300 299 299 297 297 296 295 295 295 295 295 295 295 295 294 293 292 293 293 292 292 292 292 292 292 292 292 291 291 291 291 291 291 292 293 295 296 295 296 295 294 293
300 299 298 297 296 295 295 294 294 295 295 294 295 295 295 293 292 292 292 292 292 292 292 292 292 292 292 291 291 291 291 291 291 291 292 293 294 295 295 294 293 293
299 298 296 296 295 294 294 294 294 294 294 294 294 294 294 293 292 292 292 292 292 292 292 292 292 292 292 291 291 291 291 291 291 291 291 292 293 294 294 294 293 294
298 297 296 295 294 294 294 294 294 294 294 294 294 293 293 292 292 292 293 293 293 293 293 293 293 292 292 292 292 292 292 291 291 291 291 292 292 293 293 293 293 294
298 297 296 295 294 294 294 294 294 294 294 293 293 293 293 292 293 294 295 295 295 295 295 294 294 293 292 292 292 292 292 292 292 292 292 292 292 293 293 293 293 293

ECMWFNIL_850_thetae_099.txt.gz
Theta_e
331 330 330 328 326 323 322 321 320 319 318 316 316 313 306 303 302 301 301 301 300 300 300 299 299 299 299 299 298 298 298 299 299 298 298 298 298 297 297 297 296 295
330 329 328 326 324 322 321 320 319 318 316 314 314 310 302 301 301 300 299 299 299 299 299 298 298 298 298 298 298 298 298 298 298 298 297 297 297 297 296 296 295 295
329 328 326 324 323 321 320 319 317 317 315 313 312 307 300 299 300 298 298 298 298 298 298 298 298 298 298 298 298 298 298 298 298 298 297 297 296 296 296 295 295 295
327 326 324 322 321 319 319 318 316 316 314 311 309 304 298 299 299 298 298 297 297 298 297 297 297 297 298 298 298 298 298 298 298 297 296 296 296 296 295 295 295 295
324 323 321 320 319 318 317 316 316 315 312 309 305 301 298 298 298 297 297 297 297 297 297 297 297 297 297 297 297 297 297 297 297 297 296 296 296 295 295 295 295 295
322 320 319 318 318 317 316 315 314 313 311 306 302 299 298 297 297 297 297 297 297 297 297 297 297 297 297 297 297 297 297 297 297 297 297 297 296 295 295 295 294 294
320 318 318 318 317 316 316 314 313 312 308 303 299 299 297 297 297 296 296 296 296 296 296 296 296 296 296 297 296 296 297 296 296 297 297 296 296 295 295 294 294 294
317 317 316 316 316 315 314 313 312 310 304 299 298 298 297 296 296 296 296 296 296 296 296 296 296 296 296 296 296 296 297 296 296 296 296 296 296 295 295 294 294 294
315 315 315 314 314 314 313 311 310 307 300 298 298 297 296 296 296 296 296 296 296 296 296 296 296 296 296 296 296 296 296 297 297 296 296 296 296 295 294 294 294 294
314 314 314 313 312 312 311 310 308 303 299 298 298 297 296 296 296 296 296 296 296 296 296 296 296 296 295 296 296 296 296 296 297 296 296 297 296 295 295 294 294 294
313 313 312 311 311 310 309 308 305 300 298 298 297 297 296 296 296 296 296 295 295 296 296 296 295 295 295 295 296 296 296 296 296 295 296 297 296 296 295 295 295 295
312 311 311 310 310 309 308 305 302 299 299 299 298 297 296 295 296 296 295 295 296 295 296 295 295 295 295 295 295 296 296 296 296 296 296 296 296 296 296 295 295 295
311 311 310 310 310 309 306 302 300 300 299 299 297 297 296 296 296 296 295 295 295 295 295 295 295 295 295 295 295 296 296 296 296 296 296 296 296 296 296 296 296 296
312 311 310 310 309 307 304 302 301 300 299 298 297 296 296 296 295 295 295 295 295 295 295 295 295 294 294 295 295 296 296 296 296 296 296 296 296 296 296 296 296 296
313 312 311 310 309 306 304 302 301 299 298 297 297 296 295 295 295 295 295 295 295 295 295 295 295 294 294 295 295 295 296 296 296 296 296 296 296 296 297 296 296 296
312 311 310 310 309 306 304 303 301 299 298 296 296 296 295 295 295 295 295 295 295 295 295 295 294 294 294 294 295 295 296 296 296 296 296 296 295 296 296 296 297 296
311 311 310 310 308 306 304 302 300 298 297 296 296 295 295 295 295 295 295 295 295 295 295 295 294 294 294 294 294 295 295 296 296 296 296 296 296 296 296 296 296 296
311 310 310 309 307 304 302 301 299 298 297 296 296 295 295 295 295 294 295 295 295 295 295 295 294 294 294 294 294 294 295 295 295 295 296 296 296 296 295 295 296 296
310 310 309 307 305 303 301 301 299 298 297 296 295 295 294 294 294 294 294 294 294 295 294 294 294 293 293 293 293 293 293 294 294 294 295 295 296 296 295 295 295 295
310 309 307 305 304 302 301 301 299 298 297 296 295 295 294 294 294 294 294 294 294 294 294 294 293 293 293 292 292 292 292 292 292 293 293 294 295 295 295 295 295 294
309 307 305 305 304 302 301 301 300 299 297 296 296 295 294 294 294 294 294 294 294 294 293 293 293 293 292 292 292 292 292 292 292 292 292 293 294 295 295 295 294 293
308 306 305 304 303 301 301 300 300 299 297 297 297 295 294 294 294 294 294 294 293 293 293 293 293 292 292 292 292 292 292 292 292 292 292 292 293 294 294 294 293 293
308 306 305 304 302 301 300 300 300 299 297 297 297 296 293 293 294 293 293 293 293 293 292 292 292 292 292 292 292 292 292 292 292 292 291 291 292 293 294 293 293 293
307 306 305 303 301 300 299 299 299 298 297 296 297 296 294 293 293 293 293 293 292 292 292 292 292 292 292 292 292 292 292 292 292 291 291 291 291 293 293 293 293 293
306 305 303 301 300 299 298 298 298 297 296 296 296 296 294 293 293 293 292 293 292 292 292 292 292 292 292 292 292 292 292 292 292 292 292 291 292 292 293 293 293 294
303 302 301 300 299 298 298 297 296 296 296 296 296 296 295 293 292 292 293 293 293 293 293 293 293 293 293 293 293 292 292 292 292 292 292 292 292 292 292 293 293 293

ECMWFNIL_850_thetae_102.txt.gz
Theta_e
330 329 329 330 330 329 328 326 324 321 320 319 318 317 314 310 306 303 302 301 300 300 299 299 299 299 299 299 298 299 299 299 299 299 298 298 298 297 297 297 296 296
329 330 331 331 330 329 327 324 321 319 319 317 316 314 311 305 302 301 300 300 300 299 299 298 298 298 298 298 298 298 298 298 298 298 297 297 297 297 296 296 296 295
330 331 331 330 329 327 325 322 320 319 318 316 314 312 307 301 300 300 299 299 299 299 298 298 298 298 298 298 298 298 298 298 298 297 297 297 297 296 296 295 295 295
331 331 330 328 326 324 322 321 319 318 316 314 313 309 303 299 299 299 298 299 299 298 298 297 298 297 297 297 297 297 297 297 297 297 297 297 296 296 296 295 295 295
330 330 328 326 324 322 320 319 317 316 315 313 311 306 300 298 298 298 298 299 298 298 297 297 297 297 297 297 297 297 297 297 297 297 297 297 296 296 295 295 294 294
329 328 326 324 322 320 318 317 316 315 313 311 308 303 298 297 298 298 298 298 297 297 296 296 297 296 297 297 296 297 297 297 297 296 296 296 296 295 295 294 294 294
327 326 324 322 320 318 317 316 315 314 312 309 305 300 297 297 297 297 297 297 296 296 296 296 296 296 296 297 296 297 296 296 296 296 296 296 296 295 295 294 294 294
325 324 322 320 319 317 316 315 314 313 311 307 302 299 297 297 296 296 296 296 296 296 296 296 296 296 296 296 296 296 296 297 296 296 296 296 295 295 294 294 294 294
323 322 320 319 317 316 316 315 313 312 310 305 300 298 297 296 296 296 296 295 296 295 295 296 296 296 296 296 296 296 296 296 296 296 296 296 296 295 295 294 294 294
322 321 319 317 316 315 315 314 312 311 308 302 298 298 297 296 296 296 295 295 295 295 295 295 295 296 296 295 296 296 296 296 295 295 296 296 295 295 295 295 295 294
321 319 318 316 315 314 313 312 311 310 305 300 298 298 297 296 296 295 295 295 295 295 295 295 295 295 295 295 296 296 296 296 295 296 296 296 295 295 295 295 295 294
319 317 317 316 314 313 312 310 310 308 302 298 298 298 297 296 295 295 295 295 295 295 295 295 295 295 295 295 295 296 296 295 296 296 296 295 295 295 295 295 295 294
317 316 316 315 313 311 310 309 309 305 300 298 298 298 297 295 295 295 295 295 295 295 294 295 295 295 295 295 295 295 295 295 296 295 295 295 295 295 295 295 295 294
316 315 314 313 311 310 309 308 306 302 299 299 298 298 297 295 294 295 295 295 295 295 295 295 295 294 295 295 295 295 295 295 295 295 295 294 294 295 295 295 294 294
315 314 312 311 310 309 309 307 304 300 299 299 298 297 296 295 294 295 294 295 295 294 295 294 294 294 294 295 295 295 295 295 295 295 295 295 294 294 294 294 294 293
314 313 311 310 310 309 308 305 302 299 299 299 298 297 296 294 294 295 294 294 294 294 294 294 294 294 294 294 295 295 295 295 294 294 294 295 294 294 294 294 293 293
313 312 311 310 310 309 306 303 301 299 299 299 298 296 295 294 294 294 294 294 294 294 294 294 294 294 294 294 294 294 294 294 294 294 294 294 294 294 294 293 293 293
313 312 311 311 310 309 306 303 301 299 299 299 297 296 295 294 294 294 294 294 294 294 294 294 294 294 294 294 294 294 294 294 293 293 293 294 294 294 294 294 293 293
314 312 312 311 310 309 306 303 301 299 298 298 297 296 295 294 294 294 294 294 294 294 294 294 294 294 294 294 294 294 294 294 293 293 293 293 293 294 294 293 293 293
313 312 311 310 309 308 307 304 300 298 298 298 297 296 294 294 294 294 294 294 294 294 294 294 294 294 294 294 294 294 293 293 293 293 292 292 293 293 293 293 293 293
312 311 310 310 309 308 307 304 300 299 298 297 296 295 294 294 294 294 294 294 294 294 294 294 294 294 293 293 293 293 293 293 293 293 293 292 292 292 293 293 293 292
312 311 310 310 309 308 306 303 300 300 299 297 296 295 294 293 293 294 293 294 294 294 293 293 293 293 293 293 293 293 293 293 293 293 293 292 292 292 292 292 292 292
311 311 310 310 309 307 304 302 300 300 299 298 296 295 294 293 293 293 293 293 293 293 293 293 293 293 293 293 293 293 293 293 293 293 293 292 292 292 292 292 292 292
312 311 310 310 308 305 303 302 301 300 299 298 297 296 294 293 293 293 293 293 293 293 293 293 293 293 293 293 294 294 293 293 293 293 293 293 292 292 292 292 292 292
312 311 310 309 306 304 303 301 301 300 299 298 298 296 294 293 293 293 293 293 293 293 293 293 293 293 293 293 294 294 294 294 293 293 293 293 293 292 292 292 292 292
312 311 310 307 304 303 302 301 300 300 300 299 298 297 294 293 293 293 293 293 293 293 293 292 292 293 293 294 294 294 294 294 293 294 293 293 292 292 292 292 292 292

ECMWFNIL_850_thetae_105.txt.gz
Theta_e
331 330 330 330 330 329 328 328 328 327 326 324 321 319 316 311 306 304 303 301 301 300 300 299 299 298 298 298 298 298 298 298 299 298 298 299 299 298 298 298 298 297
330 329 330 330 329 329 329 329 328 326 325 322 319 317 312 306 303 302 301 300 300 300 299 299 299 298 298 298 297 297 298 298 298 298 298 298 298 298 298 297 297 297
330 330 330 329 329 330 329 328 327 325 322 319 317 314 308 303 301 300 300 300 300 299 299 299 298 298 297 297 297 297 297 298 298 297 297 298 297 297 297 296 296 296
330 329 329 329 330 330 328 327 326 323 320 317 315 311 304 301 300 299 299 299 299 299 298 298 298 297 297 297 297 297 297 297 297 297 297 297 296 296 296 296 295 295
329 329 329 330 330 329 328 326 324 321 318 316 313 307 301 299 299 298 298 298 298 298 298 297 297 297 297 297 297 297 297 297 297 296 296 296 296 296 296 295 295 295
330 330 331 330 329 328 327 325 321 319 317 314 311 304 299 299 299 298 298 297 297 297 297 297 297 297 297 297 297 297 297 296 296 296 296 296 296 295 295 295 295 294
331 331 331 330 329 327 325 322 320 317 315 313 308 301 298 298 297 297 297 297 297 296 296 296 296 296 296 296 296 296 296 296 296 296 296 296 296 295 295 295 294 294
332 331 330 329 328 326 323 321 318 316 314 310 304 299 297 297 297 297 297 296 296 296 296 296 296 296 296 296 296 296 296 296 296 296 296 296 295 295 295 295 294 294
331 330 329 328 326 324 322 320 317 315 312 307 302 298 297 297 296 296 296 296 296 296 296 296 296 296 296 296 296 296 296 296 296 296 296 295 295 295 295 295 294 294
330 329 328 327 324 322 321 319 316 314 310 304 300 298 297 296 296 296 296 296 295 295 295 295 296 296 295 296 296 296 295 296 296 296 296 295 295 295 295 295 294 294
328 328 326 324 323 321 319 317 314 313 308 302 299 298 296 296 296 296 296 295 295 295 295 295 295 295 295 296 296 296 296 296 296 296 295 295 295 295 295 294 294 294
327 326 324 322 321 319 318 315 313 311 306 301 299 298 296 296 296 295 296 295 295 295 295 295 295 295 295 295 296 296 295 296 296 295 295 295 295 294 294 294 293 293
325 324 322 321 319 317 316 314 312 310 305 300 298 298 297 296 295 295 295 295 295 295 295 295 295 295 295 295 295 295 295 296 295 295 294 294 294 294 294 293 293 293
324 322 321 319 317 316 315 313 311 309 304 299 298 298 297 295 295 295 295 295 295 295 295 295 295 295 295 295 295 295 295 295 295 294 294 294 294 294 293 293 293 293
323 321 319 317 316 315 314 311 310 308 303 300 299 298 296 295 295 295 295 295 295 295 295 295 294 294 295 295 295 295 295 295 295 295 294 294 294 293 293 293 293 293
322 319 317 316 315 314 312 310 309 307 303 301 300 298 296 295 295 295 295 295 295 295 295 294 294 294 295 295 295 295 295 295 295 295 294 294 294 294 293 293 293 293
321 318 316 315 314 312 311 309 308 306 304 302 300 298 296 295 294 295 295 295 295 295 294 294 294 294 295 294 294 295 295 294 294 294 294 294 294 293 293 293 293 293
320 317 315 314 313 311 310 308 306 304 303 302 300 297 296 295 295 295 295 295 295 294 294 294 294 294 294 294 294 294 294 294 294 293 293 293 293 293 293 293 293 293
320 317 315 314 312 311 310 307 305 302 301 300 298 296 295 295 295 295 295 295 295 294 294 294 294 294 294 294 294 294 294 293 293 293 293 293 293 293 293 293 293 293
320 317 316 314 313 312 310 308 306 302 299 299 298 296 295 295 295 295 294 294 294 294 294 293 294 294 294 294 293 293 293 293 293 293 293 293 293 293 293 293 293 293
320 317 315 314 313 311 310 309 306 301 300 301 299 296 295 294 294 294 294 294 294 294 293 293 293 293 293 293 293 293 293 293 293 293 292 292 292 293 293 293 293 293
319 315 314 313 312 311 310 308 305 302 302 301 298 296 295 294 294 294 294 294 294 293 293 293 293 293 293 293 293 293 293 293 293 292 292 292 292 292 293 293 293 293
317 314 313 313 312 311 310 308 306 304 303 300 297 295 294 294 294 294 293 293 293 293 293 293 293 293 293 293 293 293 293 293 293 292 292 292 293 293 293 293 293 292
318 315 314 313 312 311 309 308 306 304 301 299 297 295 294 294 294 293 293 293 293 293 294 294 294 294 294 294 294 294 293 293 293 293 293 293 293 293 293 293 293 292
317 315 314 313 312 311 309 308 306 303 300 298 297 295 293 293 293 293 293 293 293 293 294 294 294 294 294 294 294 294 294 293 293 293 293 293 293 293 293 293 292 292
316 315 314 313 312 311 309 307 305 303 300 298 297 295 293 293 293 293 293 293 293 293 293 293 293 294 294 294 294 294 294 293 293 293 293 293 293 293 293 292 292 292

ECMWFNIL_850_thetae_108.txt.gz
Theta_e
333 332 332 332 331 330 329 328 328 327 327 326 324 324 322 317 314 310 305 302 301 300 299 298 298 298 298 298 298 298 298 298 298 299 299 299 299 299 298 298 298 298
333 332 332 331 330 330 329 328 328 327 327 325 325 324 319 312 308 305 302 301 300 299 299 298 298 298 298 298 298 298 298 298 298 298 299 299 298 298 298 298 298 298
332 332 331 330 330 329 329 328 328 327 326 325 325 322 314 307 304 302 301 300 299 298 298 298 298 298 298 297 297 298 298 298 298 298 298 298 298 298 298 298 298 297
332 332 331 330 329 329 328 328 328 327 325 325 324 318 309 304 302 300 300 300 299 298 298 297 297 297 297 297 297 297 298 298 298 298 298 298 298 297 297 297 297 297
331 331 330 330 330 329 328 328 327 326 325 325 322 313 305 301 300 299 299 299 298 298 297 297 297 297 297 297 297 297 297 297 297 297 297 297 297 297 297 296 296 296
331 331 330 330 330 329 328 328 327 326 325 323 318 309 302 300 299 298 298 298 298 297 297 297 297 297 297 297 297 297 296 297 297 297 297 297 296 296 296 295 295 295
330 330 330 329 329 328 328 328 328 327 324 322 315 305 300 299 298 298 298 297 297 297 297 297 296 297 297 297 296 296 296 297 297 297 296 296 296 296 295 295 295 294
330 329 329 330 329 328 327 327 327 325 322 319 312 303 299 299 297 297 297 297 297 296 296 296 296 296 297 296 296 296 296 296 296 296 296 295 295 295 295 294 294 294
329 330 330 330 329 328 327 326 325 323 320 316 308 301 299 298 297 297 297 296 296 296 296 296 296 296 296 296 296 296 296 296 297 296 296 296 297 296 295 294 294 294
329 330 331 330 328 327 327 326 323 321 318 313 305 299 298 298 297 297 297 296 296 296 296 296 296 296 296 296 296 296 296 296 296 296 296 297 297 296 295 295 295 294
330 331 330 329 327 326 326 324 322 319 316 311 303 298 297 297 297 296 296 296 296 297 297 296 296 296 295 296 296 296 296 296 296 297 297 297 296 295 295 295 295 295
330 331 329 328 327 326 324 322 320 318 315 308 302 298 297 297 297 296 296 296 297 298 298 297 296 296 296 296 296 296 296 296 297 297 297 296 296 295 295 295 295 294
330 331 329 327 327 325 322 320 319 317 313 306 300 298 297 296 296 296 296 297 298 299 299 298 297 297 297 297 297 297 296 296 296 297 297 296 296 296 296 295 295 294
330 329 328 327 326 323 321 319 318 316 311 304 299 298 297 296 296 295 296 298 299 298 299 298 297 297 297 297 297 297 297 296 296 297 296 295 295 296 296 295 295 295
329 328 327 326 324 322 320 318 317 315 310 302 298 298 297 296 296 295 295 297 296 297 297 297 297 297 297 296 297 298 298 298 298 298 297 297 297 296 295 295 296 295
328 327 327 325 323 321 319 316 315 314 308 301 298 298 297 296 295 295 295 295 295 295 295 295 296 297 296 295 297 298 299 299 298 298 298 298 298 298 296 296 296 296
328 327 326 324 322 320 317 315 314 312 307 301 298 299 297 295 295 295 295 294 295 295 294 294 295 295 295 295 295 297 299 299 299 298 298 298 298 299 299 297 297 296
328 326 324 322 320 318 316 314 312 310 306 301 299 299 297 295 295 296 295 294 294 294 294 295 295 294 295 295 294 295 296 299 300 299 298 299 299 300 301 300 298 296
328 326 324 322 319 317 315 313 310 309 306 301 300 300 297 296 298 297 295 293 294 294 294 294 294 294 295 294 295 295 294 297 300 298 297 299 299 298 299 298 297 296
328 326 323 321 318 316 314 312 310 308 305 301 300 299 298 298 299 297 294 293 294 294 294 294 294 294 295 294 294 295 293 295 299 298 296 297 296 295 295 295 294 295
327 326 323 320 318 316 313 311 309 307 303 301 299 299 300 299 297 295 294 294 294 294 294 294 294 294 295 294 294 295 293 295 298 297 294 294 294 293 293 293 293 293
327 326 323 319 317 315 312 310 308 306 303 301 300 299 299 297 294 294 294 294 294 294 294 294 294 294 294 294 294 294 293 293 295 294 292 293 293 293 293 293 293 293
326 325 322 320 317 314 312 310 308 306 305 302 300 298 297 295 294 294 294 294 294 294 294 294 294 294 294 294 293 293 293 293 293 293 293 293 293 293 293 293 293 293
325 324 323 321 317 315 313 312 309 308 306 302 299 298 296 294 294 294 294 294 294 294 294 294 294 294 293 293 293 293 294 293 293 294 294 293 293 293 293 294 293 293
325 324 322 320 317 316 315 313 311 309 305 301 299 298 296 294 294 293 293 293 293 294 294 294 294 293 293 293 293 294 293 293 294 295 295 293 294 294 293 294 293 293
325 324 322 319 318 317 316 313 311 308 304 301 301 299 296 294 293 293 293 293 293 293 294 294 294 293 293 293 293 294 293 293 294 296 295 293 294 294 294 294 293 294

ECMWFNIL_850_thetae_111.txt.gz
Theta_e
334 334 333 332 331 330 329 328 328 327 326 325 324 323 322 321 318 318 317 312 306 303 302 300 300 300 300 300 300 300 299 299 299 299 299 299 299 298 299 299 298 299
333 334 333 332 331 329 328 328 328 327 325 325 324 323 321 319 317 317 314 307 302 301 300 299 299 299 299 300 299 299 299 299 299 299 299 298 298 298 298 298 298 298
334 334 333 331 331 330 328 328 328 326 325 324 323 323 320 317 317 315 309 303 301 300 299 299 299 299 299 299 299 299 299 299 299 299 298 298 298 298 298 298 298 298
335 334 332 332 331 330 328 328 328 326 325 324 325 325 320 316 316 312 305 301 301 299 299 299 299 299 299 299 299 299 299 299 299 298 298 298 298 298 298 298 298 297
334 333 332 332 331 330 329 328 328 327 326 325 326 325 319 315 312 307 301 300 299 298 299 299 299 299 299 298 299 299 299 298 298 298 298 298 298 298 297 297 297 297
334 332 332 332 331 330 329 329 328 327 327 326 326 323 317 311 307 302 300 300 299 298 299 298 298 299 298 298 298 298 298 298 298 297 297 297 297 297 297 297 296 296
333 332 332 331 330 330 329 329 328 327 327 326 325 321 314 307 304 302 300 299 298 298 298 298 298 298 298 298 298 298 298 298 297 297 297 297 297 297 296 297 296 296
333 332 332 331 330 330 329 328 328 327 327 326 324 319 311 306 305 302 300 300 298 297 298 298 298 298 298 298 298 298 298 297 298 298 297 296 296 296 296 296 297 296
333 332 332 331 330 329 329 328 328 328 327 325 322 316 309 308 306 303 302 302 299 299 298 297 298 298 298 298 298 298 298 298 298 298 297 297 297 296 296 296 296 296
333 332 331 330 330 329 328 328 328 327 325 324 320 313 308 309 307 305 305 303 302 301 298 297 298 297 297 297 297 297 298 298 298 297 298 299 299 298 297 297 297 297
333 332 330 329 329 329 328 328 327 325 323 321 317 311 309 309 307 307 307 304 303 303 300 299 299 297 297 297 296 298 299 299 299 299 300 300 299 298 298 298 299 300
332 331 330 329 329 328 328 327 325 322 320 318 315 311 309 308 306 309 308 305 305 305 302 301 300 299 299 298 298 299 299 299 299 299 299 298 298 298 298 298 299 299
331 330 329 330 329 328 327 326 324 321 317 316 313 311 308 306 306 309 309 307 307 307 305 304 304 303 302 300 299 299 299 299 299 299 298 297 299 301 300 299 299 299
330 329 330 330 328 327 326 324 322 319 316 314 312 309 306 305 308 308 308 308 308 308 307 306 306 306 305 302 301 299 299 300 298 299 299 298 300 302 299 298 299 299
329 329 330 329 328 327 325 322 320 317 315 313 311 307 304 305 307 305 304 308 309 308 309 308 307 307 305 304 304 301 299 300 299 300 300 299 300 300 298 299 301 299
330 329 329 329 328 326 323 321 319 316 314 314 311 306 302 302 303 300 302 308 308 306 307 306 305 306 304 302 304 303 301 301 300 300 300 300 301 301 299 300 302 300
331 330 330 329 327 324 322 320 318 315 314 315 313 307 300 300 302 301 302 304 302 301 302 300 301 304 302 300 301 303 303 302 300 300 302 301 302 303 302 302 303 302
331 330 330 328 324 323 323 323 320 317 316 316 314 307 301 300 303 304 302 299 299 300 299 297 299 301 300 297 298 300 302 303 302 302 303 303 303 304 305 304 303 302
329 329 329 326 324 325 325 323 320 318 316 316 313 307 302 301 302 303 301 298 298 298 298 298 298 298 297 296 295 297 298 301 304 304 302 304 305 305 306 305 303 301
329 329 328 327 326 327 325 321 319 317 315 314 313 308 304 302 302 301 298 297 297 297 298 298 297 295 295 295 295 296 296 299 304 304 303 304 306 305 303 303 302 302
329 329 328 327 327 326 324 321 319 318 316 314 313 309 304 301 300 298 296 296 297 298 299 299 297 295 295 295 294 295 295 297 302 305 305 305 305 301 299 300 299 299
329 328 328 327 327 326 323 321 319 317 315 314 311 307 303 300 299 296 296 297 297 298 301 302 300 295 294 295 294 295 295 295 300 304 304 303 301 297 297 300 299 295
328 328 328 328 327 325 322 320 319 316 313 311 309 305 302 300 298 296 297 298 298 300 304 305 301 295 294 295 294 294 295 294 297 301 300 298 298 297 298 301 298 294
328 328 328 328 327 324 321 319 317 314 312 309 306 303 300 298 298 298 300 299 298 301 304 305 300 295 294 295 294 294 295 294 295 298 298 299 300 299 300 302 297 293
328 328 327 327 325 322 320 318 316 313 311 309 305 302 299 298 300 303 303 299 299 302 303 302 298 295 294 295 294 294 294 293 295 298 300 302 302 300 300 302 298 293
328 327 327 326 323 321 319 317 315 312 310 308 305 302 301 301 302 303 301 298 298 301 301 298 295 295 294 294 294 294 294 293 296 300 302 302 303 302 301 301 298 294

ECMWFNIL_850_thetae_114.txt.gz
Theta_e
336 336 334 334 334 334 333 331 329 329 329 327 326 325 324 323 323 321 320 320 319 316 314 310 306 303 302 301 301 301 301 301 301 301 301 300 300 300 300 300 300 300
336 335 334 334 334 334 332 329 328 328 327 326 325 324 323 322 322 320 319 319 317 313 309 305 302 301 301 301 301 301 301 301 300 300 300 300 300 299 299 299 299 299
335 334 334 334 334 333 331 329 328 328 327 326 325 324 322 322 321 319 318 316 312 308 304 301 300 300 300 300 300 300 300 300 300 300 300 300 299 299 299 299 299 298
335 334 335 334 333 332 330 328 328 327 326 325 325 324 322 321 320 318 316 313 308 303 301 300 300 300 300 300 300 300 300 300 300 300 300 299 299 299 299 298 298 298
334 334 334 334 332 331 329 328 328 327 326 325 325 324 322 320 319 317 315 312 306 301 300 300 299 300 300 300 300 300 300 300 299 299 299 299 299 299 298 298 297 298
334 334 334 333 332 331 329 328 327 327 326 325 325 324 323 320 317 316 314 310 303 300 299 299 299 299 299 300 300 299 299 299 299 299 299 299 298 298 297 297 297 298
334 334 334 333 332 331 330 328 328 327 326 326 326 325 322 318 316 316 313 307 301 299 299 299 299 299 299 300 299 299 299 299 299 299 298 298 298 298 297 297 297 298
334 334 334 333 332 331 330 329 328 327 327 327 326 325 321 318 316 315 311 305 300 299 299 299 299 299 299 299 299 299 299 298 298 299 298 298 298 297 298 297 298 298
335 334 334 333 332 331 330 329 328 328 327 327 326 325 321 317 315 313 309 304 300 299 298 299 299 299 299 299 299 299 298 298 299 299 298 298 298 298 298 297 298 297
335 334 333 332 332 331 330 330 329 328 328 326 326 325 319 315 314 312 308 304 302 300 299 298 298 298 298 298 298 299 298 298 299 298 298 297 297 297 297 297 297 297
335 334 333 332 332 331 330 330 329 329 328 327 327 324 318 314 313 311 308 306 303 301 299 298 299 298 298 299 298 298 298 298 299 298 298 298 298 297 297 297 297 297
334 334 333 333 332 331 330 330 329 328 327 327 326 322 317 314 313 310 309 307 304 303 300 299 299 298 298 298 298 298 298 298 298 298 299 299 298 297 297 297 297 297
333 332 332 333 332 331 331 330 329 328 327 326 325 320 316 314 312 310 309 306 305 304 303 302 301 299 298 298 298 298 298 298 298 299 299 299 298 297 297 297 297 297
332 332 332 333 332 332 331 330 329 327 326 326 323 318 316 313 311 309 308 307 307 307 306 305 302 299 299 299 298 298 299 299 300 300 299 298 298 297 296 296 296 296
332 332 333 333 332 331 330 329 328 327 325 324 320 317 315 313 310 309 308 308 308 307 305 303 301 299 300 299 298 298 299 299 300 300 299 298 299 299 297 296 296 296
332 333 333 332 331 330 329 329 327 325 323 321 318 316 315 312 309 309 308 308 307 305 303 301 300 300 300 299 298 298 298 298 299 301 300 298 299 300 297 296 298 297
332 333 333 332 330 329 328 328 326 323 322 319 317 316 315 311 309 309 308 306 305 304 303 303 301 300 299 299 298 298 298 299 300 302 302 299 299 300 297 298 302 301
332 332 333 331 330 329 328 327 324 321 319 318 317 317 315 312 310 308 306 303 303 306 306 303 300 300 299 298 300 300 299 300 300 301 302 302 301 301 300 300 303 302
331 332 332 330 329 329 328 326 323 320 318 318 319 318 316 314 310 306 304 302 303 307 307 302 300 301 299 298 301 301 300 301 303 302 303 304 303 303 304 305 304 302
331 332 330 329 329 329 327 325 323 321 320 319 320 320 317 314 309 304 302 302 303 306 305 302 301 300 299 299 301 302 300 301 305 305 304 305 304 304 306 307 306 303
331 330 330 329 328 329 327 325 323 322 321 320 320 319 317 314 309 303 301 301 303 305 304 302 301 299 299 299 300 301 300 301 306 306 304 304 306 306 306 306 305 302
330 330 329 329 329 328 328 325 324 323 322 321 319 318 316 314 308 302 300 300 302 303 302 302 300 299 298 299 298 298 298 301 304 305 303 305 307 306 305 303 302 300
330 330 330 330 329 328 327 326 325 324 323 322 319 316 315 313 307 301 299 301 301 301 301 302 301 300 298 298 297 295 296 299 302 303 304 306 306 304 301 299 298 297
329 329 329 328 328 328 327 326 325 324 324 322 319 316 315 312 307 302 300 301 299 298 300 303 304 302 300 297 295 295 295 297 299 302 304 304 303 300 297 297 298 297
325 325 326 327 327 328 327 326 326 325 324 322 319 316 314 312 308 304 301 299 296 297 302 306 306 304 302 298 295 295 295 295 297 300 301 301 300 299 297 298 300 298
324 325 327 328 328 328 327 326 327 325 324 321 318 315 312 310 306 302 300 298 297 299 304 307 307 305 303 299 296 294 294 295 295 298 300 300 301 302 301 300 300 298

ECMWFNIL_850_thetae_117.txt.gz
Theta_e
334 334 334 334 333 332 333 333 333 332 332 332 331 330 329 327 325 325 324 324 324 322 320 318 316 314 311 308 305 303 302 302 302 301 302 301 301 301 301 301 301 301
335 335 335 334 333 333 334 334 333 332 332 331 330 330 329 327 325 324 324 324 323 321 319 316 313 310 307 305 303 302 301 301 301 301 301 301 301 301 301 301 301 300
336 336 335 334 334 334 334 333 333 332 331 331 330 328 327 326 325 324 323 323 322 320 317 313 310 307 304 302 301 301 301 301 301 301 301 301 301 301 301 301 300 300
337 336 335 335 334 334 334 333 333 332 331 330 328 327 326 325 324 323 323 323 321 317 312 309 306 303 301 300 300 300 300 301 301 301 301 301 301 301 300 300 300 300
337 336 335 335 335 335 334 333 333 331 330 328 327 326 325 324 324 323 322 322 319 312 308 306 304 302 301 300 300 300 300 301 301 301 301 300 300 300 300 300 299 299
336 336 336 336 335 334 334 333 332 330 328 328 327 326 325 324 323 323 322 322 316 308 305 304 302 301 300 300 300 300 300 301 300 300 300 300 300 300 299 299 299 299
336 336 336 336 335 334 333 332 330 329 328 327 326 325 324 324 324 323 322 319 312 306 304 303 301 301 300 300 300 300 300 300 300 300 300 300 299 299 299 299 299 299
336 336 336 335 335 334 333 332 330 329 328 326 326 325 324 324 324 323 320 316 310 306 303 302 301 300 300 300 300 300 300 300 300 300 300 299 299 299 299 299 299 298
336 336 336 335 334 334 332 331 329 328 327 326 325 325 325 325 324 322 318 313 308 305 302 301 300 300 299 300 300 300 300 300 300 300 299 299 299 299 299 298 298 298
336 336 336 335 334 333 332 330 329 328 327 326 326 325 325 325 323 320 316 310 306 304 302 301 300 300 299 300 299 300 299 299 300 299 299 299 299 299 298 298 298 298
336 336 335 334 333 332 331 330 329 329 327 326 326 326 326 325 323 320 314 309 306 304 302 301 300 300 299 300 299 299 299 299 299 299 299 299 298 298 298 298 298 297
336 336 335 334 333 332 331 330 330 329 327 326 326 326 326 325 323 319 314 309 306 304 302 301 300 299 299 299 299 299 299 299 299 299 299 299 298 298 298 298 297 297
336 335 334 333 333 332 331 330 330 329 328 327 326 326 326 325 323 319 314 310 307 304 302 301 300 299 299 299 299 299 299 299 299 299 299 298 298 298 298 298 297 297
336 335 334 333 333 332 331 331 330 329 328 327 326 326 326 325 324 321 314 309 307 304 302 301 300 299 299 299 299 299 299 299 299 299 298 298 299 298 298 298 297 297
336 336 335 334 333 332 331 331 330 329 329 328 327 327 326 325 324 321 315 310 307 304 303 301 299 299 299 298 299 300 300 299 299 299 298 298 298 298 298 298 298 297
336 336 335 334 333 332 332 332 331 330 329 328 327 327 326 325 323 320 315 310 307 305 304 303 300 300 299 298 301 303 301 299 299 299 298 298 298 298 298 298 298 297
336 335 334 334 333 332 332 332 331 330 330 328 327 327 326 325 323 319 314 310 308 306 305 304 302 300 299 301 304 304 300 298 299 299 298 298 298 297 298 298 297 297
336 335 333 333 332 332 332 332 331 330 330 328 327 327 326 324 321 318 314 310 308 307 306 305 304 301 301 304 305 301 298 299 299 299 299 298 297 297 297 297 297 297
336 335 334 333 332 331 332 331 330 330 329 328 327 327 326 323 319 316 313 311 309 308 307 306 304 302 303 304 302 299 298 299 299 299 298 298 297 297 297 297 296 297
335 334 334 332 332 332 332 331 330 329 329 327 327 326 325 322 319 317 314 311 309 308 308 306 305 305 305 303 301 299 299 299 300 299 298 298 298 297 297 298 298 298
335 334 333 333 332 332 331 330 330 329 328 327 327 326 325 323 320 317 315 312 310 309 308 306 305 306 306 302 300 300 300 300 300 299 298 299 299 298 299 301 302 302
335 334 333 333 332 331 330 330 329 329 328 327 326 325 323 321 319 317 315 312 310 309 308 306 305 306 305 302 301 301 301 301 301 300 300 301 300 300 302 304 305 304
334 334 334 333 332 331 330 329 329 328 328 327 326 326 324 321 318 316 314 312 310 308 306 304 304 305 304 302 302 301 301 301 301 301 302 303 302 302 304 305 305 304
334 333 333 332 332 331 329 329 328 328 328 327 327 326 324 322 319 317 315 313 310 308 305 303 303 304 303 302 302 301 300 300 301 303 303 303 303 303 304 305 304 303
333 333 333 332 331 330 329 329 328 328 328 327 327 326 324 321 319 317 315 313 310 307 304 302 302 303 302 301 301 300 300 300 301 303 303 302 302 303 303 303 302 300
332 333 332 332 331 330 329 328 328 328 328 327 327 325 322 320 319 317 315 312 309 306 302 301 302 301 300 300 300 299 299 298 298 299 300 300 301 302 301 300 299 296

ECMWFNIL_850_thetae_123.txt.gz
Theta_e
336 335 333 333 333 334 335 336 337 336 335 334 332 332 333 333 333 333 332 331 331 330 330 329 327 325 325 324 323 323 323 322 320 318 315 313 312 311 310 310 310 309
336 334 332 332 333 335 336 337 337 337 336 334 333 333 334 333 333 332 332 331 330 330 330 329 327 325 325 325 324 324 322 321 318 314 311 309 308 307 307 307 307 306
336 333 331 331 333 336 337 337 338 337 335 334 334 334 333 333 332 332 331 330 330 330 330 329 327 325 325 325 325 323 322 319 314 310 307 305 304 304 305 305 304 303
335 332 331 332 334 336 337 337 338 337 335 334 334 334 333 332 332 331 330 330 331 331 330 328 327 326 325 325 324 322 319 315 310 305 303 302 301 302 303 302 301 301
334 331 332 334 335 337 337 337 338 337 335 335 334 333 332 332 331 331 330 331 331 331 329 328 326 326 325 324 322 320 316 311 306 303 301 301 300 301 301 300 300 300
335 333 333 335 336 337 337 338 338 337 336 335 335 333 332 331 331 331 331 331 330 329 328 327 326 325 325 323 320 316 312 307 303 301 300 300 300 300 300 300 300 299
336 335 334 335 336 337 337 338 338 337 336 336 334 333 332 332 332 331 330 330 330 328 327 326 325 325 323 320 316 312 307 303 301 300 300 300 300 300 300 300 299 299
338 337 336 335 335 337 338 338 338 337 336 335 334 333 333 333 332 331 330 330 329 328 326 325 324 324 321 316 312 308 304 301 300 300 300 299 299 300 299 299 299 299
339 338 337 336 336 337 338 338 337 336 335 335 334 333 333 333 332 331 329 330 329 327 326 324 324 323 318 312 308 305 301 300 300 299 299 299 299 299 299 299 299 299
339 339 338 337 336 337 337 338 337 335 333 334 334 333 334 333 331 330 329 329 328 326 325 324 324 321 314 308 304 302 300 300 299 299 299 299 299 299 299 299 299 298
340 339 339 338 337 336 337 337 337 334 333 334 334 334 334 333 331 330 329 328 327 325 325 324 323 319 311 305 302 300 299 299 299 299 299 299 299 299 298 298 298 298
340 339 339 339 338 336 336 336 336 334 333 334 335 334 334 332 331 330 329 328 326 325 324 323 321 317 309 302 301 300 299 299 299 299 299 298 299 298 298 298 298 298
339 339 339 340 339 337 335 335 336 335 334 335 335 334 334 332 331 330 328 327 325 325 324 322 320 315 307 301 300 299 299 299 299 298 298 298 298 298 298 298 298 297
339 340 340 340 339 337 335 335 336 335 335 336 334 333 333 332 331 329 327 326 324 324 324 321 318 313 306 301 300 299 299 299 298 298 298 298 298 298 297 297 297 297
339 339 340 340 339 337 335 335 336 336 335 335 334 332 333 332 330 328 326 325 325 324 324 321 316 310 305 301 300 300 299 298 298 298 298 298 298 298 298 298 297 297
339 339 340 340 339 338 336 334 335 336 336 335 334 332 331 330 329 327 326 325 325 325 324 321 315 308 303 301 300 300 299 298 299 298 299 299 298 298 298 298 297 297
339 339 340 340 339 339 337 335 335 336 336 336 334 333 331 330 328 327 326 325 325 325 324 323 317 309 303 301 300 299 299 299 299 299 299 299 299 299 299 298 297 297
339 339 339 340 339 339 337 335 335 336 336 336 335 333 331 330 328 327 326 326 325 325 325 324 319 310 304 302 300 299 299 299 299 300 299 299 300 300 299 299 298 297
339 339 339 339 339 338 337 335 336 336 336 335 334 332 331 330 328 327 326 326 326 325 325 324 320 313 306 302 301 300 300 300 300 300 299 300 302 301 300 300 300 298
339 339 339 339 338 337 337 335 335 336 336 335 334 332 331 330 329 327 327 326 326 325 325 324 321 315 308 304 302 301 301 300 300 299 299 302 303 302 301 301 300 298
339 339 339 338 338 337 336 336 336 336 336 335 334 333 331 331 329 328 327 327 326 325 324 324 322 317 311 306 304 303 302 301 300 299 301 303 303 302 302 301 299 298
338 338 338 338 337 337 337 336 336 336 335 335 334 333 332 331 330 329 328 327 326 325 324 324 322 318 312 308 306 304 303 301 300 301 303 304 303 302 302 301 299 297
337 337 337 338 337 337 336 336 335 335 334 334 333 332 332 331 330 329 328 327 327 326 325 324 323 319 314 310 308 306 304 302 301 302 304 303 302 301 301 300 298 298
337 336 337 337 337 337 336 335 334 334 334 334 333 333 333 331 330 329 328 327 327 327 325 324 323 320 316 313 310 307 305 303 303 304 304 303 302 301 300 299 298 299
337 336 337 337 337 337 336 336 335 334 334 333 333 333 332 331 330 329 328 328 327 326 324 323 322 320 317 314 311 308 307 306 305 305 304 303 301 300 300 299 298 299
337 336 336 337 337 336 335 336 336 334 332 331 331 332 331 331 329 329 329 328 327 326 324 322 320 319 318 316 312 310 308 307 307 306 304 302 301 300 300 299 299 298

ECMWFNIL_850_thetae_126.txt.gz
Theta_e
336 337 337 336 336 336 335 335 334 333 331 330 331 333 334 334 333 332 331 331 332 332 332 332 331 331 329 328 325 324 323 323 323 323 322 321 320 318 317 316 316 317
336 337 337 336 336 336 335 336 335 333 331 330 331 334 335 335 334 332 332 332 332 332 332 332 331 330 330 328 326 324 324 323 323 323 322 321 318 316 314 313 312 311
337 337 337 336 336 336 336 336 335 334 332 331 332 335 336 335 334 332 332 333 332 332 332 331 330 330 330 328 326 325 325 324 324 323 322 319 315 312 310 309 307 306
337 337 337 337 337 336 336 336 336 334 332 332 333 336 336 336 334 333 333 333 333 332 332 331 330 330 329 328 326 325 325 324 323 322 320 315 310 308 306 304 303 303
337 337 337 337 337 337 337 337 335 333 331 332 334 336 337 336 334 333 333 333 332 332 332 331 330 330 329 328 326 325 324 323 322 320 315 309 306 304 302 301 301 301
337 338 337 337 337 337 337 336 335 331 329 332 335 336 337 336 334 334 333 333 332 331 331 330 330 330 329 327 326 325 324 322 321 317 310 305 302 301 301 301 301 300
338 338 338 338 338 337 337 336 334 330 330 333 336 336 337 336 335 334 333 332 331 331 330 330 330 329 328 327 325 324 323 321 318 312 306 302 301 300 300 300 300 300
338 338 338 338 338 337 337 336 333 331 332 334 336 336 337 336 335 334 333 332 332 331 330 330 329 329 327 326 324 323 322 318 314 308 302 301 300 300 300 300 300 300
338 339 338 338 338 338 338 336 333 332 333 335 335 336 337 336 335 334 333 332 332 331 330 329 329 328 327 324 323 323 320 315 309 303 301 300 300 300 300 299 299 299
339 339 339 339 338 338 337 335 333 334 335 335 334 336 337 336 336 335 333 332 332 331 330 328 328 328 326 324 323 322 317 310 305 301 300 300 299 299 299 299 299 299
339 339 339 339 338 338 337 335 334 335 335 335 335 336 337 336 335 334 333 332 332 330 329 327 327 327 325 323 323 320 312 306 302 300 300 299 299 299 299 299 299 299
339 339 339 339 339 338 337 336 335 335 336 335 335 336 337 336 334 334 333 332 331 330 328 327 327 326 324 323 322 316 308 303 301 299 299 299 299 299 299 298 298 298
339 339 339 340 339 338 337 337 336 335 336 336 335 336 337 335 333 333 333 331 331 329 328 327 327 325 323 323 320 313 305 302 300 299 299 299 299 298 298 298 298 298
339 339 340 339 338 338 338 337 336 335 335 336 336 336 336 334 333 333 333 331 331 329 328 327 326 324 323 322 318 310 303 300 300 299 299 299 298 298 298 298 298 298
339 339 339 339 338 338 338 337 337 336 335 335 335 335 335 333 332 333 333 332 332 329 328 327 325 324 323 320 316 309 302 300 299 299 299 299 298 298 298 298 298 298
339 338 338 338 337 337 338 338 337 337 336 335 334 334 334 332 333 334 333 332 332 330 328 326 324 324 322 319 314 307 301 299 299 299 298 298 298 298 298 298 298 297
338 338 338 337 336 336 337 338 338 338 337 335 333 333 333 332 333 334 333 332 331 330 327 325 324 324 323 317 311 305 301 299 299 299 298 298 298 298 298 298 298 298
338 338 338 338 336 335 336 338 338 338 337 335 333 333 332 332 333 334 332 331 331 329 326 325 324 325 323 317 308 303 300 300 299 299 298 298 298 298 298 299 299 298
339 338 338 338 337 335 336 337 339 338 337 335 333 332 331 332 334 334 332 330 330 329 326 325 325 325 323 317 308 302 300 300 299 299 298 298 299 299 299 300 300 299
338 338 338 338 337 336 337 339 339 339 337 335 334 332 331 333 334 334 332 331 330 328 327 326 325 325 324 319 310 303 301 300 299 299 299 299 299 299 300 301 301 300
339 338 338 338 337 336 336 337 338 338 338 336 336 334 332 333 334 334 332 331 330 328 327 326 325 325 325 321 313 304 301 300 299 299 299 299 298 299 301 302 301 300
338 338 338 338 337 337 337 336 335 337 338 338 336 335 333 333 333 334 332 331 330 328 326 326 325 324 324 323 316 307 302 301 299 299 299 299 299 300 302 303 301 300
338 338 339 338 337 336 337 336 336 336 337 337 337 335 332 332 334 334 332 331 330 328 327 326 326 324 324 323 318 311 305 302 300 300 299 299 299 302 303 302 301 301
338 338 338 338 337 336 334 336 337 337 338 338 337 335 332 331 333 333 331 331 330 328 327 327 326 324 324 323 320 313 307 305 303 301 299 299 301 303 304 302 301 302
338 338 337 337 336 335 335 335 336 337 338 337 336 334 332 331 333 333 331 331 330 328 327 327 326 325 323 322 320 315 310 310 308 302 299 301 303 304 303 301 302 303
337 337 336 335 334 334 335 336 336 336 337 337 335 333 333 332 333 332 331 330 330 328 327 327 326 325 323 322 321 318 315 313 310 302 300 303 305 304 303 301 301 303

ECMWFNIL_850_thetae_129.txt.gz
Theta_e
337 337 336 336 335 335 335 336 336 335 335 335 334 331 330 330 332 332 333 333 332 331 331 332 333 332 332 332 331 330 328 325 324 322 322 321 321 321 321 321 320 321
338 337 337 336 336 335 335 336 337 337 336 335 334 332 330 330 331 332 333 333 333 332 332 332 333 333 332 331 330 330 329 326 324 323 322 322 321 320 319 319 319 319
338 338 337 337 336 335 335 335 336 337 337 336 334 333 331 331 331 333 333 334 333 332 332 333 333 333 332 331 330 330 329 327 325 324 324 323 322 321 319 317 316 317
339 338 338 337 336 335 335 335 336 337 337 336 335 334 333 331 332 334 334 335 333 332 332 333 333 333 332 331 330 330 329 327 326 325 324 323 322 320 316 314 313 312
340 339 338 337 337 336 335 336 336 337 337 336 335 335 334 332 332 334 335 335 334 332 332 333 333 333 332 331 330 330 329 328 326 325 324 323 321 317 312 310 309 307
341 339 338 338 337 336 336 336 336 337 337 336 336 336 334 333 333 335 336 335 334 332 333 333 333 332 332 330 330 330 329 327 326 325 323 322 319 313 308 305 304 303
341 340 339 338 337 336 336 336 336 337 337 337 336 336 335 333 334 336 337 336 334 333 332 332 332 332 331 330 329 329 328 326 325 324 323 321 316 309 304 302 302 302
341 340 340 338 338 337 337 336 336 337 337 337 336 337 334 333 335 337 337 335 334 333 332 332 332 331 330 330 329 328 327 325 324 323 321 318 312 305 302 301 301 301
340 340 340 339 338 337 336 337 337 337 337 337 337 337 334 333 335 337 337 336 334 333 332 332 332 331 330 329 328 327 325 325 324 322 319 314 307 302 300 300 300 300
339 339 340 340 339 338 337 337 337 337 337 337 337 336 333 333 336 337 337 336 335 333 332 332 332 331 330 329 328 327 325 324 324 321 316 309 303 300 300 300 300 300
339 339 339 340 340 338 337 337 337 337 337 337 338 336 333 334 336 337 336 336 335 333 332 332 331 330 329 328 328 326 325 324 323 319 311 304 301 300 300 300 300 299
339 339 339 339 340 339 338 338 337 338 337 337 337 335 333 335 336 336 335 336 335 333 332 332 331 330 329 328 327 326 324 324 322 315 307 302 300 300 300 299 299 299
339 339 339 339 340 339 338 338 338 338 338 338 338 334 333 335 336 335 335 336 335 334 333 332 331 330 329 328 327 325 324 323 320 311 304 301 299 299 299 299 299 299
338 339 339 339 340 339 339 338 338 338 338 338 337 334 334 336 335 335 336 336 335 334 332 332 331 330 328 327 326 325 324 322 316 307 302 300 299 299 299 299 299 298
339 339 339 339 339 339 339 338 338 338 338 338 336 334 334 336 335 336 336 336 335 333 332 332 331 330 328 327 326 324 323 321 313 305 301 300 299 299 299 299 299 298
339 339 339 339 339 339 339 338 338 338 339 337 335 334 335 336 335 335 336 335 334 333 332 331 331 329 328 327 325 324 323 319 311 303 301 299 299 299 299 299 299 298
338 339 339 339 338 338 338 337 337 338 339 337 334 334 335 336 335 335 335 335 333 333 332 331 331 330 328 326 324 324 322 317 308 302 300 299 299 299 299 298 298 298
338 338 339 338 337 337 338 337 336 338 338 336 335 334 334 335 336 335 335 334 333 332 333 331 330 330 328 325 324 324 321 315 306 301 300 299 299 299 299 298 298 298
337 338 338 338 337 337 337 337 336 337 338 337 335 334 334 334 335 334 335 334 332 332 333 332 331 330 328 325 324 323 319 312 305 301 299 299 299 299 298 298 298 298
337 337 338 337 337 337 337 337 336 337 338 337 336 335 335 335 334 334 334 334 333 333 333 332 331 330 327 324 324 324 318 310 304 301 299 299 299 298 298 298 298 298
337 338 338 337 337 337 337 337 337 337 337 337 336 336 336 335 334 333 333 332 333 334 333 331 331 330 327 325 325 324 318 308 302 300 299 299 299 298 298 298 299 300
337 338 338 338 338 337 337 337 337 337 336 335 335 336 337 336 334 333 332 332 333 334 332 331 330 329 327 325 325 325 320 309 302 300 300 299 299 298 298 298 299 302
338 338 338 338 337 337 337 337 337 337 335 333 334 335 337 336 334 333 332 332 332 333 332 330 330 329 327 325 325 325 322 313 304 300 300 299 299 299 298 298 300 303
338 338 338 338 338 338 338 337 338 337 334 332 333 335 336 336 335 333 332 331 332 333 332 330 330 329 327 325 325 325 324 319 309 303 301 299 299 299 299 299 301 304
338 339 339 339 338 338 338 338 338 337 334 332 333 335 337 336 335 333 333 332 332 333 332 330 329 328 326 325 325 324 325 322 314 306 302 300 299 300 299 299 302 304
339 339 339 339 338 338 338 338 337 337 336 333 331 332 335 336 335 334 334 333 333 333 332 330 329 327 325 325 324 324 325 323 317 309 303 300 300 299 299 300 303 304